GFSCGP_sfc_dewp_000.txt.gz
Dewpoint
26 21 17 20 22 21 20 19 22 22 24 27 27 26 24 20 21 21 20 21 27 30 30 32 33 35 37 38 35 34 36 37 37 37 37 37 37 36 37 39 41 43 47 48
23 19 21 23 23 20 21 22 19 23 26 28 27 25 19 22 22 25 26 28 28 29 29 31 32 34 34 35 35 32 31 32 33 34 34 35 34 35 35 36 37 39 41 45
21 21 24 22 22 23 21 20 21 23 26 28 25 21 22 21 24 25 26 27 29 29 28 30 30 30 30 31 32 32 32 32 34 35 35 35 35 36 35 35 36 36 39 41
23 21 22 25 22 23 22 22 25 25 27 22 25 18 23 24 21 25 25 25 26 28 30 31 30 30 30 30 32 33 34 35 35 37 36 36 35 35 36 37 37 37 39 39
21 20 24 26 24 26 25 30 29 28 27 27 25 20 21 24 21 22 26 26 27 28 28 28 28 29 32 35 35 39 39 38 38 38 38 38 37 39 40 40 40 40 40 39
30 27 25 25 27 30 30 30 27 29 27 23 25 23 21 23 24 25 28 28 28 32 29 31 33 36 37 38 38 38 37 37 38 38 37 36 35 36 37 36 38 40 40 38
31 30 32 30 29 31 31 26 20 20 21 21 27 22 21 25 26 27 27 27 29 31 32 31 34 36 37 37 38 38 37 37 37 38 33 32 34 34 34 34 36 37 37 34
29 22 31 32 29 28 29 28 23 15 19 23 27 22 24 28 29 27 28 33 34 35 37 37 37 36 36 37 37 38 38 37 39 37 31 33 35 36 35 35 35 36 33 34
30 28 33 34 34 31 30 28 30 26 21 21 26 27 28 30 32 32 32 32 32 32 34 35 37 37 37 38 39 39 39 39 40 37 32 34 36 35 34 34 34 34 34 37
33 30 32 33 33 32 30 31 26 28 18 20 25 26 26 30 30 32 31 31 33 34 35 37 37 38 39 39 39 39 39 39 40 33 34 34 34 34 34 33 33 32 34 37
32 31 26 30 30 30 31 30 30 30 28 21 20 24 31 30 31 31 32 34 35 35 34 35 37 39 39 39 39 39 39 39 40 32 34 34 34 34 32 31 32 33 35 34
34 30 26 26 31 35 33 31 29 24 22 26 23 26 30 31 33 32 33 35 36 36 36 36 38 39 39 39 39 40 39 40 35 35 34 33 32 29 29 30 30 31 30 30
33 28 23 19 26 30 31 33 32 29 28 27 22 25 30 31 32 33 34 35 36 37 37 37 39 39 39 39 39 40 39 37 36 35 34 29 26 26 28 29 32 34 34 33
37 31 25 22 22 27 29 32 32 31 29 27 27 28 30 31 31 34 36 36 37 37 37 38 39 39 39 39 40 39 38 37 36 36 33 31 30 28 30 35 36 35 35 33
35 30 30 30 31 32 32 33 33 32 31 30 29 29 31 32 31 36 37 37 38 37 38 38 39 39 38 39 40 38 37 36 37 37 37 35 36 37 36 36 37 37 36 36
35 28 30 29 33 33 31 33 33 33 33 33 33 32 33 31 37 37 37 38 38 38 38 39 38 37 39 39 38 37 35 36 38 37 37 38 39 37 37 37 37 37 36 36
32 28 28 23 30 29 22 25 30 31 31 30 26 28 30 35 36 36 37 39 39 38 38 35 34 36 38 37 36 35 35 36 36 34 29 30 31 33 35 35 35 33 28 25
31 28 27 24 30 22 26 30 29 29 29 29 30 30 34 36 37 37 39 39 37 36 36 36 34 35 36 35 34 33 31 30 27 27 30 31 30 27 26 24 23 23 21 20
34 32 28 29 28 27 30 29 28 28 26 29 31 35 36 35 36 35 39 38 38 38 37 37 37 35 34 33 27 23 23 24 27 31 32 31 25 24 24 22 20 20 19 20
34 28 26 28 25 23 26 27 30 35 27 35 37 35 35 35 33 35 39 39 38 35 36 36 35 34 33 34 27 25 27 25 24 27 26 23 24 24 22 19 19 19 20 22
26 29 31 30 27 26 30 31 33 27 28 34 34 36 36 35 38 37 37 35 32 35 36 35 34 32 34 34 26 22 21 22 25 25 24 24 24 23 19 19 19 19 20 21
23 21 20 25 25 21 31 33 30 33 37 36 37 37 40 38 37 36 35 33 31 34 34 33 32 32 34 32 22 23 24 23 24 24 23 23 23 21 18 19 19 18 19 18
27 29 28 31 28 31 32 36 35 37 38 37 37 39 38 35 34 34 33 32 30 34 33 32 31 32 33 29 28 32 32 25 24 23 22 22 23 21 19 19 19 19 18 17
35 37 33 32 34 37 39 37 39 41 41 39 39 38 37 34 35 33 33 30 30 32 31 30 32 33 32 32 32 26 23 23 23 23 22 23 22 22 19 19 19 19 17 16
37 37 36 35 38 38 38 40 41 40 40 39 38 37 34 33 33 33 31 31 33 32 30 31 33 32 31 30 29 25 22 23 22 23 23 23 23 21 21 20 19 21 20 17
38 37 33 34 37 41 40 41 42 39 37 37 35 34 34 33 30 32 31 32 32 32 31 31 33 31 30 28 23 23 23 23 23 23 24 21 20 19 21 18 18 21 20 21

GFSCGP_sfc_dewp_003.txt.gz
Dewpoint
27 22 20 21 22 20 19 19 21 22 25 28 28 25 22 23 25 25 25 25 25 29 32 34 37 38 41 45 47 47 46 47 45 41 41 41 41 40 41 40 43 44 44 48
24 22 21 23 22 19 21 21 18 23 25 28 27 23 24 24 26 29 30 30 31 32 32 35 37 39 43 44 44 41 39 39 38 38 40 41 41 40 40 41 43 43 44 44
24 19 24 23 24 25 23 20 21 23 25 27 25 22 25 25 25 27 29 31 30 32 32 33 34 38 40 40 40 37 38 40 42 42 39 40 41 40 38 36 37 39 43 43
21 22 26 27 25 25 24 23 27 26 27 23 26 18 25 25 23 26 27 29 30 31 32 32 34 35 37 39 42 43 42 40 40 41 39 39 36 35 37 38 37 39 42 43
21 25 26 28 25 27 28 30 29 28 28 26 26 20 24 26 24 25 28 29 31 32 33 34 36 39 40 42 43 43 41 41 41 39 39 39 40 39 39 38 39 39 40 42
30 30 27 26 28 30 31 29 27 29 28 25 26 23 24 25 25 27 28 30 33 34 34 35 39 39 39 41 43 43 41 41 42 40 39 40 41 41 39 39 38 37 38 39
30 30 32 31 29 32 32 26 24 28 28 25 26 23 24 28 28 28 30 34 37 39 39 39 38 38 39 40 42 41 41 40 42 42 38 40 42 42 39 38 37 37 36 37
29 24 31 34 30 28 31 29 28 19 23 25 27 23 26 31 32 32 34 34 35 35 38 39 38 39 40 41 41 41 40 40 42 43 39 40 41 39 37 38 38 37 36 37
31 27 33 34 34 31 30 31 31 28 25 29 26 28 29 30 31 33 32 34 35 35 36 37 38 40 41 41 42 43 41 40 42 43 39 41 40 38 38 38 37 36 37 38
33 29 31 32 33 33 31 32 28 31 25 21 23 26 24 28 30 31 31 34 36 36 36 37 38 40 41 41 42 43 42 40 41 42 39 38 38 37 36 35 36 36 38 39
32 31 28 30 31 30 32 31 31 31 30 28 26 23 31 30 31 32 32 35 37 37 37 37 38 39 41 42 41 41 42 40 41 38 38 38 37 34 33 34 35 36 37 34
35 32 27 26 31 34 32 30 29 27 23 30 29 24 30 32 31 33 32 35 36 38 38 38 38 40 41 41 40 41 42 41 38 37 37 37 33 30 32 34 35 37 36 34
34 31 24 18 26 29 31 32 31 30 31 28 29 25 29 32 31 32 34 35 37 38 38 38 39 40 41 39 41 41 41 39 37 37 37 34 33 31 32 37 38 38 37 36
38 32 27 21 20 28 29 31 32 33 32 28 29 28 30 31 32 33 34 37 37 38 38 39 40 39 38 39 40 40 39 37 37 38 37 37 36 36 37 38 38 38 36 35
37 33 32 31 31 32 31 31 32 31 32 31 30 29 31 33 34 33 37 37 37 37 39 40 38 36 36 38 39 38 36 37 39 38 37 37 39 38 37 34 32 33 34 35
36 32 34 31 32 31 31 31 32 32 33 33 33 32 34 34 34 37 36 36 37 39 39 37 37 36 36 38 37 35 35 37 37 34 30 30 30 30 31 32 33 32 29 25
36 34 32 27 30 30 27 26 31 31 32 30 28 28 32 32 35 35 35 37 39 37 37 35 34 35 36 38 35 33 34 35 32 28 28 31 32 28 25 24 23 23 23 23
33 32 32 31 31 24 27 30 30 30 30 30 29 31 33 35 36 36 38 38 38 38 35 33 32 35 38 36 33 32 31 29 27 28 32 32 28 23 23 23 22 21 21 21
35 34 31 29 28 29 29 29 29 29 26 30 33 35 36 37 37 37 39 39 37 37 36 33 35 37 37 34 33 25 24 24 25 28 30 26 23 23 23 21 20 21 20 20
34 32 34 31 28 25 30 27 31 33 28 34 35 36 37 37 35 37 37 38 37 36 34 33 36 37 34 33 32 24 25 27 27 28 26 23 23 22 21 20 19 20 19 19
30 31 30 30 29 30 31 31 32 30 33 36 36 37 37 36 38 38 38 37 35 34 32 34 36 34 32 34 33 27 23 25 30 27 25 23 22 22 21 19 19 18 18 22
27 28 27 28 27 25 30 32 35 37 39 38 38 39 39 39 37 36 36 34 32 32 31 32 34 32 32 34 28 24 28 32 34 26 24 22 21 21 19 18 19 18 20 23
30 32 31 31 31 33 32 36 39 39 39 39 39 38 38 36 32 32 33 32 33 31 30 32 32 31 33 34 27 31 32 33 28 25 24 22 22 21 20 18 19 18 19 22
34 35 35 34 37 34 37 40 42 41 40 39 39 38 36 33 32 33 32 32 30 29 30 31 32 31 33 32 30 31 31 26 24 24 23 22 22 22 22 20 20 18 22 21
37 38 36 35 37 38 39 41 42 40 41 39 38 36 35 34 32 31 31 30 29 30 31 32 32 32 34 32 31 27 24 24 22 23 22 23 24 23 21 21 19 21 22 21
39 38 37 35 38 40 40 43 42 39 37 35 32 31 31 31 30 31 29 29 31 31 31 31 31 33 33 30 25 25 24 23 23 23 23 25 24 23 21 19 19 20 20 20

GFSCGP_sfc_dewp_006.txt.gz
Dewpoint
25 19 20 22 23 20 18 16 16 16 24 28 27 21 21 24 25 27 26 26 29 35 36 36 38 40 45 52 51 48 48 46 44 42 40 40 40 41 42 41 45 46 45 45
19 21 21 24 23 20 19 17 17 22 25 29 24 22 22 25 27 29 28 29 30 32 33 36 39 43 44 46 46 43 40 42 41 40 42 43 44 42 43 41 43 42 42 41
20 20 22 23 26 25 22 20 24 24 25 28 25 23 22 24 27 28 29 30 30 31 32 35 38 41 43 43 43 41 42 42 43 42 40 41 42 40 39 39 37 38 40 39
22 26 26 25 26 28 22 26 29 27 26 20 27 17 25 22 24 26 29 31 32 32 33 34 35 40 42 45 45 43 42 42 41 43 41 43 39 38 40 40 38 38 38 38
23 26 27 27 27 30 28 32 30 29 26 26 25 18 25 25 24 26 28 31 33 34 36 38 39 40 41 44 45 45 43 42 42 41 43 41 42 40 40 39 38 37 36 38
28 29 30 29 29 29 32 30 30 31 30 27 26 23 24 26 26 27 30 34 36 37 35 38 39 40 41 44 45 44 41 41 42 42 42 43 44 42 39 37 35 34 35 35
27 29 31 33 28 32 29 26 27 29 29 26 26 23 28 28 29 31 33 35 37 40 39 38 38 38 41 42 43 41 40 39 41 42 40 40 41 41 39 38 35 36 34 35
25 26 31 33 32 29 30 30 30 20 25 24 25 20 26 30 31 33 33 35 36 37 38 37 37 39 40 42 43 42 40 38 38 39 38 38 41 41 38 37 37 36 36 38
28 26 32 32 32 32 29 30 31 30 30 31 24 26 29 30 30 30 31 34 35 35 36 37 37 39 41 42 41 44 42 39 39 41 42 42 42 40 39 38 37 36 39 37
32 28 30 31 33 33 31 32 29 30 28 16 14 18 19 29 30 30 30 33 35 35 35 37 37 38 40 42 44 45 44 41 42 42 42 40 39 38 37 37 37 38 38 40
31 30 27 31 31 30 32 31 30 28 30 24 22 17 30 28 29 30 32 32 35 37 37 37 38 39 40 42 42 42 42 42 41 40 39 39 38 36 36 36 37 37 38 35
35 33 26 24 32 34 32 30 29 28 20 29 29 24 29 31 30 32 32 33 35 37 37 37 38 40 41 42 41 41 41 39 39 37 36 37 36 35 35 36 37 37 37 37
35 32 22 23 30 32 31 31 31 31 32 29 31 25 27 30 29 30 33 34 35 37 36 36 38 40 40 39 38 38 39 38 36 35 34 34 36 36 36 37 37 38 38 37
40 32 27 17 19 25 24 24 28 29 32 28 28 26 27 26 28 30 33 36 36 36 36 38 40 40 37 36 37 38 38 37 36 35 34 35 36 38 38 38 36 35 33 32
38 29 31 28 28 27 28 27 26 26 29 29 29 25 27 29 30 33 35 36 36 36 39 39 38 37 36 35 36 37 37 35 37 35 33 33 33 32 31 31 29 28 27 23
37 32 34 30 29 28 29 28 27 28 29 29 29 29 30 31 34 35 35 35 35 38 37 37 35 34 31 31 36 36 32 33 36 33 31 30 31 29 28 27 26 23 22 22
37 37 34 33 31 31 32 30 27 27 30 29 28 29 32 33 35 36 36 37 38 38 37 36 34 29 31 35 38 32 30 33 34 31 29 30 31 26 25 22 19 20 22 23
38 38 36 35 34 29 28 29 28 29 29 28 28 31 34 35 36 35 38 39 38 37 34 32 30 29 32 36 33 32 30 31 31 30 29 30 27 23 21 20 20 22 22 22
38 39 35 32 28 28 27 28 29 28 28 31 33 35 37 36 35 35 38 39 38 37 35 32 31 31 33 35 32 31 30 29 28 28 28 28 25 22 19 19 21 22 22 22
36 38 39 33 30 28 29 29 31 32 28 36 39 40 40 37 37 37 39 39 36 33 31 29 27 30 34 35 32 32 31 29 27 28 30 26 25 22 19 21 22 23 22 21
35 34 33 33 32 31 31 32 33 32 35 40 40 40 40 38 39 40 38 34 29 28 28 27 25 26 31 33 33 33 29 25 24 27 28 26 24 20 20 22 22 22 22 24
31 36 33 33 30 29 32 32 35 38 40 40 40 40 39 39 38 34 29 26 24 25 25 23 24 25 28 30 32 31 24 23 26 28 27 26 22 20 19 22 22 22 23 24
31 34 31 32 34 35 35 37 38 40 40 41 40 38 38 35 30 26 24 24 24 24 23 22 24 26 26 27 31 28 24 25 29 27 26 25 22 21 22 22 23 22 21 24
35 35 36 36 35 35 38 39 41 42 40 39 39 35 32 30 26 25 23 23 24 22 21 24 24 24 26 28 32 29 29 29 28 26 24 24 23 22 23 23 22 19 23 23
37 36 35 37 38 38 37 41 42 41 40 39 34 31 28 24 23 22 21 21 20 21 24 24 24 24 23 25 32 30 29 27 23 22 22 23 24 25 24 22 20 21 23 22
37 35 38 37 39 40 40 40 42 41 38 31 28 25 23 23 22 21 20 20 21 23 25 24 25 26 25 25 26 28 26 25 25 23 23 26 27 27 25 20 20 22 21 19

GFSCGP_sfc_dewp_009.txt.gz
Dewpoint
22 19 20 21 20 16 13 12 12 14 20 22 22 18 20 24 24 27 25 26 26 27 39 43 41 42 45 50 49 49 48 48 45 43 42 40 41 42 43 42 45 46 44 43
17 20 20 23 22 20 18 16 16 18 21 24 22 19 21 24 27 26 27 29 32 35 35 37 41 43 46 49 49 46 44 42 41 41 43 45 45 43 43 43 43 42 43 42
21 22 23 23 23 23 21 21 24 22 22 22 23 21 21 24 26 27 29 29 30 32 34 37 40 44 45 45 44 43 43 43 44 43 41 41 41 42 40 41 41 41 42 39
22 25 24 24 25 26 22 25 26 24 22 19 23 17 23 23 25 27 30 31 31 32 33 34 38 41 45 45 45 44 43 42 42 45 42 44 41 40 41 42 41 39 39 37
24 25 26 26 26 27 28 30 27 27 24 23 20 15 25 23 23 26 30 32 33 35 36 37 39 41 43 45 46 45 43 42 43 42 43 43 44 43 43 42 41 42 38 38
27 28 29 29 28 28 30 29 28 30 26 25 24 20 23 23 27 27 31 34 35 36 37 38 39 40 42 45 45 45 42 40 42 44 44 45 45 43 40 39 38 36 37 35
26 28 29 31 28 31 27 27 28 29 28 27 24 18 27 27 28 30 32 33 36 39 39 37 37 38 41 42 42 43 41 40 41 43 42 41 40 42 41 39 37 37 34 35
23 28 28 30 30 29 27 29 32 21 24 23 23 16 25 29 31 31 32 33 35 36 37 37 38 39 40 41 42 44 43 41 40 42 42 43 42 41 39 39 37 36 36 37
27 26 30 31 31 30 29 28 29 30 32 30 19 22 28 29 30 30 30 32 33 34 34 35 37 38 39 41 42 44 43 42 42 43 43 43 41 40 39 38 38 36 38 36
28 28 27 29 31 32 31 30 30 30 27 16 13 13 21 29 28 30 29 30 32 33 34 36 37 38 39 40 42 44 44 41 41 42 41 39 39 39 37 37 37 37 37 37
27 27 27 27 28 27 30 30 29 24 27 24 20 17 27 25 28 28 30 30 32 33 35 36 37 38 40 40 41 42 41 41 39 39 38 38 38 37 36 35 36 37 39 37
32 30 27 20 30 32 30 28 27 29 21 27 28 24 28 28 27 29 30 31 33 35 35 36 36 38 39 40 40 39 40 39 37 36 36 35 34 34 34 35 36 38 36 38
33 32 25 22 30 31 28 28 27 28 31 27 32 26 27 28 30 28 29 32 34 36 36 37 38 38 39 39 39 39 38 37 37 35 33 32 32 33 34 34 34 34 33 32
39 30 25 23 21 21 22 21 21 25 30 29 27 25 25 25 27 28 30 33 35 36 36 37 37 37 37 38 37 34 35 36 35 33 31 32 33 32 32 32 31 29 27 25
34 29 29 27 23 22 22 23 22 21 23 27 28 25 26 28 30 32 33 34 34 34 37 37 37 37 35 33 31 32 35 35 33 33 31 32 31 31 30 29 27 26 25 22
34 33 35 30 25 23 25 23 22 22 25 25 25 26 28 30 31 33 35 36 35 36 38 38 34 32 30 28 30 32 34 32 32 32 31 30 30 31 30 27 25 22 22 21
36 37 33 32 32 32 34 30 23 23 25 28 28 28 29 31 34 35 36 36 37 38 38 36 33 30 30 28 29 32 31 31 30 30 29 28 30 31 27 24 19 19 21 23
40 36 38 35 35 30 29 27 27 26 27 26 26 28 32 35 36 36 38 38 37 37 36 32 31 29 27 26 27 32 31 29 29 28 27 28 30 29 25 22 19 20 21 22
37 40 37 34 29 28 27 28 28 29 28 29 32 35 37 37 36 35 39 38 37 36 33 30 27 24 23 23 25 28 29 29 28 28 26 26 29 28 24 20 20 21 21 22
37 41 39 36 31 29 31 30 31 32 30 37 38 38 39 37 35 33 37 37 35 32 26 25 24 24 22 21 23 24 24 25 29 27 23 26 25 26 23 21 21 22 21 20
36 37 36 33 33 32 30 31 34 30 35 40 40 40 39 36 36 38 37 32 27 23 23 23 22 20 20 22 23 22 21 23 26 26 25 27 28 25 22 21 21 20 21 25
33 36 33 35 32 29 32 32 35 37 39 41 40 41 39 37 35 32 28 24 22 21 20 19 18 19 21 19 20 19 18 22 26 26 28 29 28 23 19 21 21 21 22 25
31 34 34 34 33 33 36 37 40 39 41 41 41 40 40 32 29 27 24 22 21 18 15 15 16 19 19 19 19 18 27 31 32 33 32 32 27 23 20 20 20 20 21 24
33 32 37 37 34 33 37 39 41 42 41 41 40 39 32 29 26 23 22 21 17 14 14 14 18 18 20 21 21 23 30 32 30 30 29 26 23 22 21 19 19 19 23 24
36 35 36 37 35 35 36 41 41 40 41 40 36 31 30 25 23 23 20 17 16 16 17 19 20 20 21 23 24 25 29 27 28 28 24 24 24 23 22 21 21 22 24 23
36 35 39 38 38 40 40 41 41 39 38 33 30 28 25 24 22 19 18 19 18 19 20 19 20 22 24 25 26 28 28 29 28 26 25 26 27 26 24 21 21 23 23 20

GFSCGP_sfc_dewp_012.txt.gz
Dewpoint
22 19 21 21 20 15 13 11 10 16 19 18 17 17 19 23 23 29 33 31 30 38 43 43 47 49 51 53 52 53 55 53 51 50 50 49 49 49 50 49 49 48 49 48
15 20 20 19 18 17 15 14 14 17 19 17 20 16 21 24 26 27 28 31 36 37 38 42 47 51 51 51 52 49 47 49 48 46 49 49 49 48 48 49 49 49 48 47
24 21 21 21 21 20 20 18 25 22 22 20 20 20 21 24 26 28 30 32 34 36 38 41 44 48 50 50 49 46 46 46 48 49 46 46 47 47 46 45 46 47 47 45
23 23 22 21 23 24 21 26 24 22 21 17 19 15 21 24 26 28 30 33 33 34 35 39 43 46 48 49 50 47 47 45 46 48 47 46 45 45 47 49 46 45 45 45
24 24 25 25 26 25 26 28 25 24 23 21 19 19 24 23 24 28 32 33 35 38 39 40 42 43 45 49 50 49 46 45 46 47 47 47 48 48 46 47 46 44 44 43
26 26 28 28 27 26 29 28 27 27 27 30 21 21 28 25 27 29 32 34 36 37 39 39 41 43 45 49 50 49 46 44 45 47 48 46 45 45 45 45 43 41 40 40
26 26 29 28 29 30 26 27 32 34 33 31 26 19 29 28 28 30 33 34 38 40 41 40 40 40 44 46 47 47 46 44 45 45 45 47 47 46 43 42 41 39 39 40
24 27 27 28 29 26 27 27 36 25 29 28 21 16 26 30 31 32 32 33 36 38 40 40 41 41 42 45 46 47 45 44 44 46 46 47 46 43 42 42 40 40 39 40
26 26 28 28 29 27 29 28 25 31 34 32 19 26 29 29 29 30 30 31 33 35 38 39 41 42 42 43 45 47 45 44 45 45 46 45 44 43 42 41 41 40 41 37
25 28 24 25 29 31 28 26 29 35 29 21 15 17 27 29 29 31 28 30 32 33 35 38 38 41 42 44 46 48 45 43 43 43 43 41 42 41 40 40 39 40 39 38
28 28 26 26 27 25 28 27 28 24 30 27 24 19 24 25 28 28 30 30 34 35 35 37 38 40 41 43 44 45 42 41 41 41 41 41 40 39 39 39 39 38 38 38
29 29 35 21 27 27 27 26 26 35 26 35 32 23 28 28 28 32 31 31 35 37 38 38 39 40 40 40 41 41 41 40 39 39 38 37 38 37 37 37 36 36 36 37
33 33 33 24 30 29 23 25 25 29 36 29 31 27 27 30 33 32 31 32 36 36 36 37 39 39 38 38 40 39 39 38 37 36 34 35 35 35 35 35 35 35 35 33
40 28 26 28 22 21 21 20 20 23 33 31 30 25 26 28 31 31 32 34 34 35 37 38 38 38 37 37 36 36 35 38 37 34 33 34 35 34 33 34 33 33 32 29
34 31 30 27 23 23 22 21 21 21 23 26 27 22 24 29 30 34 35 35 35 36 36 37 38 37 34 33 33 32 33 37 37 35 33 35 34 33 33 34 33 32 30 27
35 38 37 33 24 25 25 24 23 22 21 21 24 25 28 32 35 35 36 36 37 37 37 36 36 33 31 32 31 30 31 35 38 36 35 34 34 33 34 34 33 30 28 26
37 41 37 34 32 33 35 33 23 24 24 25 29 29 33 34 35 35 36 37 37 36 35 35 32 32 30 27 26 26 28 33 37 36 34 36 36 35 34 32 28 25 26 27
40 39 39 35 35 30 28 27 27 26 25 25 25 31 35 35 36 35 38 37 35 35 35 33 30 28 27 26 25 26 23 24 26 29 33 38 35 34 31 30 28 26 26 26
37 41 35 34 29 28 28 28 29 30 29 29 33 36 37 36 35 35 37 35 35 34 33 27 24 25 25 23 23 23 22 22 23 22 34 35 34 30 31 28 26 26 26 26
37 43 41 35 30 26 33 30 32 32 30 38 38 38 38 35 35 34 35 34 31 26 23 22 22 21 20 22 21 21 20 20 21 31 32 34 34 32 31 30 26 26 25 25
35 37 35 34 31 33 30 31 33 29 35 40 40 39 38 37 38 35 34 29 24 22 21 22 19 18 20 20 20 20 19 20 27 32 33 35 36 34 33 28 25 25 25 27
33 35 33 34 33 29 32 31 34 39 42 41 39 40 41 41 38 30 27 24 21 19 17 15 16 18 20 19 20 20 20 24 30 33 32 32 32 31 26 26 26 25 24 27
33 38 37 35 35 38 38 37 40 43 42 43 41 41 38 39 30 27 24 23 21 16 14 15 15 19 20 20 20 22 24 27 30 29 30 30 30 27 25 24 23 23 24 26
30 30 41 39 35 33 36 39 42 42 41 41 39 37 38 30 28 25 24 22 19 15 15 17 19 18 21 22 24 26 27 29 28 28 28 28 26 25 24 23 23 23 26 26
38 35 35 37 35 36 38 41 41 41 42 39 38 32 29 27 24 23 21 20 19 18 20 20 20 21 23 24 26 27 26 29 27 27 27 27 29 28 26 23 24 27 26 23
36 34 38 38 39 41 41 41 41 39 40 39 30 28 26 25 21 19 21 21 19 20 21 20 21 24 24 26 27 27 28 29 30 28 28 28 28 29 26 24 24 25 24 21

GFSCGP_sfc_dewp_015.txt.gz
Dewpoint
26 24 22 22 23 19 17 15 18 19 19 21 19 18 22 26 25 26 31 38 39 41 46 48 48 50 52 52 50 51 52 47 47 46 45 45 45 45 46 46 47 45 44 44
23 23 23 23 24 24 19 20 23 21 20 17 18 19 24 27 28 29 34 37 39 42 43 45 47 48 49 47 48 46 44 47 45 46 46 46 46 46 46 45 46 46 45 43
24 24 23 23 26 25 24 26 25 23 22 21 21 22 24 27 29 31 32 35 37 40 42 44 45 46 45 45 43 43 43 43 45 45 44 43 43 43 45 46 44 45 44 42
24 27 25 24 26 25 27 30 28 24 23 19 19 19 24 26 29 32 34 35 36 38 42 43 44 44 45 45 43 43 43 43 44 44 44 43 45 45 46 45 44 42 42 41
27 28 29 28 27 27 30 32 29 28 25 24 23 23 23 28 29 31 33 35 37 38 40 42 43 44 45 44 43 43 43 43 43 43 44 45 43 43 44 44 41 40 40 40
26 29 28 28 28 28 28 31 31 30 28 25 27 25 30 30 30 32 35 36 37 37 39 40 43 44 44 44 43 43 42 43 43 44 43 42 43 43 42 40 40 39 39 40
27 28 29 30 30 32 29 31 28 27 27 26 34 27 32 33 30 33 36 37 38 38 38 38 40 42 44 44 43 43 43 42 44 44 45 43 43 41 40 38 38 37 38 38
28 27 28 30 29 28 30 30 27 24 25 26 21 25 28 31 32 34 35 36 37 37 37 37 37 37 40 41 42 43 42 43 43 44 43 42 41 42 40 37 37 37 39 39
31 27 29 28 29 29 31 26 27 30 29 26 25 28 30 30 31 32 31 33 35 36 37 36 39 40 41 42 44 43 43 42 42 41 41 40 41 39 37 36 37 39 38 36
28 27 26 27 30 31 28 28 28 29 22 20 20 28 31 32 35 35 30 32 33 35 37 39 40 40 41 42 44 43 41 40 40 40 39 39 38 38 37 38 37 36 36 36
32 32 28 29 27 27 29 30 30 28 28 23 21 22 28 33 36 34 33 34 36 37 37 38 40 39 39 40 41 41 40 39 38 37 37 36 36 37 37 37 36 34 35 34
32 32 26 28 29 29 28 30 30 26 25 28 26 23 28 34 33 33 32 36 36 36 37 38 39 39 38 38 39 38 38 38 37 37 36 35 36 34 34 34 33 33 32 34
35 29 27 28 31 30 25 27 29 35 29 24 19 23 30 32 34 34 32 35 35 36 38 38 38 38 37 36 35 35 36 36 36 35 34 33 34 33 32 30 32 32 32 29
40 30 27 25 24 24 24 24 23 31 27 27 27 27 27 34 35 35 36 36 36 37 37 37 37 37 36 34 33 34 33 34 36 35 35 36 37 36 33 32 31 31 30 26
35 31 32 30 27 26 25 25 25 23 25 24 25 28 30 34 35 36 37 36 37 36 36 36 35 34 33 32 32 31 31 32 37 37 36 37 38 35 36 37 36 36 30 26
38 32 30 29 31 30 28 29 27 25 26 25 26 27 35 35 36 36 36 37 36 35 35 35 35 32 32 30 26 26 28 32 37 36 34 38 38 37 38 38 38 33 27 24
37 31 29 28 32 32 25 30 28 27 28 28 26 31 36 35 35 37 37 36 35 35 35 35 34 33 27 26 26 26 24 26 26 24 34 39 39 38 37 37 36 27 23 23
34 33 31 23 24 14 31 31 30 30 30 30 35 36 36 35 37 37 36 35 34 34 34 34 33 26 25 24 23 23 22 23 23 31 33 36 36 36 37 37 33 24 24 23
40 33 25 26 24 25 29 31 31 30 30 38 37 37 37 36 36 35 35 34 34 33 33 29 23 23 21 21 20 21 21 21 22 31 32 34 35 35 35 35 26 24 24 25
40 35 28 25 18 14 28 32 34 34 27 39 39 38 38 36 29 34 33 33 33 25 23 21 20 18 19 19 20 21 20 22 30 33 33 36 36 36 35 35 32 25 24 27
28 28 23 30 17 26 34 33 35 26 27 41 39 39 39 36 36 37 35 29 24 23 19 20 18 18 19 19 20 21 22 26 30 33 33 32 34 35 35 34 28 24 24 27
28 25 28 30 25 22 35 33 28 34 41 40 39 40 40 40 40 40 28 25 23 19 15 16 18 19 20 20 22 23 25 27 30 30 30 31 31 30 28 26 23 23 25 24
29 33 31 30 28 34 36 36 39 41 41 40 39 42 40 38 39 30 26 25 22 16 17 18 19 21 21 22 25 26 27 30 30 29 28 29 29 27 25 23 22 23 24 21
33 37 32 33 36 36 35 42 42 42 41 41 41 42 39 37 30 27 24 21 20 18 18 20 20 21 23 25 27 28 28 29 29 28 28 27 27 28 25 23 24 24 21 19
34 35 33 33 36 37 41 41 41 41 41 40 39 39 31 28 26 23 22 21 21 19 20 21 22 24 25 28 28 27 27 29 29 28 28 27 27 26 26 23 23 25 22 21
38 34 33 31 38 38 41 41 41 42 41 39 37 29 28 23 21 21 21 21 21 22 23 24 25 26 28 29 29 30 29 29 28 27 27 26 26 25 26 25 25 26 25 24

GFSCGP_sfc_dewp_018.txt.gz
Dewpoint
28 23 19 19 20 18 18 20 18 18 19 17 18 22 25 30 36 38 42 44 44 44 45 47 48 48 48 49 51 52 53 50 49 46 46 47 46 45 45 46 46 45 44 43
23 22 22 23 26 26 25 21 21 21 20 16 20 23 28 31 33 39 41 42 43 43 43 45 47 49 50 50 51 47 44 45 45 45 49 49 46 46 47 47 44 43 42 41
23 21 25 27 26 26 28 25 24 23 23 20 23 22 28 31 34 35 38 41 43 43 43 44 45 46 44 44 43 42 42 43 44 45 44 44 44 45 45 44 42 41 41 41
23 27 27 28 26 27 28 30 27 25 23 13 19 20 25 31 33 35 37 40 42 43 44 43 43 44 44 43 43 43 43 42 43 44 43 43 44 43 44 43 40 39 40 40
27 28 28 27 28 28 29 31 28 27 25 25 23 22 25 31 31 34 36 39 41 43 43 43 43 43 43 42 42 42 42 43 43 43 43 44 41 43 43 41 39 38 40 40
26 30 28 28 30 29 29 32 32 30 29 24 27 26 26 28 30 33 36 37 39 40 42 43 44 44 44 44 43 42 43 43 43 44 43 42 42 41 40 38 37 39 39 39
28 29 29 30 30 30 28 31 26 26 25 24 32 29 30 32 33 36 37 37 37 38 40 42 42 43 43 43 43 43 43 44 45 44 43 42 40 39 37 37 37 39 38 38
27 26 28 29 29 27 29 29 26 23 22 23 27 26 28 34 36 37 37 37 37 37 38 39 39 40 41 43 43 43 41 41 42 43 41 41 40 40 39 38 37 39 37 36
28 27 30 28 28 31 30 25 28 28 27 24 26 28 30 32 33 34 34 35 35 37 39 40 41 41 42 42 42 42 41 41 40 40 39 39 41 40 39 37 38 37 36 35
30 25 27 27 31 30 23 27 27 27 19 20 21 27 28 32 34 31 32 34 36 38 39 39 39 40 41 42 41 41 40 39 40 39 38 37 38 39 37 37 36 35 35 35
33 28 26 32 27 27 27 28 29 27 27 22 20 21 27 34 35 32 34 36 36 37 39 39 39 39 38 39 37 37 37 37 38 37 37 36 35 37 37 36 35 34 35 35
33 30 25 28 28 28 27 29 29 25 22 26 24 22 31 33 33 34 35 36 36 38 38 38 38 37 36 35 34 33 34 35 37 37 37 35 35 34 35 35 35 35 35 34
32 28 25 27 30 29 25 27 33 31 27 23 17 19 31 34 35 34 35 35 37 37 37 37 37 36 35 34 33 33 33 33 34 36 34 34 35 33 33 33 34 34 33 33
39 32 26 25 26 25 22 25 30 29 25 25 25 24 27 34 34 35 36 37 36 36 36 35 35 35 33 33 32 31 29 32 36 36 35 35 36 37 36 33 37 38 37 36
34 30 30 28 28 27 26 25 25 24 26 25 25 28 31 35 35 36 37 36 35 35 35 35 35 34 32 32 29 27 28 31 33 32 32 36 37 36 36 37 37 38 37 36
38 29 29 28 31 33 26 30 29 27 26 25 26 32 35 35 36 37 36 35 35 35 35 35 34 33 33 27 25 25 25 25 27 27 36 37 37 37 37 37 37 37 37 28
35 30 25 22 30 30 23 28 28 27 28 27 25 32 35 35 36 36 35 35 34 34 34 33 33 32 25 23 23 21 22 24 25 33 34 36 36 37 37 37 38 36 34 28
32 32 26 19 19 9 28 30 30 29 33 35 35 35 35 36 37 35 35 34 34 34 33 32 30 23 22 21 20 21 21 22 27 32 33 34 35 35 35 36 35 34 28 27
36 29 26 16 22 19 28 30 29 26 28 37 36 37 36 37 35 34 34 34 33 32 28 25 21 20 20 19 19 20 21 23 32 32 32 34 35 35 35 34 34 34 30 25
37 30 24 27 12 7 21 32 33 32 27 38 38 37 37 35 29 33 35 33 30 24 21 18 17 19 18 19 20 21 22 28 30 32 32 33 35 35 34 33 32 31 25 27
27 25 22 16 15 24 28 34 34 25 24 40 39 38 37 34 34 36 38 28 24 21 17 19 19 19 19 20 23 23 25 27 29 30 31 31 31 31 32 32 29 24 27 26
27 26 25 25 16 19 33 33 28 31 39 40 39 39 38 38 39 40 32 25 21 16 17 18 20 20 21 22 25 25 26 28 30 29 29 29 28 28 26 23 24 25 24 23
26 28 28 29 28 31 35 34 35 40 40 39 39 40 40 38 38 35 26 22 19 18 18 20 19 22 23 24 26 26 26 29 29 28 28 27 27 27 25 22 23 23 23 20
32 37 32 32 33 34 36 40 41 41 41 41 41 41 40 39 34 25 22 21 20 19 19 20 21 23 24 26 28 28 28 28 28 28 28 28 27 27 26 23 24 23 19 18
31 35 33 32 34 39 41 41 41 41 41 40 41 39 38 29 23 22 21 21 20 20 22 23 24 26 26 29 29 29 30 29 28 28 27 26 26 26 25 23 23 24 22 21
37 32 32 30 34 34 38 41 41 40 40 40 39 30 24 22 21 20 21 22 22 24 25 25 27 27 28 29 29 30 30 29 28 27 26 26 25 23 25 24 23 26 26 25

GFSCGP_sfc_dewp_021.txt.gz
Dewpoint
27 22 18 19 20 18 17 19 17 18 19 19 23 27 30 37 42 44 43 44 44 45 46 48 50 52 52 54 55 57 56 52 46 48 46 46 46 48 49 46 43 42 43 42
23 21 23 28 28 25 22 20 20 21 22 23 27 27 33 37 41 43 42 42 43 44 46 47 48 50 52 53 51 45 44 44 45 46 48 51 52 50 47 43 41 41 41 40
22 23 26 26 26 27 28 24 23 21 21 24 25 27 29 33 37 41 42 43 42 43 44 47 48 47 45 43 42 42 43 43 46 49 48 46 45 46 44 41 39 40 41 40
24 30 27 26 24 27 26 30 27 24 18 22 22 23 26 32 35 38 41 43 43 44 46 45 43 41 42 41 41 41 41 42 43 43 42 42 43 42 43 41 39 39 40 40
27 28 27 25 26 28 29 31 26 26 24 23 23 23 25 33 34 37 39 42 44 43 42 42 42 42 42 42 42 42 42 43 43 43 43 44 42 43 41 39 38 39 40 40
28 29 28 28 30 28 29 30 32 32 28 23 27 24 26 29 33 35 37 41 42 42 42 43 43 43 42 43 43 43 43 44 44 44 43 42 41 40 38 37 38 39 41 41
28 28 28 30 29 30 29 29 25 25 25 24 28 28 28 31 33 36 38 39 40 41 42 44 43 43 43 42 43 42 42 43 43 42 41 40 40 38 37 37 37 39 39 38
26 24 27 27 28 27 28 28 26 22 22 22 27 27 28 34 37 37 37 37 37 38 39 41 41 41 41 42 41 41 40 40 42 40 40 40 39 39 38 37 38 37 37 36
26 25 29 27 28 30 29 25 29 28 27 24 27 28 31 35 36 36 36 36 37 39 39 39 41 41 41 41 41 40 39 40 39 40 39 39 40 39 39 38 37 38 36 35
30 23 27 26 30 29 25 28 26 26 18 19 22 26 27 31 33 35 35 37 37 38 38 39 39 41 41 40 40 39 38 38 39 39 38 37 38 39 39 37 37 36 36 35
32 24 24 30 26 26 27 27 28 28 26 21 19 24 27 32 34 33 35 37 37 38 38 38 38 38 38 36 35 34 35 35 37 37 37 37 36 36 37 37 36 35 34 36
32 29 26 26 28 30 28 28 27 22 21 25 23 21 29 35 33 35 35 36 38 38 38 37 37 36 35 34 32 33 32 31 34 36 35 34 35 35 34 35 35 35 35 34
30 28 24 25 29 27 27 28 32 29 27 23 18 20 32 34 34 35 35 37 37 37 36 36 36 35 34 34 33 31 30 32 35 34 32 32 35 36 35 35 34 34 33 34
37 31 24 23 24 25 20 24 30 27 24 23 23 21 27 34 34 35 36 36 36 36 35 34 34 34 32 33 31 27 27 30 31 28 31 34 36 36 35 34 33 34 36 36
32 27 28 28 29 26 24 23 26 26 26 23 24 26 27 34 34 35 36 36 35 35 34 34 34 34 33 30 25 24 25 26 28 28 33 34 35 36 36 36 36 36 37 37
36 28 27 28 30 31 25 24 26 25 25 28 25 30 35 35 36 36 36 35 34 34 34 33 33 32 29 24 21 22 22 24 26 31 34 36 36 37 36 36 36 37 36 32
32 28 22 17 28 27 16 26 28 27 27 26 26 29 35 35 36 36 36 35 34 33 32 32 32 30 24 21 21 19 21 23 24 32 33 35 34 34 34 36 36 35 34 34
31 29 23 18 18 6 20 30 29 27 30 34 34 35 35 36 37 36 35 34 33 32 32 31 26 22 22 20 19 21 21 22 25 31 32 33 33 34 34 34 34 31 30 28
34 28 25 16 18 17 22 29 29 28 26 35 34 35 35 36 34 34 35 34 33 32 29 24 20 20 20 18 19 20 21 23 31 31 32 32 33 34 34 33 32 31 31 25
33 28 23 24 9 4 17 31 33 30 25 37 36 36 36 35 29 33 34 34 33 25 20 17 18 19 18 19 20 21 23 27 28 30 31 31 31 31 32 32 32 31 25 27
27 23 20 14 14 21 25 32 32 23 21 38 38 37 36 35 34 34 36 34 25 18 17 19 19 19 20 21 23 24 25 26 28 29 29 30 29 28 28 28 27 26 26 25
29 28 24 25 17 17 30 32 28 31 34 39 39 38 38 36 37 39 32 24 18 16 17 19 20 21 22 23 25 25 25 27 29 29 28 28 27 27 24 23 25 25 23 23
26 27 27 27 27 30 33 33 34 37 38 39 39 39 39 39 38 38 26 21 19 18 18 20 20 22 24 25 26 26 27 28 28 29 28 27 27 26 25 22 23 23 22 20
32 34 30 30 30 32 33 35 38 40 39 39 40 40 39 37 39 28 22 21 19 18 19 21 23 24 25 27 28 29 29 29 28 28 28 27 26 27 26 23 24 22 19 17
32 34 32 31 33 36 39 39 40 41 41 41 41 40 39 39 27 23 21 21 20 21 23 24 25 26 27 28 29 29 29 30 28 28 28 27 26 26 23 23 23 24 23 21
35 33 30 29 33 35 34 40 41 40 39 40 39 34 29 24 22 21 21 22 23 23 24 25 27 27 28 29 28 28 30 30 29 29 29 29 27 25 24 24 24 25 26 26

GFSCGP_sfc_dewp_024.txt.gz
Dewpoint
26 21 18 19 19 15 16 16 15 17 18 28 32 34 37 41 43 43 44 45 45 46 48 52 53 55 56 57 58 58 59 57 48 50 48 48 46 48 51 44 43 43 42 41
23 20 22 28 26 23 21 18 18 22 23 29 32 31 35 39 42 42 43 44 45 47 48 49 51 53 55 56 56 54 53 50 47 49 50 49 50 48 43 41 41 40 40 40
22 22 27 27 27 25 26 21 22 21 26 27 29 29 32 36 41 42 42 43 44 47 48 49 50 50 47 44 43 43 44 44 47 48 47 45 45 44 41 39 38 39 40 40
28 30 26 25 24 26 24 29 25 22 23 21 24 24 29 35 38 40 42 42 43 45 46 44 43 41 41 41 41 42 42 43 44 43 42 42 42 43 42 39 38 38 39 40
27 27 25 24 25 28 28 29 26 26 24 22 23 26 26 36 36 38 41 42 43 44 42 41 40 41 41 41 42 42 43 43 43 44 44 43 42 41 39 38 37 39 40 40
28 29 28 27 29 27 29 31 30 31 27 22 26 23 24 32 35 37 40 42 43 42 42 42 42 42 42 42 43 43 44 44 44 43 42 42 40 38 37 37 38 40 39 40
27 27 28 29 28 29 31 28 25 25 24 23 28 25 25 31 35 38 39 40 41 42 42 43 42 42 42 43 42 42 42 42 42 40 40 40 40 38 37 37 37 37 38 38
24 20 25 27 27 26 27 28 26 21 23 23 27 26 28 33 35 38 39 39 39 40 43 43 42 42 42 41 40 40 39 40 40 40 39 40 39 38 38 38 38 38 37 36
25 25 28 27 28 29 28 25 28 27 26 24 26 28 33 36 36 37 37 37 37 39 40 40 40 40 40 40 40 40 39 39 39 39 39 39 39 39 39 38 38 37 37 36
29 23 26 26 30 29 27 29 24 25 17 17 22 25 28 33 35 36 36 36 38 38 39 40 40 40 40 39 38 37 37 37 38 40 38 37 37 36 36 37 37 36 36 35
29 25 23 27 26 26 27 26 27 27 25 19 17 23 29 34 35 35 36 37 38 37 38 38 39 39 36 35 34 33 33 33 35 37 37 35 34 35 35 36 36 36 36 36
32 28 26 24 28 31 27 27 25 20 19 24 22 20 29 32 35 35 36 37 38 38 37 36 36 35 34 33 32 31 30 31 34 34 31 31 33 35 34 34 34 35 35 35
29 27 24 23 24 26 26 30 29 27 26 23 18 19 32 33 34 35 36 37 37 37 36 36 36 35 34 34 33 28 30 33 32 28 28 31 34 35 33 33 34 34 33 33
35 29 23 20 20 24 20 26 28 26 23 22 22 20 27 33 34 35 36 37 36 35 35 34 35 33 32 32 30 27 27 29 28 26 30 33 33 33 33 34 34 34 34 35
30 26 27 28 29 26 22 22 27 25 24 22 22 24 24 31 34 35 36 36 35 35 34 33 33 33 32 30 26 24 24 25 26 25 31 32 34 35 35 35 35 35 36 36
34 27 24 28 30 29 26 23 24 25 25 27 26 25 29 35 36 36 36 36 35 34 33 33 33 32 30 25 21 21 21 23 25 25 32 34 34 34 33 34 34 35 35 33
30 27 20 16 26 22 17 23 26 26 27 25 24 26 35 35 35 36 36 35 35 33 32 31 32 30 25 21 20 19 20 23 24 26 32 33 33 33 33 33 34 33 34 34
29 26 21 17 18 7 19 27 28 27 27 28 31 32 35 35 35 36 36 35 35 33 32 32 30 23 22 20 19 20 20 22 23 30 31 32 32 32 33 33 33 31 29 29
31 26 23 15 17 16 15 23 28 27 25 33 32 34 35 36 35 35 36 35 35 34 33 29 22 21 21 18 19 20 21 22 29 29 31 31 31 31 30 30 31 31 31 28
30 27 22 20 9 4 16 26 31 29 25 32 35 35 35 35 31 34 35 35 34 32 24 19 19 19 18 19 20 21 22 25 27 29 30 30 30 29 28 28 28 29 26 26
26 25 18 14 12 20 22 31 31 22 23 36 36 36 36 34 35 35 35 34 33 22 18 19 19 19 20 21 22 23 24 25 27 29 29 29 28 27 27 25 25 25 26 24
28 27 22 22 13 18 28 32 27 30 32 37 37 37 36 36 36 36 34 27 19 17 19 20 20 21 22 24 24 24 25 26 27 28 29 28 27 27 26 23 25 25 23 22
26 27 26 26 26 28 30 33 34 33 33 37 37 38 38 37 38 37 26 21 21 17 18 20 20 23 24 26 26 26 27 29 29 28 28 27 28 27 26 23 23 22 22 19
32 31 28 28 28 31 32 33 35 36 36 38 39 39 39 38 39 29 27 25 20 18 20 21 23 24 25 27 28 29 29 29 29 28 28 28 27 26 26 24 23 23 19 20
32 33 30 30 32 33 34 37 35 38 40 40 41 40 39 38 33 29 23 21 20 20 23 23 24 26 26 27 29 28 28 29 28 28 28 28 28 28 26 22 23 24 23 23
34 31 29 28 30 31 31 35 40 40 40 40 40 38 31 31 24 25 24 22 22 23 24 24 26 27 27 29 28 28 29 29 29 29 29 30 30 29 27 24 24 26 26 26

GFSCGP_sfc_dewp_027.txt.gz
Dewpoint
27 22 19 21 19 13 16 16 15 18 23 34 36 37 39 42 43 44 45 46 47 49 52 55 56 59 59 59 59 60 59 57 54 52 51 50 48 50 50 44 44 44 43 43
25 23 22 28 25 23 21 21 21 25 28 33 34 35 40 41 42 43 44 46 48 51 52 54 56 58 58 59 59 59 57 52 51 48 49 51 51 48 43 42 43 42 43 42
25 23 28 28 26 26 26 24 23 23 29 31 31 31 36 40 43 44 45 47 50 52 52 54 55 57 57 56 57 57 54 49 49 50 50 48 46 43 41 40 40 41 42 41
29 29 26 25 26 26 27 27 25 24 23 21 26 17 31 39 42 44 46 49 50 51 52 52 52 47 46 45 47 49 50 48 48 48 46 47 45 45 45 42 41 40 42 41
28 29 26 27 27 29 29 29 27 25 24 24 24 22 29 39 40 43 44 44 46 49 47 46 42 42 43 44 46 46 46 45 46 47 48 46 45 43 41 41 41 42 43 42
29 29 29 28 30 29 33 31 31 31 28 21 25 23 24 36 39 41 42 43 44 44 42 42 42 43 43 45 46 47 46 45 46 46 46 46 44 43 41 41 41 42 42 43
28 28 28 31 29 30 31 29 27 27 28 25 28 27 26 30 36 41 41 41 43 43 43 43 42 42 44 45 46 46 44 43 44 44 44 44 44 43 42 41 41 41 40 41
24 23 25 28 28 27 29 30 31 21 25 26 27 26 27 34 34 41 41 42 43 43 43 43 43 44 44 44 43 43 42 42 42 43 42 43 43 42 41 42 41 41 41 40
27 24 27 28 29 30 28 26 30 28 27 26 25 28 30 35 35 39 40 41 41 42 43 43 44 44 43 42 43 43 41 40 41 42 42 42 42 41 41 41 41 40 41 39
30 25 27 27 30 31 29 30 27 27 21 16 19 25 25 33 34 38 39 40 41 41 42 42 42 42 41 41 41 41 40 38 40 42 41 40 39 37 38 39 39 40 40 40
28 30 28 28 27 28 29 28 28 27 26 19 19 17 31 33 36 37 39 39 40 41 41 41 41 40 38 37 36 37 35 35 38 39 38 35 35 36 37 37 38 38 39 36
31 32 29 24 28 31 28 28 28 25 20 26 25 21 28 33 36 38 38 38 39 40 40 40 40 37 35 34 34 32 32 35 36 32 31 32 35 35 34 34 35 36 35 36
33 30 26 25 25 27 27 30 28 28 29 25 31 20 28 34 35 36 37 38 39 39 37 37 37 36 35 34 34 30 33 35 29 26 27 30 34 34 33 34 34 34 35 37
37 29 27 23 21 26 25 30 27 27 27 24 26 22 24 32 34 35 37 39 38 37 37 36 35 34 33 34 33 29 29 30 28 25 27 31 35 35 34 35 34 35 36 37
33 29 28 28 28 26 22 24 28 25 25 26 23 23 24 27 34 35 37 38 37 36 35 34 34 34 34 34 30 26 26 27 27 27 26 33 36 36 35 34 35 36 37 37
34 30 28 27 30 28 26 25 24 27 26 26 26 26 28 31 35 36 37 37 36 35 34 33 34 34 33 32 27 25 24 25 26 26 27 34 35 34 34 35 35 35 36 35
32 30 26 22 25 23 23 25 25 25 27 27 25 27 34 34 35 35 37 37 36 35 34 33 34 33 32 27 25 23 22 24 25 25 29 33 33 33 33 33 32 32 35 34
30 26 24 26 23 19 22 28 27 27 27 27 27 29 33 34 36 37 37 37 37 36 34 33 33 31 27 24 22 23 21 23 24 26 31 32 32 32 32 31 30 31 34 32
31 28 25 27 21 18 16 20 27 29 24 29 28 31 35 36 36 37 38 38 38 37 35 33 32 25 24 21 21 21 22 23 28 29 30 30 32 30 30 29 29 30 31 33
30 29 30 24 22 19 22 21 32 30 28 30 33 35 36 36 35 34 38 38 38 36 33 26 22 21 20 21 22 22 23 25 26 28 29 30 30 30 29 30 28 28 30 29
33 31 29 21 27 24 24 27 32 25 27 32 36 36 37 36 38 37 38 37 35 30 21 21 20 20 21 23 24 24 25 25 26 28 29 29 30 29 29 28 26 26 26 27
30 30 30 25 24 24 28 32 32 35 34 34 38 38 38 39 37 37 36 33 25 18 19 21 22 22 24 25 25 24 25 27 28 30 30 29 30 28 26 27 26 26 26 26
29 31 31 28 30 32 31 36 35 35 34 35 38 38 39 38 37 35 30 23 20 20 19 20 21 24 25 26 26 25 27 29 29 28 29 29 29 28 27 26 26 25 24 25
32 32 32 31 30 30 32 33 34 35 36 37 39 39 40 39 39 28 24 23 22 23 20 22 23 23 25 26 28 30 29 28 29 29 29 28 29 28 29 27 24 24 26 25
33 33 32 32 33 33 32 35 37 37 38 39 40 41 40 40 34 27 26 24 22 22 23 23 23 25 25 26 29 29 28 30 29 29 29 30 30 29 29 29 25 25 26 26
34 33 34 33 33 34 34 34 38 39 39 41 41 38 38 33 27 25 26 28 23 24 25 23 26 26 25 28 29 29 29 29 29 28 29 30 31 30 30 29 27 27 27 26

GFSCGP_sfc_dewp_033.txt.gz
Dewpoint
30 24 21 19 19 22 17 14 9 13 18 15 16 14 21 31 33 35 38 42 43 45 48 52 50 49 52 57 58 59 61 60 58 56 55 54 53 50 50 48 49 49 48 47
25 23 23 21 19 16 14 12 16 16 19 21 13 14 25 30 32 33 36 40 43 45 49 52 53 54 55 57 59 59 59 59 57 55 54 52 50 50 48 48 49 47 47 46
26 30 26 22 16 14 14 14 17 16 20 21 22 20 26 32 36 37 38 39 41 44 48 52 53 55 57 57 58 59 59 58 56 54 51 50 51 50 47 46 46 45 46 44
28 26 22 21 17 17 18 22 19 20 21 16 23 13 22 30 34 39 41 42 42 45 48 52 54 55 56 58 59 58 57 55 53 52 49 50 45 44 46 46 45 45 45 43
26 24 21 20 23 24 26 25 23 22 18 23 19 14 31 30 29 34 38 42 45 48 50 51 54 55 56 57 56 55 54 50 50 50 49 49 46 48 47 46 46 46 45 44
26 27 26 26 27 26 27 25 25 25 21 21 16 16 16 26 27 33 39 43 46 49 50 51 51 51 50 54 55 54 49 47 49 48 49 48 49 45 43 42 40 35 35 36
21 24 27 27 26 28 25 24 24 24 22 21 21 18 16 19 29 31 41 45 48 49 48 45 44 43 46 50 52 51 47 46 48 49 48 48 46 41 38 37 35 36 34 34
21 23 25 27 26 23 24 21 25 17 17 16 23 14 18 27 30 35 41 43 47 46 45 41 41 41 44 46 47 46 45 45 47 46 43 41 37 36 36 37 36 33 32 34
21 21 26 27 28 24 23 23 26 24 33 26 12 15 28 31 31 34 40 41 44 43 41 40 41 42 44 46 47 47 46 44 44 42 39 39 38 38 35 34 34 33 34 29
24 22 24 27 28 28 28 26 23 24 21 16 10 10 17 27 27 33 38 40 42 41 40 41 41 43 45 46 48 48 46 42 39 38 38 38 40 35 32 33 32 31 32 31
24 23 28 27 26 21 28 25 23 23 25 20 14 14 19 22 27 32 36 39 41 41 40 41 42 44 45 46 46 45 40 37 36 37 39 39 34 32 32 31 31 30 32 31
29 26 28 26 28 28 28 25 25 26 19 25 29 15 21 25 26 32 34 38 40 41 40 41 43 44 45 45 43 41 38 34 36 36 35 35 32 29 30 29 28 31 31 31
32 26 26 25 27 27 23 23 24 22 27 23 28 18 22 24 25 27 30 35 38 40 40 41 43 44 44 43 41 38 35 34 34 34 32 29 28 29 30 28 30 31 31 30
37 28 26 25 22 23 26 22 22 24 26 23 20 16 16 21 22 23 28 31 36 39 40 41 42 43 42 41 39 36 34 36 36 29 28 26 27 30 29 30 31 32 31 30
35 29 27 25 25 23 21 20 21 20 20 23 20 10 7 11 15 20 23 29 32 37 40 41 42 42 41 39 37 35 34 36 33 33 25 26 28 29 29 31 32 32 31 30
34 31 31 31 28 26 24 23 20 19 19 16 16 16 17 22 19 22 24 28 30 35 38 40 41 41 40 38 36 34 34 33 35 29 26 27 27 26 29 31 32 30 29 29
35 33 31 23 25 25 31 28 24 21 20 21 23 22 18 23 23 25 26 30 31 34 37 39 39 40 39 37 36 34 34 33 28 25 25 25 25 27 28 27 26 27 29 30
36 35 35 31 30 28 16 20 19 22 20 18 17 18 18 19 27 29 29 29 31 33 35 38 39 39 38 36 34 33 30 27 25 25 24 23 26 26 26 26 26 28 29 30
32 33 33 37 23 19 14 13 18 20 16 20 20 20 20 26 32 31 32 30 30 32 36 38 39 38 37 34 31 28 27 22 24 23 21 22 24 25 25 25 27 28 29 29
30 33 33 30 33 30 27 23 26 26 23 24 24 24 25 27 31 28 32 32 34 36 37 38 38 37 34 30 28 26 25 27 24 21 21 22 23 25 25 27 27 29 29 27
37 38 36 33 35 30 24 23 29 25 30 31 29 29 30 30 34 39 37 35 36 36 38 39 36 33 29 27 29 33 29 25 21 20 24 24 25 25 25 27 28 28 28 28
33 37 37 37 36 31 26 28 27 35 32 31 33 32 36 37 37 39 37 36 37 37 36 33 30 26 28 34 32 28 22 18 23 26 25 24 24 23 24 27 28 28 28 29
31 33 36 31 32 30 29 28 30 32 34 34 34 34 36 36 36 36 37 37 36 34 27 25 28 34 34 31 27 19 19 27 26 25 25 25 25 26 27 27 27 27 27 28
32 33 34 31 25 26 28 30 31 33 35 35 36 37 37 37 38 38 37 35 30 26 27 34 35 32 30 25 21 23 24 25 26 26 25 26 27 27 27 27 26 25 28 30
35 34 30 32 30 30 29 34 37 39 40 40 40 41 41 41 40 39 33 29 28 29 30 31 31 28 24 23 24 24 26 27 25 25 26 28 29 29 27 26 25 27 29 31
33 33 37 36 35 38 37 40 41 41 40 40 40 39 37 37 35 32 30 31 34 33 30 30 31 29 25 25 27 27 26 25 27 27 27 31 30 30 28 26 26 29 30 30

GFSCGP_sfc_dewp_036.txt.gz
Dewpoint
31 26 23 24 29 24 20 19 14 13 14 16 27 22 21 25 29 38 40 42 43 42 45 47 50 50 52 59 59 60 60 60 59 58 57 56 55 53 53 52 52 52 51 50
31 23 30 28 24 23 20 17 20 14 14 14 15 12 17 23 27 32 38 41 43 44 45 51 51 51 55 59 59 60 59 59 58 57 57 57 54 53 52 52 52 51 50 49
31 28 32 24 19 20 18 16 21 18 14 13 18 10 19 23 25 28 36 39 42 45 48 51 51 55 58 59 59 60 59 59 58 58 55 54 53 53 50 50 49 49 49 48
34 31 27 22 19 17 17 25 22 18 18 15 24 18 20 24 27 29 32 36 40 43 47 50 52 54 56 60 60 60 59 58 58 56 53 52 50 48 49 49 49 48 48 46
35 34 29 19 23 26 23 28 25 18 18 26 20 22 26 26 29 32 37 39 40 42 45 49 52 54 57 59 60 60 59 58 56 53 53 53 52 52 51 50 50 49 49 48
31 38 37 29 27 26 28 25 23 24 23 29 29 26 24 27 29 33 36 40 42 44 49 50 53 55 56 58 59 60 58 52 52 52 52 52 52 49 49 48 47 45 42 42
20 22 27 29 29 24 22 21 27 31 31 27 18 17 25 30 32 44 37 39 43 48 49 50 52 53 54 55 57 54 50 49 51 52 51 52 50 47 43 41 41 41 40 39
17 26 23 25 23 32 33 18 30 27 29 26 20 16 19 27 28 32 39 43 46 48 50 50 50 49 50 53 54 52 48 47 49 51 50 49 45 43 40 43 41 39 38 39
30 28 30 26 22 23 21 21 24 27 35 34 18 10 29 28 28 30 40 42 45 46 47 46 44 46 48 49 52 51 48 47 49 49 46 45 43 42 42 41 39 39 38 33
36 35 34 27 26 25 25 23 26 26 25 21 13 12 27 27 26 30 38 42 44 45 45 43 41 45 46 48 50 52 50 47 48 44 45 42 43 41 41 37 37 35 35 34
32 34 29 27 24 16 26 23 22 18 28 29 26 18 22 21 25 30 36 41 43 45 43 42 41 43 46 48 49 50 48 45 43 41 42 43 41 40 37 37 36 34 34 34
26 27 31 24 25 25 25 27 24 35 24 30 36 25 22 25 23 31 32 37 42 43 43 41 42 44 45 47 47 48 47 43 41 41 42 41 39 38 37 36 35 35 34 35
32 29 29 22 25 27 24 21 20 25 32 29 35 25 22 22 22 25 31 34 39 42 42 41 42 43 45 46 47 46 45 41 39 38 37 37 38 35 34 35 34 34 34 34
40 27 22 27 22 25 27 24 19 22 35 29 26 17 17 20 22 22 28 32 34 40 40 40 41 43 45 46 46 44 42 40 38 36 36 35 35 35 34 33 33 34 34 33
34 25 24 21 22 24 25 22 20 18 23 26 26 16 16 17 22 22 26 30 29 30 37 39 41 45 45 45 44 42 40 39 39 38 34 36 34 33 33 34 34 35 35 33
34 33 32 30 28 26 25 22 22 21 18 18 17 17 18 22 24 24 25 23 26 29 32 39 42 43 44 44 42 41 39 39 37 38 35 33 32 31 33 34 35 35 34 33
36 38 36 33 27 26 29 28 25 23 21 21 22 25 23 20 20 25 28 27 31 31 32 38 40 42 44 43 42 40 37 36 38 34 34 31 30 30 32 31 31 31 32 33
37 39 41 37 32 28 20 20 17 20 18 17 16 19 19 27 28 27 27 31 31 34 34 35 39 42 43 43 40 38 34 37 33 30 30 31 29 29 29 31 31 31 32 33
35 39 38 36 29 23 19 16 18 18 18 21 20 21 20 22 29 30 32 33 32 33 34 36 38 40 41 39 36 34 33 30 30 29 29 26 27 29 30 29 30 32 31 32
29 38 41 36 35 30 29 23 23 23 29 27 27 28 28 26 35 35 36 35 36 34 36 36 39 40 39 35 34 30 28 30 29 29 27 26 29 29 28 31 31 31 31 30
38 41 37 35 37 34 26 25 27 28 33 32 32 32 33 34 38 41 40 37 36 36 38 39 37 34 32 32 33 33 34 34 32 29 29 30 32 29 29 30 30 30 30 31
36 39 37 40 35 31 26 27 27 37 37 35 34 36 39 39 38 38 37 37 37 36 35 32 33 34 34 34 34 32 30 26 29 31 30 28 28 26 24 30 30 31 31 31
35 36 39 36 37 35 30 31 32 36 35 36 38 37 38 39 38 38 38 38 36 29 29 32 34 34 34 32 30 27 26 27 28 30 30 28 28 27 27 29 30 30 29 30
32 34 38 36 27 27 29 30 35 38 39 38 39 40 42 41 41 40 37 32 31 33 33 33 33 32 30 28 26 27 28 29 29 29 29 28 29 29 29 29 29 29 31 31
36 34 31 32 31 32 37 39 41 40 41 41 40 38 37 38 34 31 30 31 32 32 31 31 31 30 28 28 28 26 27 30 29 27 27 29 30 31 30 29 29 29 30 31
34 33 41 41 38 39 40 38 39 38 37 36 35 34 33 32 32 33 33 32 32 33 33 33 32 30 28 26 26 28 29 27 28 28 29 32 33 32 31 29 29 30 30 30

GFSCGP_sfc_dewp_039.txt.gz
Dewpoint
41 28 29 30 28 27 27 25 20 19 17 30 27 24 27 28 36 39 38 39 39 38 40 44 45 51 53 57 58 59 59 59 58 58 57 56 54 53 52 51 50 49 50 48
39 33 34 31 28 27 29 26 20 21 17 23 25 24 24 24 30 39 41 42 41 45 45 47 46 51 54 56 59 59 59 59 58 58 57 55 52 51 50 49 50 49 48 48
33 33 32 29 28 25 26 24 21 22 17 14 17 21 18 23 28 33 40 42 42 45 48 49 49 54 57 56 59 59 59 58 57 58 56 53 51 51 49 49 48 47 48 46
34 36 34 31 28 22 21 25 26 26 22 16 23 20 25 24 24 27 37 41 43 44 49 50 50 53 57 58 59 60 59 59 57 58 53 50 50 48 47 48 48 47 45 44
34 33 33 32 30 28 26 29 28 28 22 25 23 21 25 25 28 28 30 36 41 44 50 50 51 53 58 59 60 60 60 59 58 57 51 50 50 49 49 49 47 46 45 44
33 36 36 30 30 28 30 30 29 32 29 25 22 24 26 24 24 32 33 39 39 42 49 51 52 57 58 60 60 59 58 58 57 52 51 50 49 47 46 47 47 47 45 42
29 27 32 35 28 29 30 25 27 27 29 27 28 28 26 28 28 32 34 36 40 47 49 52 55 55 57 57 57 58 58 54 51 50 50 49 47 45 44 43 40 39 38 39
23 27 31 32 32 31 27 29 29 25 28 28 30 25 24 29 33 38 38 39 44 47 49 52 53 54 56 56 57 57 53 49 49 49 49 45 40 39 41 39 37 37 38 38
30 31 36 34 35 28 30 26 30 33 33 29 26 19 28 29 33 39 41 42 46 48 49 50 50 51 53 53 52 49 48 48 49 49 44 39 40 40 39 38 36 38 36 34
37 30 35 35 34 28 27 27 26 28 21 21 21 19 28 30 31 39 42 44 46 47 47 46 45 48 49 49 50 49 48 48 48 44 41 40 39 38 39 38 35 36 34 34
37 34 35 36 32 25 27 26 25 25 30 24 23 20 24 26 30 31 41 43 45 45 45 43 42 46 47 48 48 48 47 47 43 40 40 41 39 42 36 36 36 35 35 34
37 35 35 31 33 27 25 30 33 27 21 27 27 24 21 22 28 30 30 42 44 45 44 42 41 44 46 46 48 47 47 43 40 40 40 38 38 37 36 36 35 35 33 34
34 29 26 24 29 30 26 25 25 30 32 26 22 23 22 20 22 28 30 34 42 44 42 41 41 43 45 46 47 47 45 41 39 39 37 37 39 36 35 35 36 34 34 33
39 30 27 23 24 28 28 30 25 26 27 25 24 25 22 22 23 23 25 28 39 42 42 41 41 42 44 46 46 46 44 40 39 35 35 37 37 34 34 34 33 34 33 32
35 27 27 25 27 28 27 27 26 21 27 24 25 25 24 23 22 24 27 30 29 31 38 41 41 44 46 47 47 46 44 41 37 37 35 37 37 36 35 35 34 35 33 31
35 31 30 30 31 28 26 27 26 24 25 24 23 23 22 24 24 24 24 25 28 30 32 40 46 47 46 47 46 44 40 39 37 35 36 38 38 37 33 33 33 33 33 32
35 34 31 28 27 25 21 24 25 27 27 26 22 24 28 27 26 27 27 29 29 31 32 35 39 43 45 46 45 40 38 38 38 36 36 37 35 32 33 31 30 30 30 31
37 35 32 27 26 12 24 23 21 21 22 22 21 21 27 27 30 31 29 30 30 31 32 33 35 40 42 42 38 38 38 38 33 33 34 35 34 31 32 31 31 31 32 31
40 36 31 24 25 26 23 23 25 22 24 27 27 27 28 28 29 36 36 34 34 33 34 35 39 37 35 34 35 32 32 30 30 30 29 30 32 30 31 31 32 31 29 31
35 38 27 29 23 16 28 25 28 26 26 32 32 32 33 34 32 36 37 37 38 33 33 32 32 32 31 31 33 33 33 32 31 31 31 32 32 31 32 34 31 31 30 30
30 30 26 25 23 28 31 28 31 21 27 34 34 34 34 33 37 38 38 38 34 33 33 34 33 33 33 33 32 33 31 30 30 32 32 32 33 33 33 31 30 29 29 29
30 31 26 32 28 24 29 29 27 36 35 35 34 36 37 38 40 40 37 30 32 33 33 33 33 32 32 31 30 29 28 29 30 31 32 32 32 31 29 29 29 29 29 29
31 37 33 33 32 37 32 34 38 39 38 38 39 42 42 41 41 33 33 34 34 34 34 34 32 30 28 26 27 26 30 28 30 31 31 30 30 29 28 28 29 29 28 28
34 35 34 31 33 31 40 40 41 42 41 37 35 37 37 32 32 32 32 31 31 31 30 30 30 29 29 28 28 29 30 30 30 30 30 30 29 29 29 30 30 29 28 26
36 33 32 31 39 40 39 40 40 39 37 34 33 33 33 33 33 33 32 31 30 30 30 31 31 31 29 30 29 28 29 30 29 30 29 28 29 30 30 30 29 29 28 28
36 34 31 33 40 39 38 38 38 36 35 35 34 33 33 33 32 32 31 32 33 34 33 32 31 30 28 28 28 28 29 29 29 28 28 28 28 28 29 29 29 30 30 31

GFSCGP_sfc_dewp_042.txt.gz
Dewpoint
40 31 28 30 29 27 27 26 26 25 27 31 30 25 29 34 44 46 46 42 45 49 51 51 50 52 52 54 58 58 57 57 57 56 55 55 54 53 53 52 51 49 50 51
37 32 33 34 31 29 30 28 26 23 23 29 28 24 26 30 38 42 43 40 41 44 46 47 48 50 52 55 58 58 57 57 56 57 56 55 54 53 52 51 49 50 49 48
31 31 35 33 29 27 27 28 26 23 22 17 25 21 22 26 29 40 40 39 39 41 43 45 49 51 52 56 58 58 58 57 57 57 56 53 51 50 49 49 49 48 48 46
32 34 35 33 31 30 23 27 26 24 24 18 20 16 23 22 24 37 41 40 41 41 45 46 50 51 53 58 59 58 58 57 57 57 55 52 49 48 49 48 47 47 47 45
29 33 32 32 30 32 26 31 28 28 26 24 23 18 21 25 24 25 36 41 41 43 45 47 52 52 54 58 59 59 58 58 56 57 55 52 50 49 48 48 47 46 44 44
31 36 34 31 31 31 30 30 31 33 29 22 25 22 22 23 23 26 31 37 42 44 47 48 53 56 57 59 59 59 59 58 58 57 52 52 49 48 48 47 46 45 45 41
30 31 33 35 30 31 29 26 24 23 26 22 29 26 25 26 28 29 33 35 39 44 50 51 56 57 58 58 59 59 59 58 58 55 51 50 49 48 47 47 46 42 39 38
26 25 30 33 32 32 31 27 26 19 24 25 30 26 26 28 30 30 33 35 42 45 50 52 55 57 58 58 59 58 58 56 53 51 50 49 46 45 44 42 40 40 39 38
27 29 35 35 35 32 30 26 29 31 30 26 28 24 27 31 35 37 39 40 46 48 51 53 54 56 56 56 57 57 57 51 51 51 46 42 43 41 40 40 41 39 38 35
31 29 33 35 34 31 28 27 25 28 21 22 21 20 26 30 34 39 39 40 46 48 50 51 53 55 55 55 53 52 52 50 50 45 43 43 42 42 42 43 40 38 37 36
35 28 29 35 29 26 27 25 26 26 28 22 21 19 22 30 34 37 40 42 46 48 48 49 50 52 52 52 49 48 49 49 46 41 43 43 44 44 41 42 39 38 36 35
35 34 28 29 31 33 30 29 28 25 19 27 25 21 26 27 31 38 41 43 46 47 47 47 49 49 49 49 49 47 47 47 44 40 40 40 40 38 38 38 36 37 35 37
34 31 27 24 27 32 28 26 29 33 30 25 22 22 24 22 23 30 34 41 45 46 46 44 45 47 48 48 48 47 46 44 40 40 38 38 37 37 38 38 37 35 35 34
36 31 28 23 22 27 28 30 31 27 26 24 25 24 24 22 22 23 28 31 42 45 44 42 42 44 46 47 47 47 45 42 43 40 37 38 38 37 37 35 34 34 34 32
32 27 26 25 27 29 27 26 28 24 25 23 23 24 23 23 23 24 26 28 36 38 41 42 42 42 45 47 48 48 45 43 42 39 38 41 39 37 37 36 35 36 33 32
34 26 27 26 29 27 26 25 25 25 25 26 24 24 26 26 26 27 26 28 30 31 39 43 43 45 46 47 47 48 46 43 41 40 40 40 40 35 35 34 35 35 33 32
33 33 28 26 26 25 23 24 24 25 27 26 22 24 28 29 28 27 29 30 31 32 33 39 45 46 47 47 47 45 40 40 39 38 38 36 35 34 34 33 32 31 30 30
34 33 29 25 23 16 27 26 25 25 25 23 23 26 29 32 34 33 32 32 32 33 36 39 40 40 41 39 39 39 38 36 35 35 35 33 32 32 33 34 33 34 32 31
39 33 29 23 23 25 25 21 21 24 26 29 28 30 29 33 36 35 37 37 36 35 33 33 32 32 33 34 34 31 31 30 31 31 32 33 33 33 35 37 37 34 33 31
36 36 30 28 20 16 25 25 27 29 26 31 33 34 34 33 33 35 37 34 33 32 32 33 33 33 33 32 32 31 31 31 32 34 35 35 37 38 37 34 33 33 31 30
29 29 25 22 21 24 29 27 30 18 22 33 34 34 33 34 37 35 34 34 33 33 32 32 31 29 30 31 31 30 31 32 33 34 36 38 35 34 33 32 31 29 29 28
28 28 24 28 22 19 33 29 25 30 35 36 36 38 40 37 33 33 34 33 32 32 31 31 31 30 30 29 29 29 30 32 34 35 33 32 31 30 29 29 29 28 28 28
28 30 29 30 29 34 36 34 37 38 38 40 41 42 40 34 34 34 33 33 33 32 30 27 26 27 28 28 29 29 31 29 31 31 30 30 30 30 29 28 28 28 28 26
34 39 35 32 37 39 40 41 41 39 36 36 37 36 34 33 33 32 31 31 31 30 29 29 29 29 29 29 29 29 30 30 29 29 29 29 29 28 28 29 29 29 26 26
35 34 33 37 39 39 39 38 35 35 35 34 34 34 33 33 32 31 31 31 31 31 31 31 31 30 29 28 28 28 28 29 28 28 29 28 28 28 28 29 30 29 29 28
35 33 31 32 39 37 37 37 37 35 34 34 33 33 33 32 31 32 33 33 33 33 31 30 29 28 27 28 28 29 29 29 29 28 28 28 28 27 28 28 28 30 30 30

GFSCGP_sfc_dewp_045.txt.gz
Dewpoint
38 30 28 29 30 27 26 25 24 25 25 32 31 28 29 39 48 50 51 50 54 55 56 56 57 57 57 55 57 58 57 57 57 56 55 54 54 53 53 52 51 50 49 50
34 30 32 33 34 29 29 27 24 25 25 32 30 28 27 37 43 48 49 47 49 53 55 55 55 55 54 54 57 57 57 57 57 56 55 55 54 53 52 51 50 49 50 49
30 29 34 33 31 28 28 27 26 25 24 27 26 25 22 27 33 45 48 47 47 50 52 54 52 52 53 53 57 57 57 57 56 56 55 53 52 51 50 49 48 49 49 48
31 32 34 31 30 29 26 27 28 27 25 20 24 20 22 24 27 40 45 43 43 47 50 52 50 51 52 53 56 57 57 57 56 56 54 52 50 51 51 49 48 48 48 46
28 32 31 30 29 30 27 30 28 28 25 24 23 17 19 25 25 32 40 42 41 43 47 48 49 50 51 54 57 57 58 57 56 56 56 54 52 50 49 48 47 47 45 44
28 35 32 29 30 30 30 29 29 31 27 22 23 22 22 23 23 25 33 40 40 42 45 46 49 51 51 56 58 58 58 57 56 56 56 54 52 49 49 47 46 45 43 42
29 30 33 35 30 32 28 27 24 22 23 21 27 25 24 25 26 27 29 37 41 43 46 49 52 51 54 57 57 58 58 57 57 56 56 54 53 50 49 47 46 43 39 38
25 22 29 32 30 29 30 26 25 17 21 20 29 25 24 29 31 31 31 35 40 44 47 51 52 54 56 57 58 58 58 58 58 58 56 53 51 50 49 47 46 42 39 37
26 25 34 34 34 29 30 27 28 29 29 25 25 27 26 29 36 37 37 37 40 43 48 51 54 56 57 57 57 58 58 58 57 56 52 50 50 47 45 44 44 42 39 37
28 24 32 34 34 32 29 28 24 27 18 20 22 21 24 27 27 37 38 39 45 48 51 52 54 56 57 58 58 57 57 55 53 49 48 47 47 43 43 44 42 39 39 40
33 26 27 33 30 26 27 25 26 26 26 21 21 21 21 28 30 34 36 39 46 49 51 52 53 55 56 56 55 56 56 51 49 44 45 44 44 43 42 41 40 39 39 37
33 29 25 26 31 33 29 28 26 25 20 26 25 21 24 25 31 36 37 41 46 48 50 51 52 53 54 54 53 53 53 51 48 44 44 45 43 42 40 39 38 37 37 39
34 29 24 23 26 31 28 29 31 31 28 25 22 22 24 23 22 29 37 40 44 47 48 48 50 52 53 53 51 51 50 51 45 44 44 45 43 41 41 40 38 40 39 36
36 31 26 22 23 28 27 28 28 29 26 24 24 23 24 24 23 22 28 31 40 45 46 45 46 49 51 51 51 49 49 47 44 43 42 43 41 42 42 39 37 36 36 33
32 26 27 26 24 27 26 27 29 25 25 24 24 25 25 23 22 23 24 30 39 43 44 44 43 44 46 48 49 48 47 45 43 42 43 42 39 39 38 37 35 36 35 33
33 27 25 29 28 26 25 25 26 26 25 25 25 23 26 26 27 28 29 31 32 36 41 42 44 43 45 48 48 47 44 45 44 43 41 40 39 37 36 36 36 34 33 31
31 31 26 21 26 25 23 25 25 25 26 26 23 24 27 28 28 29 30 31 32 34 37 39 44 45 47 47 46 43 41 41 40 40 39 36 35 34 35 35 35 35 37 38
33 30 27 24 24 17 24 28 26 25 25 24 25 27 29 32 34 35 34 33 36 36 35 34 36 38 39 40 40 38 38 37 36 34 33 34 35 34 35 36 38 38 38 35
36 32 27 24 24 24 25 25 24 23 23 28 27 31 34 35 35 35 34 34 33 33 33 33 33 32 32 32 33 32 33 32 33 33 33 35 36 36 38 39 39 38 34 31
33 34 30 25 21 18 27 27 26 28 24 29 32 32 33 33 31 34 34 33 33 32 32 33 32 31 31 31 31 32 32 33 33 34 34 36 38 40 39 37 34 32 31 31
29 29 27 23 21 25 27 28 28 18 21 33 34 34 34 32 34 35 34 33 32 32 30 30 30 30 30 31 32 32 34 34 35 38 41 40 37 35 33 32 30 29 28 28
30 28 24 25 18 21 30 28 22 27 34 35 35 37 36 34 34 33 33 32 31 30 30 29 29 30 30 31 31 32 33 35 36 34 32 31 30 29 29 29 29 28 27 27
26 31 30 29 28 32 36 31 36 36 36 37 39 38 35 34 34 33 33 32 30 28 26 27 27 29 29 29 29 28 29 30 30 29 29 29 29 29 29 28 27 27 27 26
33 36 32 32 36 39 40 38 38 39 39 40 40 35 34 34 33 32 32 30 30 29 28 29 29 28 29 29 28 29 30 29 29 28 28 29 29 28 28 28 28 27 26 27
34 35 35 35 38 38 38 35 35 35 35 34 34 34 33 32 32 31 30 30 31 30 30 30 30 29 28 28 28 29 30 29 29 28 28 28 28 28 28 27 27 28 28 29
35 34 33 32 38 36 37 36 36 35 34 34 33 33 32 31 31 31 32 32 31 31 29 27 28 27 27 29 31 31 31 30 29 28 28 28 28 27 27 27 27 29 30 30

GFSCGP_sfc_dewp_048.txt.gz
Dewpoint
37 30 27 28 29 27 26 25 22 25 26 33 32 30 33 43 50 51 54 54 55 56 56 57 57 57 54 56 56 57 57 56 57 55 55 54 54 55 54 53 52 51 49 49
33 29 30 31 33 31 28 26 24 25 26 29 30 29 27 39 47 49 52 54 55 55 56 57 57 57 56 55 56 58 57 57 57 57 54 54 54 53 54 53 51 50 49 49
29 28 34 33 30 28 26 25 25 25 26 28 26 25 24 28 40 46 49 52 53 54 54 55 56 57 56 55 55 57 57 57 57 57 55 52 53 53 52 50 49 49 50 49
31 32 32 32 29 27 25 27 27 25 25 21 24 19 20 24 33 40 45 49 49 50 54 55 55 55 55 55 55 57 57 57 57 56 54 52 52 51 52 50 48 49 49 48
27 31 32 30 28 29 26 29 28 28 25 24 23 18 19 24 23 29 40 46 47 48 51 53 54 54 54 54 55 56 57 57 57 56 55 53 52 53 51 49 49 49 46 45
28 34 31 29 30 30 30 29 28 30 26 21 23 20 22 22 23 26 30 42 46 45 48 51 54 52 52 54 55 56 56 56 56 56 55 54 53 52 50 50 48 45 44 43
28 29 32 35 30 31 28 26 23 21 23 21 26 26 26 25 26 26 29 36 43 43 45 48 49 50 51 53 55 56 56 56 57 56 56 55 55 53 51 49 47 43 41 39
24 21 29 32 29 27 28 26 24 17 20 19 27 24 23 28 33 35 30 29 40 41 43 46 47 50 51 54 56 57 57 56 57 57 56 56 55 54 52 50 47 44 40 39
25 23 32 34 33 28 29 26 28 28 28 25 24 25 22 28 33 36 35 36 40 41 43 45 48 50 52 55 56 57 57 57 57 57 57 55 54 52 51 50 46 42 40 38
26 22 31 32 33 32 28 29 23 26 19 19 20 21 21 25 27 36 37 40 40 43 46 47 51 53 54 55 56 57 57 57 57 57 55 53 52 51 50 48 45 43 41 40
30 23 23 32 29 27 28 26 26 25 25 20 20 21 22 23 28 30 35 37 41 46 47 50 52 54 55 55 56 56 57 57 54 52 51 50 49 48 49 48 46 44 41 43
31 27 21 24 29 31 27 27 27 25 20 25 25 22 25 22 25 30 33 38 43 48 49 50 51 53 54 55 56 56 56 55 54 49 48 48 48 48 48 46 43 43 41 39
32 25 20 20 25 30 28 29 29 29 27 24 21 21 23 25 22 24 30 36 42 47 48 49 50 52 53 54 54 54 54 53 49 48 47 48 47 46 43 42 41 39 39 40
34 29 22 19 20 26 28 27 31 29 26 25 24 23 23 24 24 24 24 28 35 43 47 48 48 50 51 52 52 51 50 49 48 48 47 46 45 44 41 41 39 39 38 36
31 25 27 25 24 27 26 27 28 26 26 24 25 25 25 25 23 23 24 34 36 42 45 46 46 47 48 50 49 48 47 46 46 45 43 44 44 41 39 37 37 38 37 34
32 26 24 28 27 26 25 26 28 27 26 25 24 24 26 27 28 29 31 34 36 39 40 43 44 43 46 48 47 47 45 44 44 43 41 39 39 38 37 35 35 35 34 36
30 29 25 22 25 24 23 25 25 25 27 26 24 26 26 28 28 30 31 33 36 37 37 39 40 42 44 45 43 42 42 41 40 39 37 36 36 35 35 35 35 36 39 40
31 28 26 23 23 16 24 28 27 27 26 25 24 25 27 29 34 34 35 36 34 33 33 34 35 36 38 38 38 37 36 35 35 34 34 35 35 36 37 38 39 40 40 39
35 30 27 23 23 23 24 25 25 23 21 26 26 32 33 35 34 34 34 33 33 33 33 32 32 32 32 32 33 33 33 33 33 33 35 36 37 38 39 39 39 40 39 35
32 32 28 23 20 17 25 27 26 25 21 29 32 34 34 34 25 32 33 33 31 31 32 30 30 31 32 32 32 32 32 32 34 35 36 37 39 41 40 38 37 33 31 31
29 28 24 21 21 26 30 27 27 19 23 31 33 34 34 31 31 33 32 32 31 30 30 30 30 30 31 32 34 35 35 36 39 40 39 37 35 34 32 31 30 29 28 28
31 28 24 24 20 24 29 27 23 28 33 33 34 34 35 34 33 32 31 30 30 29 29 29 29 30 32 32 33 33 34 34 33 32 31 30 30 29 29 28 28 28 27 27
29 32 30 30 30 32 32 29 31 33 34 34 36 36 35 34 33 32 30 28 27 27 27 28 28 29 29 29 29 29 30 30 29 28 28 28 29 28 28 27 27 27 27 26
32 34 31 31 33 36 39 38 38 38 37 39 37 36 35 33 33 31 29 28 27 27 28 28 28 28 28 29 29 30 30 29 29 28 28 28 28 28 28 28 27 27 25 26
33 34 34 32 37 37 38 36 36 36 37 35 35 35 34 33 32 30 29 29 29 29 29 28 28 28 29 30 30 30 29 28 27 27 27 27 26 26 25 26 26 26 26 27
36 34 32 31 35 34 35 36 36 36 35 34 33 33 32 32 30 30 30 30 29 28 27 27 28 30 28 26 26 27 26 25 24 25 26 25 25 24 23 23 22 23 24 25

GFSCGP_sfc_dewp_051.txt.gz
Dewpoint
37 31 28 30 30 27 25 25 22 24 30 28 31 32 34 51 52 52 51 52 54 54 55 54 54 55 55 55 57 58 60 61 59 58 58 57 59 60 60 58 57 56 52 52
34 32 32 30 32 30 28 26 25 25 26 29 28 27 30 46 50 50 51 51 52 53 55 55 55 55 55 55 57 57 58 60 59 57 58 58 59 59 59 58 55 55 53 51
31 29 33 32 30 28 27 26 25 24 26 28 27 24 27 32 45 50 50 52 52 53 54 56 57 57 57 55 56 56 57 59 59 58 57 56 58 58 57 56 55 54 52 50
32 32 32 32 30 29 26 27 27 25 25 21 24 19 23 26 33 42 49 50 52 53 55 56 57 57 58 57 57 56 58 58 59 59 56 56 56 56 57 56 55 52 52 50
30 32 32 31 30 30 28 28 28 27 26 25 23 20 22 25 24 31 40 48 50 51 53 54 56 57 58 58 59 58 58 58 59 58 57 58 57 58 56 55 54 53 51 50
29 33 32 31 30 31 30 29 29 29 27 24 23 21 21 22 24 25 29 38 47 50 51 53 55 56 56 59 59 59 58 58 59 58 58 57 56 56 55 54 54 52 50 49
28 29 32 34 30 30 28 26 25 24 25 24 27 26 26 28 28 29 32 32 40 49 50 51 53 55 55 56 57 58 57 57 58 58 57 57 57 56 54 54 53 49 49 47
22 21 29 33 30 29 29 27 28 18 21 21 27 23 20 29 29 36 37 34 34 46 49 49 51 54 54 55 56 57 57 57 57 58 57 57 57 57 56 55 53 50 50 47
27 24 29 33 33 30 29 28 29 28 29 28 24 24 24 27 30 36 37 35 35 40 44 47 49 52 53 54 56 57 57 56 57 58 58 58 58 57 57 55 54 52 48 43
30 24 31 32 33 32 29 30 27 28 22 20 19 22 18 24 28 30 36 38 38 41 43 44 47 50 52 54 56 57 57 57 57 57 58 58 57 57 57 55 52 49 46 43
30 28 26 32 30 28 29 28 28 27 26 21 20 21 28 25 28 31 34 38 40 43 44 47 48 51 52 54 55 56 56 56 57 58 58 58 57 56 55 53 51 48 45 42
33 32 27 27 29 30 30 30 30 30 24 27 27 23 26 28 26 29 33 37 41 46 47 48 50 53 54 54 55 55 56 57 57 57 57 56 54 53 52 51 48 46 43 43
33 28 23 21 25 31 29 29 29 30 30 26 30 25 25 27 27 26 28 33 40 45 48 50 52 53 54 55 56 56 57 57 57 54 53 52 51 50 50 47 45 44 43 41
35 30 27 21 22 28 30 29 30 30 29 28 27 26 27 27 27 27 28 28 30 39 46 48 50 52 53 55 55 56 56 54 51 50 50 49 49 48 45 44 43 42 41 41
36 28 29 25 22 27 28 28 30 27 29 29 28 25 27 28 28 27 28 36 38 42 44 46 47 49 51 53 53 52 51 50 50 48 46 46 45 43 41 40 40 41 40 39
34 30 30 27 27 26 26 27 28 28 27 27 26 26 28 27 28 30 34 39 39 41 42 44 45 46 49 50 49 48 47 46 46 45 43 41 39 38 37 37 36 36 39 38
33 32 29 25 26 26 28 28 28 29 29 29 28 30 28 28 29 32 35 37 38 39 40 41 42 43 44 45 45 44 43 42 41 39 38 36 36 35 36 37 39 40 41 42
33 32 30 29 27 25 27 28 28 29 28 28 27 26 27 29 33 34 36 36 35 36 36 37 38 39 39 40 39 39 37 37 37 36 35 36 38 38 40 40 41 41 41 41
35 32 29 30 26 26 24 26 28 27 23 28 27 27 31 33 34 33 33 34 34 34 34 34 34 35 36 36 36 36 35 35 35 37 38 38 39 40 40 40 40 41 39 39
32 33 34 27 27 25 30 27 28 26 24 29 29 32 34 34 32 33 33 33 33 32 32 33 34 34 34 34 34 34 35 36 37 38 39 41 40 38 37 37 35 34 33 31
31 31 30 27 31 29 30 28 30 26 28 32 32 34 36 33 33 35 33 32 31 31 32 33 33 33 34 35 36 36 37 39 38 35 33 32 31 30 31 31 31 30 29 30
32 31 31 29 31 27 32 27 28 35 32 34 35 37 38 35 34 33 32 31 30 30 31 32 33 34 35 36 34 31 30 30 30 29 29 29 30 29 28 30 30 29 29 30
32 34 33 32 34 37 33 35 33 34 35 36 37 37 36 34 33 31 30 30 29 29 30 30 30 30 30 30 29 28 29 28 30 30 29 28 26 24 23 22 22 21 21 23
34 37 35 35 35 34 36 37 39 37 36 36 37 36 36 34 32 30 29 28 28 28 28 28 28 28 29 30 30 30 30 29 27 26 24 22 20 19 19 18 18 19 21 22
36 37 34 34 35 38 38 39 38 37 39 37 36 36 35 34 31 29 28 28 28 28 27 27 28 29 29 27 24 24 23 24 22 22 19 18 19 18 17 17 19 20 21 23
36 35 35 34 36 38 36 39 38 38 37 36 35 34 34 32 30 29 29 29 28 28 28 29 28 26 24 23 23 22 21 19 18 16 16 19 19 19 18 16 15 20 20 20

GFSCGP_sfc_dewp_054.txt.gz
Dewpoint
34 27 24 21 26 25 23 22 18 23 28 27 25 26 26 43 47 46 48 50 52 52 53 53 54 54 53 54 55 55 56 58 59 58 56 55 53 55 57 59 61 60 59 60
32 26 27 29 30 30 27 23 20 24 27 27 23 22 28 38 45 46 46 48 49 52 52 51 53 53 53 53 55 55 55 57 58 57 56 54 52 54 57 60 60 60 58 57
26 27 31 30 28 29 28 24 22 21 24 25 25 20 26 33 42 45 47 46 46 48 51 52 51 53 54 53 55 56 57 58 59 58 57 54 55 56 57 59 60 59 58 55
26 28 30 29 28 27 23 26 26 24 23 19 24 17 20 26 33 40 44 48 48 46 49 52 53 53 53 53 54 54 54 55 58 59 56 55 51 52 55 58 60 58 57 55
26 29 30 29 28 29 25 28 27 26 24 24 22 18 18 24 23 27 36 43 48 49 48 50 53 54 54 55 55 55 55 55 57 59 59 56 54 52 55 60 59 57 57 56
24 31 30 26 29 30 30 29 28 29 26 23 21 20 18 18 21 24 26 33 42 46 49 48 51 55 56 57 58 58 56 55 57 59 60 60 58 57 57 58 58 57 56 55
25 26 28 30 27 31 29 27 25 25 24 23 24 22 20 21 24 28 30 32 33 42 48 49 49 52 55 57 59 59 58 56 57 59 59 60 60 60 59 58 57 57 55 53
22 21 25 30 27 26 28 27 26 20 23 22 25 20 18 26 28 29 35 36 35 36 43 47 49 51 53 56 59 59 58 58 57 59 60 60 60 60 59 58 58 57 55 53
22 18 26 30 30 28 29 26 27 26 31 28 20 20 21 24 26 29 31 35 33 35 40 43 46 50 53 55 58 59 58 57 57 59 60 60 60 60 59 59 58 57 54 53
25 21 28 31 32 32 29 28 26 27 23 20 18 18 14 21 19 24 26 29 37 39 39 41 44 49 52 54 56 59 59 57 58 59 60 59 59 60 59 59 58 55 52 48
25 24 29 32 30 26 29 28 28 26 26 22 19 18 23 21 22 25 31 34 36 41 42 43 44 46 49 52 54 56 57 56 57 57 59 59 59 59 58 58 57 53 50 47
27 26 25 24 29 30 28 28 28 28 25 28 29 22 22 25 26 28 30 33 38 43 45 46 48 49 50 52 53 54 55 55 56 57 59 59 58 57 57 55 53 50 46 46
30 26 23 22 26 29 26 27 26 28 30 24 31 23 25 26 27 27 28 31 36 42 45 47 49 50 51 53 54 54 56 56 56 57 57 56 54 53 52 50 48 46 45 44
34 25 23 21 19 20 26 25 26 27 28 24 25 21 23 25 26 27 28 28 30 38 45 47 49 50 52 54 55 56 57 57 55 54 53 51 51 50 49 47 46 46 45 44
32 25 25 21 18 17 17 17 22 23 25 23 23 21 24 24 26 27 29 30 32 35 42 47 49 51 53 55 55 55 55 53 52 50 49 48 47 46 45 45 45 44 43 41
32 26 28 25 22 21 19 19 19 22 21 25 25 24 27 29 28 29 30 35 38 41 43 45 47 50 51 52 51 51 51 51 49 47 44 43 42 41 42 42 42 40 39 39
34 30 29 24 26 25 29 28 23 23 28 27 24 26 27 28 29 30 34 38 40 42 43 44 46 47 48 48 48 47 47 46 45 42 40 40 39 38 39 39 39 39 40 41
35 34 32 29 32 30 24 28 26 26 26 27 26 26 26 27 30 34 37 39 40 40 41 42 43 44 45 44 44 44 42 42 40 38 37 37 39 39 41 42 42 43 42 42
37 35 33 36 28 24 24 26 28 28 26 26 27 26 26 31 34 35 36 38 39 39 39 40 41 42 42 41 41 40 39 39 38 38 38 39 40 40 40 41 41 41 39 38
35 37 37 31 29 32 26 26 29 28 27 26 26 28 28 33 32 30 36 37 37 37 38 38 39 40 40 40 39 39 38 39 39 39 39 39 39 38 37 36 35 34 33 30
34 35 36 33 34 30 29 28 29 26 29 30 29 30 34 34 32 37 36 36 35 36 37 38 37 37 38 38 39 38 39 39 38 36 35 33 31 31 31 30 30 30 30 31
33 34 36 35 37 33 31 28 27 32 36 34 35 35 38 37 38 36 35 34 34 34 35 36 37 37 38 38 38 36 35 34 33 32 30 29 29 26 27 29 28 26 25 25
34 35 34 33 32 36 35 32 33 37 34 36 36 36 38 38 36 35 34 34 34 34 34 35 35 35 34 33 33 31 30 30 30 29 28 27 25 22 19 19 19 17 19 21
35 37 37 35 32 34 36 33 35 34 35 34 35 37 39 37 35 35 34 33 33 32 32 32 32 31 31 30 29 29 29 27 27 25 23 21 16 16 15 14 14 15 20 20
32 36 35 36 36 36 37 37 36 37 38 37 36 38 37 36 35 34 33 32 31 31 31 31 31 30 28 27 26 26 25 25 20 18 15 16 17 15 14 13 16 18 20 21
35 35 38 36 36 39 35 37 39 38 38 37 37 37 37 35 34 33 32 32 30 30 30 30 29 26 24 23 22 20 19 17 15 13 14 19 19 19 15 12 14 20 19 18

GFSCGP_sfc_dewp_060.txt.gz
Dewpoint
27 24 22 23 23 21 20 18 17 27 28 27 29 23 30 36 46 38 44 42 46 51 50 50 52 52 51 52 53 53 54 55 54 53 53 54 54 55 56 56 57 61 61 61
26 26 23 22 21 23 22 15 15 19 26 28 23 20 24 40 44 37 40 44 46 48 50 50 49 50 50 51 52 52 53 54 54 54 54 55 53 54 55 55 57 61 62 61
26 24 26 21 22 22 21 19 18 19 27 24 22 19 20 26 33 34 40 46 44 48 49 51 49 50 50 50 51 52 53 53 54 55 53 53 53 53 52 54 55 60 61 61
24 24 24 24 23 21 23 21 20 17 23 16 23 19 26 26 27 32 36 43 45 47 50 50 50 51 52 52 53 53 53 53 53 53 51 51 50 49 51 54 55 59 61 60
25 23 22 24 21 23 23 25 25 23 19 21 19 23 26 25 26 28 36 38 46 47 49 50 50 51 52 53 53 52 52 52 53 53 55 55 53 52 53 55 56 60 60 59
23 23 21 21 25 23 25 24 25 25 22 23 20 22 20 25 28 26 33 36 41 44 49 50 51 52 51 53 54 54 54 54 54 54 55 57 57 56 53 54 56 59 59 59
22 21 21 23 22 26 25 24 24 29 26 25 20 17 25 33 33 29 29 31 38 43 45 48 49 50 51 52 54 55 55 54 55 56 57 57 58 59 56 56 59 59 59 59
21 21 20 24 25 23 25 25 27 23 30 29 32 21 18 28 30 26 24 29 34 39 44 45 47 49 50 53 54 54 54 54 54 55 57 59 59 59 60 61 59 59 59 59
23 21 20 23 24 23 23 27 26 27 34 33 29 28 23 23 21 22 23 28 33 34 39 44 44 50 51 52 55 56 55 54 54 55 57 59 60 60 59 60 60 60 60 59
25 23 24 20 23 24 22 21 27 27 27 25 20 17 25 21 21 19 22 30 35 39 37 39 44 47 51 53 55 57 57 55 56 57 58 59 60 61 60 62 61 60 59 57
26 27 25 21 21 20 21 23 29 28 27 28 28 25 35 27 21 22 28 28 34 41 40 41 43 46 49 53 55 58 58 57 58 58 60 60 61 62 61 61 60 59 56 54
27 28 25 22 22 23 23 26 26 29 26 30 33 26 28 30 27 28 28 26 35 38 40 42 43 45 48 50 53 57 58 58 58 59 60 61 61 61 59 58 57 56 53 52
28 27 25 22 25 25 23 25 29 29 29 29 35 29 25 26 24 25 28 29 33 37 39 43 45 45 47 50 53 56 58 58 59 60 60 59 57 55 53 51 50 49 49 48
36 28 26 25 28 25 24 23 26 31 34 30 32 30 28 24 25 24 27 28 29 35 38 43 46 48 49 51 53 55 57 57 57 57 56 54 52 51 49 49 48 48 47 46
34 30 29 25 21 22 22 21 20 19 30 33 30 22 23 24 26 28 31 31 31 30 35 38 44 49 51 53 57 56 55 54 54 53 51 50 49 50 48 47 47 46 45 44
32 29 29 27 23 21 23 23 19 19 19 20 21 22 23 23 24 23 29 29 29 28 30 37 42 48 51 56 55 54 52 51 50 50 49 49 49 48 48 46 45 44 43 43
33 32 30 28 26 23 24 23 20 19 21 21 21 24 23 22 23 27 27 30 30 32 35 39 44 50 54 54 53 52 50 50 48 47 47 47 48 46 46 45 44 43 43 43
34 33 32 32 33 25 26 26 22 22 21 19 18 19 20 21 24 29 30 32 35 39 41 43 51 53 53 53 51 50 49 48 47 46 45 44 44 43 43 42 42 43 43 43
35 36 37 33 29 28 25 25 25 24 23 23 22 21 20 22 32 35 35 39 41 43 45 48 50 50 50 49 49 47 46 44 43 42 42 42 42 42 42 42 43 43 42 42
36 37 37 37 29 27 31 29 26 28 26 26 25 28 27 29 34 32 37 40 43 44 44 46 47 46 46 46 44 43 42 42 41 42 42 42 42 42 41 41 41 41 39 34
35 37 35 35 34 33 29 29 29 27 30 34 30 30 31 33 35 40 39 42 42 42 43 44 44 43 43 43 42 41 41 41 41 41 41 41 40 40 39 37 35 33 32 35
35 35 35 36 35 32 34 30 27 34 38 39 35 36 43 42 41 39 40 41 40 39 40 41 42 42 42 41 41 40 40 40 40 40 38 36 36 32 31 32 31 29 30 29
29 33 36 36 35 40 41 37 39 41 41 40 39 37 40 42 40 39 39 39 38 38 39 40 40 41 41 41 40 39 39 37 36 35 33 30 28 28 27 27 25 24 26 26
33 35 35 35 35 37 41 40 40 41 41 37 38 37 40 42 40 39 39 38 38 38 38 38 39 40 40 40 39 37 36 35 34 31 29 26 23 20 20 16 19 25 26 26
30 34 35 36 36 36 35 35 39 42 41 40 38 40 38 42 39 38 37 37 37 37 37 38 39 40 39 38 35 34 34 33 29 27 23 21 21 21 19 19 21 24 22 24
28 27 32 35 35 37 37 34 36 38 35 39 39 39 38 41 39 38 37 37 37 37 38 38 38 37 34 33 32 32 31 28 25 21 21 27 26 23 19 18 17 24 21 21

GFSCGP_sfc_dewp_063.txt.gz
Dewpoint
27 25 23 24 25 24 23 20 19 26 31 33 33 32 41 44 48 47 48 45 50 50 51 52 51 51 51 51 52 53 53 52 52 51 50 49 52 54 54 55 55 59 59 59
27 24 25 25 24 24 24 22 18 23 30 28 27 26 38 44 45 44 45 48 50 50 51 52 51 50 51 51 52 53 52 52 50 50 49 50 52 54 55 55 55 59 60 61
26 26 27 26 24 23 23 21 21 21 27 26 27 24 35 40 40 41 43 45 48 48 49 51 50 50 51 51 51 52 52 51 50 49 50 52 54 53 54 54 53 59 60 60
27 28 27 25 24 23 21 24 25 23 24 22 23 21 25 33 37 39 43 45 47 49 48 50 49 49 50 50 51 51 52 53 52 52 51 52 52 51 51 53 54 58 60 60
26 27 26 25 24 25 23 29 29 28 25 23 21 24 26 28 26 32 44 44 46 50 49 48 48 48 49 49 50 51 52 51 51 53 54 53 51 51 51 51 53 56 60 59
26 26 25 24 24 26 26 27 27 27 26 22 22 24 24 26 26 29 37 45 46 48 50 49 48 49 48 48 49 50 51 51 51 52 53 52 50 52 52 51 53 56 59 60
25 24 25 24 23 27 26 26 25 26 26 23 28 29 23 29 29 32 35 46 47 46 49 50 49 48 49 49 50 50 51 51 51 52 52 52 54 53 53 52 54 58 58 58
24 23 23 25 23 24 26 26 28 22 26 28 31 29 24 31 30 32 29 35 47 46 48 49 50 50 50 50 51 51 50 50 50 52 52 53 55 58 56 56 57 57 58 58
24 22 23 22 25 24 28 25 27 28 34 30 31 28 31 31 30 26 22 25 41 45 47 48 50 50 50 51 51 52 51 50 52 53 54 56 56 57 58 56 58 58 58 59
27 24 25 24 22 26 24 25 28 30 28 27 27 27 29 31 25 23 23 30 33 36 43 48 49 50 51 51 52 53 53 53 53 53 55 55 58 58 58 58 58 59 59 58
24 26 28 25 24 22 25 23 25 30 31 26 24 26 34 33 32 22 27 27 34 35 35 40 45 49 49 50 52 53 53 53 53 54 54 55 58 58 58 60 60 58 56 55
25 28 24 24 25 24 24 24 25 28 28 32 29 26 31 31 29 26 23 28 32 36 37 38 42 46 49 49 50 53 54 54 55 55 56 59 60 59 59 58 58 56 54 54
25 23 24 25 24 25 22 24 26 28 32 30 29 29 32 31 30 29 25 29 32 35 40 41 42 43 48 50 52 53 57 62 61 61 60 59 57 55 54 52 52 52 50 49
31 26 23 22 25 28 25 24 25 28 30 30 31 30 32 33 30 27 24 26 32 34 41 43 44 44 48 56 57 58 60 59 58 57 56 54 52 50 49 50 49 48 48 47
31 23 25 27 25 27 27 26 24 24 29 32 32 32 32 32 28 27 29 30 30 33 40 44 46 47 55 55 53 54 54 54 54 53 51 50 49 49 48 47 46 46 45 44
34 28 26 25 27 26 25 26 27 25 23 32 33 33 30 29 25 26 28 29 28 29 35 42 47 52 55 54 52 52 51 51 51 50 49 48 48 47 46 45 45 44 43 43
38 32 30 25 27 27 25 26 25 26 27 25 29 30 27 25 24 26 27 30 30 28 29 40 48 54 55 53 51 50 49 49 49 49 49 48 47 46 45 44 43 43 43 42
39 33 33 29 30 23 27 27 27 27 25 23 21 22 22 22 23 27 28 31 31 34 37 51 51 55 53 52 50 50 48 48 48 47 48 47 46 44 44 43 42 42 41 40
41 38 33 29 27 27 27 26 28 27 26 24 22 22 22 22 32 32 35 35 39 40 45 52 53 53 51 50 49 48 47 47 46 45 45 44 43 41 42 41 42 43 42 41
41 39 34 32 27 24 30 31 33 30 25 28 31 28 29 29 29 30 36 43 44 45 49 50 50 50 50 49 48 47 46 44 43 43 42 42 42 42 42 42 41 41 41 40
34 34 33 33 32 33 35 32 34 28 28 32 32 32 32 30 33 35 42 43 44 44 46 47 47 47 47 46 45 43 42 41 42 42 42 42 42 41 41 40 37 35 33 30
32 32 32 34 30 29 38 35 29 33 36 35 34 34 36 38 39 40 42 42 43 43 44 44 44 44 43 43 42 41 41 42 42 42 41 40 40 38 35 32 31 31 29 27
31 33 32 32 33 39 42 39 40 41 39 40 39 37 41 42 39 41 41 41 41 41 42 42 42 42 42 42 41 40 40 41 40 39 37 35 33 31 29 26 26 26 27 25
31 35 35 35 36 36 37 43 44 43 43 41 38 40 41 43 41 40 40 40 39 39 40 40 41 41 41 41 40 40 39 37 36 34 30 28 25 24 22 23 25 25 25 23
32 35 36 36 36 38 37 37 42 40 42 41 40 37 39 42 41 40 40 39 38 39 39 40 40 40 40 40 38 37 36 35 30 28 25 22 22 21 21 24 23 22 23 25
30 27 34 35 39 37 35 35 41 43 41 40 41 40 38 41 40 39 38 38 38 39 38 39 40 40 36 35 34 34 33 30 27 22 21 25 24 22 19 21 19 21 23 24

GFSCGP_sfc_dewp_066.txt.gz
Dewpoint
28 23 21 23 25 25 24 24 23 22 29 32 32 34 38 43 44 45 45 47 51 51 51 51 51 52 52 53 54 53 53 52 51 50 50 49 47 51 53 53 54 57 57 59
28 24 24 26 27 26 25 23 22 21 29 31 27 27 33 42 43 45 46 47 51 51 51 51 51 51 51 52 53 53 52 52 51 50 49 48 47 51 53 53 54 56 58 58
27 27 26 26 25 24 24 23 23 21 22 27 27 25 37 40 44 44 45 47 50 51 50 51 50 50 50 51 52 52 52 52 51 51 49 50 51 53 53 53 53 55 58 58
29 29 27 26 24 25 24 25 25 25 26 22 24 19 29 39 39 40 42 48 50 50 51 51 50 49 50 50 51 52 52 51 51 51 49 48 48 48 49 49 51 54 58 58
30 28 27 26 26 27 25 27 26 27 25 23 23 20 22 33 35 38 41 44 49 49 51 51 50 49 50 50 51 52 51 51 50 49 49 48 49 50 52 53 53 53 57 58
29 29 27 27 28 28 27 26 28 28 26 23 24 23 21 24 27 32 40 42 47 49 50 51 50 50 50 51 51 51 51 50 50 49 49 49 50 52 53 52 52 53 56 58
26 26 26 26 25 26 26 24 23 24 24 23 25 27 28 27 26 32 42 44 45 49 48 50 49 49 49 49 49 49 50 50 50 50 50 51 52 52 52 51 52 52 54 57
21 24 25 27 25 24 26 26 26 22 23 24 31 27 28 29 31 32 43 44 45 49 49 48 48 48 48 48 48 49 49 49 50 50 50 52 53 54 53 53 54 54 55 56
26 24 26 25 25 24 27 26 28 28 32 27 28 29 29 30 30 29 37 44 44 46 49 49 48 48 48 47 48 49 49 49 49 49 50 52 54 54 54 55 55 56 57 57
27 25 26 25 25 25 25 28 26 30 26 24 27 27 28 29 27 25 24 37 40 46 45 50 50 49 49 49 49 50 50 49 48 49 50 51 52 54 57 56 57 57 58 58
25 27 27 27 24 22 25 25 26 29 32 27 24 25 32 31 26 28 26 33 37 44 46 47 50 50 50 50 52 51 51 51 50 51 51 52 54 57 58 58 58 58 58 59
26 26 24 23 27 25 23 25 26 26 27 31 29 26 31 33 32 29 27 29 35 40 45 46 48 50 51 51 51 52 53 53 54 56 56 56 58 59 59 59 58 58 57 55
31 26 24 22 24 25 24 25 25 29 30 25 26 28 32 32 31 30 27 26 32 36 37 40 43 47 50 51 51 52 55 56 58 59 58 58 58 58 58 57 57 56 54 52
40 32 23 21 23 25 25 25 24 25 27 26 29 27 30 31 30 32 30 26 32 35 39 41 43 47 52 51 51 53 56 57 57 56 58 58 59 59 57 54 53 52 51 49
40 30 27 24 23 24 26 26 23 24 27 28 29 32 32 33 31 33 33 27 32 33 40 42 45 54 54 54 55 55 57 57 55 55 56 53 53 53 52 51 50 49 48 48
41 35 30 27 26 23 22 24 27 26 26 27 29 29 31 30 32 32 29 29 27 32 37 43 47 54 53 53 54 54 56 55 54 53 51 50 50 49 49 49 47 46 45 45
39 38 36 29 27 24 26 27 27 27 28 30 31 33 32 30 32 31 28 29 28 30 34 44 49 54 53 52 52 52 53 52 52 51 50 49 48 47 47 46 46 44 44 44
37 36 37 31 27 24 27 28 27 27 26 25 27 31 32 31 31 30 28 28 29 30 31 43 49 54 53 51 50 50 51 51 50 49 48 48 47 46 45 44 43 43 42 42
40 37 32 31 26 28 29 27 26 26 26 27 25 23 23 24 29 30 33 32 33 33 39 45 51 53 51 50 49 49 49 49 49 48 47 47 45 44 43 43 42 41 40 39
39 39 33 32 29 23 28 29 32 33 27 29 29 29 28 30 28 29 34 39 42 46 52 52 52 50 50 49 48 48 47 47 47 47 47 45 44 43 42 42 41 40 40 40
32 32 31 32 31 32 36 37 35 28 27 35 34 33 31 30 32 31 39 43 46 49 51 51 51 50 49 48 47 46 45 45 45 44 43 42 42 42 41 41 41 39 35 34
31 31 31 32 30 26 38 37 33 35 37 39 39 38 36 34 37 39 42 43 46 47 48 49 49 48 48 47 45 43 43 42 42 42 42 42 42 41 41 38 35 31 29 29
30 33 33 34 31 37 40 41 44 44 42 42 41 40 41 39 38 41 42 43 45 46 46 46 45 44 44 43 43 42 42 42 42 42 40 39 37 36 33 33 31 29 27 27
29 35 33 34 33 35 37 40 40 43 40 40 43 41 40 40 39 40 42 42 42 43 43 43 43 42 41 42 41 41 41 41 40 36 34 32 31 26 26 27 28 27 26 26
26 31 30 34 35 37 38 38 38 38 40 41 41 41 40 40 42 40 42 41 41 42 41 42 42 41 40 40 40 40 39 37 33 29 27 26 25 25 23 21 23 24 26 26
32 32 34 32 36 37 37 33 37 39 36 36 41 42 40 40 41 41 41 40 40 40 40 41 41 40 39 38 36 36 34 31 27 23 24 24 24 24 19 17 19 26 26 26

GFSCGP_sfc_dewp_069.txt.gz
Dewpoint
29 25 23 23 24 23 24 24 23 22 23 30 31 32 33 40 43 44 44 48 50 51 51 51 52 52 53 54 54 54 54 54 53 53 54 52 50 50 53 54 55 56 56 57
28 25 25 24 26 26 25 24 23 23 24 30 29 30 32 41 42 42 43 45 49 50 50 51 51 51 52 54 53 53 52 52 52 52 51 51 48 50 53 53 53 55 56 57
26 27 27 24 24 23 24 24 23 23 23 30 27 25 28 38 42 44 45 46 50 50 50 50 50 51 51 52 53 52 52 51 51 50 50 49 49 50 50 51 52 53 55 57
27 28 28 25 23 24 21 25 25 24 24 22 24 19 23 33 39 43 43 46 49 50 51 51 50 50 50 51 52 52 52 52 51 50 49 48 47 44 44 47 48 50 55 57
26 29 27 27 26 26 24 29 27 27 25 23 23 20 21 32 35 38 41 43 47 50 51 50 50 50 50 50 51 52 52 52 51 51 50 48 47 47 47 48 50 51 53 56
25 30 29 28 28 28 28 28 28 29 26 22 23 22 22 24 30 34 39 41 45 50 51 51 51 50 50 50 50 52 52 51 51 51 50 49 48 48 49 51 52 52 53 55
23 26 28 28 26 29 28 25 23 22 21 21 24 24 23 26 26 29 32 40 43 48 50 50 50 50 49 49 50 51 51 51 51 51 50 49 48 49 50 50 52 50 51 53
19 20 24 28 26 25 26 25 25 20 22 22 29 28 28 31 32 31 30 37 41 47 49 50 51 50 50 50 50 50 51 51 50 50 50 50 48 49 51 53 53 53 53 53
22 20 26 25 26 26 26 25 26 25 30 27 27 27 28 29 30 29 38 40 42 45 48 49 51 50 50 50 50 50 50 50 50 50 50 49 50 50 52 53 54 54 55 55
28 25 27 26 26 26 26 28 25 28 23 23 25 27 26 28 28 25 32 43 44 44 48 48 50 51 50 50 50 51 50 49 49 50 50 49 50 52 53 54 54 55 55 57
24 27 26 28 26 24 25 24 27 28 29 24 24 25 30 31 32 26 25 38 44 45 48 49 49 49 50 49 49 50 50 48 48 48 49 50 51 53 54 54 55 56 57 58
28 27 23 23 25 26 25 25 27 25 24 30 27 25 30 32 32 32 30 29 35 43 46 47 50 50 48 49 49 49 50 50 51 50 50 51 52 53 54 55 57 57 58 58
36 30 23 23 25 25 23 25 26 29 29 25 26 25 31 32 32 33 30 27 28 35 44 46 46 50 50 49 49 50 51 52 53 52 51 52 53 53 54 57 57 58 57 56
42 34 32 25 23 24 25 23 25 26 26 24 25 25 26 30 31 30 31 31 30 29 37 41 45 48 50 51 50 51 52 52 53 53 54 53 54 55 56 58 58 58 55 54
42 35 35 35 32 28 24 24 24 23 25 24 24 26 27 29 30 31 31 33 29 30 35 40 41 44 47 50 51 52 52 54 54 53 54 54 55 56 58 57 55 52 52 51
41 36 37 33 31 27 24 23 25 25 25 25 26 28 33 33 32 32 33 32 29 30 33 40 43 52 52 52 51 51 53 54 55 55 55 56 55 55 55 53 51 50 49 48
39 36 35 30 33 32 28 27 23 23 28 27 26 29 31 31 31 32 32 33 32 29 31 39 44 52 53 53 53 53 55 55 55 55 53 53 53 51 50 50 49 48 47 46
37 35 34 32 31 27 32 30 27 26 25 28 29 30 31 32 32 32 33 32 31 30 30 35 44 52 52 51 54 54 54 54 53 52 51 50 50 49 48 48 46 45 45 44
39 35 31 28 28 30 26 30 29 27 26 28 27 27 26 26 28 26 30 31 32 32 31 33 43 52 50 52 52 52 52 52 51 50 50 49 48 47 46 45 44 44 44 44
39 37 32 31 27 23 21 31 29 32 27 30 28 30 29 29 26 28 29 34 33 34 43 49 51 50 50 49 51 51 51 51 50 49 48 48 47 45 44 44 43 42 42 41
32 32 32 31 30 29 34 33 37 32 29 36 36 34 30 29 31 31 34 38 41 46 50 50 50 50 49 49 49 49 50 49 49 49 47 46 45 44 44 42 41 41 40 35
30 30 27 32 29 22 38 39 38 37 40 41 40 39 40 39 38 38 38 39 46 49 50 50 49 48 48 48 48 47 47 45 46 45 44 43 43 43 42 40 38 37 35 30
28 30 29 30 30 35 35 39 41 44 43 42 42 41 40 39 38 39 41 43 45 47 49 50 48 47 47 48 47 45 42 43 43 43 42 42 42 41 39 36 33 32 31 30
28 34 32 34 32 34 33 37 41 43 42 42 42 41 40 39 40 40 40 43 43 45 45 45 46 45 43 43 43 43 42 42 42 41 39 37 34 32 33 32 30 29 29 28
28 30 29 29 30 34 37 37 37 38 40 40 41 40 39 39 39 41 41 43 43 44 44 44 44 43 41 41 42 42 42 40 37 35 32 30 29 26 25 25 26 26 27 28
37 36 33 30 38 39 34 37 37 38 38 38 40 40 40 39 39 40 40 41 42 42 43 42 41 41 40 40 39 39 39 35 32 28 28 28 26 25 23 23 23 28 28 28

GFSCGP_sfc_dewp_072.txt.gz
Dewpoint
32 29 26 26 26 22 21 22 22 22 23 24 23 26 28 34 43 43 44 48 50 50 50 51 52 53 53 54 55 56 56 56 56 55 52 54 55 56 57 56 54 53 53 53
26 27 28 28 26 24 24 22 22 23 24 23 23 26 28 36 39 42 42 44 48 50 50 50 52 50 53 52 54 54 54 54 55 55 54 55 53 53 54 55 56 56 55 55
26 27 28 24 25 23 24 22 23 22 23 25 26 26 25 29 39 42 43 43 46 50 49 49 50 49 51 52 53 53 53 53 53 54 53 52 52 53 52 53 53 55 56 57
27 26 27 25 23 22 20 25 24 23 23 21 26 21 22 23 30 40 42 44 45 49 50 50 49 49 50 53 53 53 52 52 51 50 50 49 49 49 49 50 51 52 55 56
26 28 26 27 25 24 21 26 25 25 25 24 23 20 22 27 27 28 37 42 45 49 50 50 50 50 50 50 52 52 52 51 50 50 50 49 48 48 46 48 48 49 52 54
24 30 28 25 27 26 28 28 28 29 26 23 24 22 22 23 26 26 34 39 43 47 50 51 51 50 50 51 51 52 51 51 51 50 49 49 48 48 47 47 48 50 51 52
23 25 28 28 27 29 27 25 23 22 23 23 24 23 22 24 25 27 29 32 40 44 50 50 50 50 49 49 51 51 52 51 51 51 50 49 48 48 48 47 48 48 50 51
19 20 25 28 27 26 27 26 25 20 21 21 28 24 26 30 31 32 30 29 36 44 49 50 50 50 50 49 50 51 51 51 51 51 50 50 49 49 49 49 50 51 50 50
23 20 22 26 28 26 26 25 27 23 28 27 25 27 26 28 28 29 30 34 35 43 49 50 50 50 49 49 49 50 51 51 51 51 51 50 50 49 49 51 52 52 52 53
26 23 27 26 26 28 26 28 25 27 21 22 24 26 24 26 26 29 26 38 40 43 48 49 50 51 50 50 50 50 50 51 51 51 51 50 50 50 50 51 52 53 54 53
26 26 25 28 25 24 25 25 26 27 27 22 21 23 30 27 30 30 28 26 42 44 45 48 49 51 51 50 51 50 50 51 50 50 50 50 50 51 51 52 53 54 54 54
31 26 22 20 25 26 26 26 25 24 22 29 25 22 28 30 31 32 32 32 30 45 45 48 49 50 51 50 50 50 51 51 51 50 50 50 51 51 51 52 52 53 54 55
38 32 24 23 24 26 24 25 27 29 28 23 25 24 31 30 29 31 33 32 29 34 40 46 49 49 49 50 49 49 50 51 51 51 50 51 51 50 50 51 52 54 55 55
40 35 32 28 29 33 29 26 24 25 25 24 24 24 26 28 30 29 29 32 31 29 33 43 46 49 50 49 49 49 50 50 50 51 50 50 50 50 50 51 53 55 56 56
37 33 36 36 36 34 33 31 28 23 24 23 24 24 26 27 27 27 30 32 32 31 30 37 44 46 50 50 50 50 50 50 51 50 50 50 50 50 50 53 55 55 56 56
40 31 35 33 35 33 31 32 28 26 25 24 25 25 27 28 28 29 30 30 32 31 31 32 39 43 48 50 51 50 51 51 51 51 51 51 51 52 53 54 55 56 56 55
35 35 33 27 34 31 26 30 28 27 26 26 25 27 29 30 32 33 32 33 33 33 32 32 36 41 44 47 50 51 51 53 52 51 51 52 52 53 54 55 54 52 52 50
34 34 33 28 30 23 25 34 27 30 30 28 26 28 29 29 31 32 33 32 33 33 33 32 35 41 48 51 51 51 52 53 53 53 53 54 54 54 51 50 50 49 48 48
38 34 30 24 27 26 24 22 30 27 26 26 30 29 28 28 28 26 30 34 34 34 34 34 34 40 49 52 52 53 53 53 53 54 53 53 53 50 49 48 46 46 46 45
35 35 30 31 25 21 21 27 32 32 22 33 36 34 30 28 28 29 30 30 32 33 33 33 39 49 50 51 53 53 53 53 53 52 51 50 49 48 47 46 44 45 44 42
33 32 30 30 28 28 31 37 38 29 24 40 40 39 38 30 31 32 37 37 37 42 44 47 49 49 50 52 52 52 51 51 51 50 49 48 48 47 46 44 43 42 39 36
29 28 30 31 29 25 34 39 35 38 38 39 41 41 39 39 39 39 39 40 42 46 49 50 48 48 50 50 51 51 50 49 49 48 47 47 46 44 42 41 40 37 35 33
26 28 28 29 28 33 35 34 39 41 36 38 41 42 42 39 38 39 39 41 44 47 47 49 48 47 48 49 49 48 46 47 45 44 44 43 42 41 40 38 36 35 33 31
27 33 32 31 26 31 30 35 38 41 41 39 40 43 43 40 39 39 40 41 43 45 47 47 46 46 45 46 45 44 44 44 44 42 41 39 38 36 36 36 35 34 32 30
26 30 29 28 29 35 32 33 38 39 40 43 44 42 40 39 38 39 41 42 43 44 45 45 44 44 43 43 43 43 43 43 40 37 35 34 32 30 28 28 30 31 31 31
35 32 30 28 37 36 37 39 41 41 39 39 41 41 40 40 39 39 37 41 42 43 44 44 42 41 41 41 41 41 40 38 35 32 31 31 30 29 28 27 27 30 29 29

GFSCGP_sfc_dewp_075.txt.gz
Dewpoint
36 29 29 29 27 21 21 20 17 21 23 23 20 20 23 28 40 41 44 47 51 53 54 53 53 53 53 55 56 57 57 57 57 57 57 57 57 58 58 57 54 53 51 53
30 30 31 30 28 25 23 21 20 21 24 24 21 21 23 28 33 36 39 44 48 52 52 52 52 53 53 53 54 56 56 56 56 56 56 57 57 58 58 57 55 54 53 53
26 28 30 28 27 26 25 24 22 19 23 23 24 22 26 27 34 38 41 42 44 50 51 51 52 50 53 51 52 53 55 56 55 55 55 55 55 56 56 56 56 54 54 53
26 27 28 26 25 26 25 25 23 22 21 13 26 18 25 25 25 31 34 43 43 47 51 51 50 50 51 52 53 55 55 55 55 55 54 54 53 53 55 55 55 55 54 55
26 27 27 26 25 25 22 26 24 23 21 22 19 21 23 25 24 25 28 37 44 46 50 51 51 50 50 52 53 53 54 54 54 55 54 53 54 54 56 55 55 55 55 54
26 29 27 24 27 25 27 26 27 29 26 23 24 23 22 23 25 26 29 33 42 47 49 51 52 52 50 51 53 53 53 53 53 54 54 53 53 53 51 52 52 52 54 55
25 24 28 29 25 28 26 26 22 24 25 21 25 24 24 26 26 27 29 29 34 46 49 50 51 51 50 50 52 51 52 52 53 52 53 53 53 52 51 51 52 51 52 53
17 20 25 29 28 27 27 26 24 16 22 22 25 22 22 29 31 30 32 33 33 43 49 50 51 51 51 51 51 51 51 52 52 52 52 53 52 51 51 51 50 52 52 53
18 16 23 28 29 28 28 26 28 25 28 27 24 26 26 27 28 29 30 31 35 38 46 49 51 51 51 51 52 52 52 52 52 53 52 52 53 52 52 52 53 54 54 54
26 21 25 24 27 28 27 29 26 27 20 18 22 25 22 26 26 29 31 31 31 41 45 49 50 51 51 52 52 52 52 52 52 53 52 52 52 53 53 54 54 54 55 54
26 26 25 28 25 23 26 26 27 27 27 21 19 23 32 30 30 31 34 34 33 38 45 49 50 51 51 52 52 52 52 52 52 52 53 53 53 53 53 53 53 53 55 54
35 27 22 20 25 26 27 27 28 26 23 29 27 23 29 33 32 35 34 34 36 34 43 47 50 51 51 51 51 51 51 52 54 53 53 53 53 53 53 53 53 54 54 54
34 32 24 23 25 29 27 26 27 30 28 25 27 23 30 32 32 32 33 34 34 35 36 47 49 51 51 51 51 51 52 53 53 52 53 53 54 53 53 53 53 53 53 54
39 34 34 26 30 34 33 33 33 29 27 25 25 25 26 28 31 31 33 34 33 34 32 39 48 50 51 51 52 52 53 53 53 53 53 53 53 53 53 53 53 54 54 54
35 28 29 31 27 29 30 32 31 30 29 26 25 23 25 28 29 31 32 32 31 33 34 34 40 46 50 51 51 51 52 53 53 52 52 52 53 53 53 53 53 53 54 54
30 32 35 32 30 27 30 31 26 30 30 27 26 25 27 28 29 30 30 30 30 32 33 34 35 41 47 51 51 51 51 52 53 52 52 52 52 52 52 52 53 53 54 54
28 35 33 27 32 32 26 25 29 26 28 29 27 28 29 28 30 33 32 33 33 33 34 35 35 38 44 48 52 51 51 52 52 52 52 52 52 51 52 52 52 54 55 56
27 27 34 29 31 23 23 30 31 29 30 29 28 28 30 29 31 31 34 34 36 35 36 37 37 40 41 45 50 52 52 52 52 51 51 51 52 52 52 53 54 55 56 55
31 29 32 29 27 26 22 21 24 28 25 37 34 37 37 37 33 31 31 34 36 37 37 37 38 38 40 45 48 51 52 52 52 52 52 52 52 53 53 54 53 51 50 49
33 34 34 30 26 22 23 28 36 31 27 37 39 40 40 37 35 34 38 39 37 36 36 37 37 36 40 48 51 50 51 52 53 53 53 54 54 51 50 48 48 47 47 45
30 34 30 29 27 28 32 32 39 26 27 36 37 38 40 38 38 39 41 41 42 43 48 49 47 46 48 52 53 52 53 53 53 53 52 51 51 50 49 47 45 44 41 38
28 27 28 29 27 24 32 36 31 33 39 38 35 36 41 42 41 40 40 41 42 45 49 50 49 49 51 52 53 52 52 51 51 50 50 49 48 47 46 44 41 38 36 34
28 32 31 31 29 33 36 35 35 39 38 38 37 36 37 41 41 41 40 41 41 44 48 48 48 47 48 50 51 49 49 49 48 47 46 44 43 42 41 39 37 35 34 33
31 33 31 31 30 32 31 33 39 41 41 41 41 40 39 42 43 42 41 42 41 43 46 48 47 46 47 48 48 48 47 46 45 43 42 41 39 37 37 36 36 34 33 32
27 31 30 30 30 35 32 39 40 40 41 40 40 41 42 43 41 40 40 41 43 44 46 46 46 45 44 44 45 45 45 44 41 39 37 35 34 32 31 31 32 32 32 32
33 31 31 27 35 35 36 39 39 37 39 37 34 33 34 34 37 39 37 37 39 41 43 42 42 40 39 39 40 41 41 40 37 35 34 33 32 31 30 29 28 30 30 30

GFSCGP_sfc_dewp_078.txt.gz
Dewpoint
30 26 25 24 24 22 20 19 17 15 17 20 18 17 16 18 26 32 35 40 43 47 51 54 55 55 53 54 55 57 58 58 58 58 58 58 57 57 56 55 52 51 49 51
29 26 22 25 26 25 23 19 18 17 20 21 16 14 15 19 24 28 28 37 41 46 50 54 54 54 54 54 55 57 57 57 57 57 56 58 58 58 56 55 52 52 52 53
25 22 24 26 28 25 24 21 20 18 19 20 18 16 12 15 25 29 33 35 38 45 49 52 54 54 54 53 54 55 57 57 57 57 56 58 58 58 56 56 54 53 53 53
22 22 24 27 25 24 21 21 22 22 20 16 20 12 13 19 22 23 27 35 39 41 48 51 53 53 54 53 54 55 56 56 56 57 56 57 56 55 56 54 54 54 53 53
23 22 20 23 25 23 22 21 22 21 21 21 18 15 14 21 22 23 24 27 37 41 46 49 52 52 52 53 53 55 56 56 56 56 56 55 55 56 57 56 55 54 54 54
27 26 24 22 26 26 24 24 24 24 22 21 21 15 16 15 21 22 22 24 33 41 45 48 51 52 52 53 55 54 54 55 56 56 55 56 55 55 56 55 54 54 53 53
22 24 26 27 21 25 23 24 22 24 23 20 20 19 19 23 24 24 25 26 31 40 45 48 50 51 52 52 53 53 54 54 55 56 55 56 56 55 55 55 54 53 53 52
15 18 24 27 24 24 25 25 23 18 21 21 23 20 20 24 26 28 29 29 32 37 45 47 49 51 52 52 53 53 53 53 54 54 56 56 56 55 56 57 55 54 53 53
11 12 20 22 26 25 28 26 26 23 26 24 20 24 24 24 23 24 28 30 31 35 42 46 48 51 52 52 53 53 52 52 54 55 55 56 56 56 55 56 56 55 54 53
23 15 16 21 24 25 26 26 26 26 23 21 19 20 20 23 23 25 28 31 31 36 39 45 47 50 52 52 54 54 53 52 53 54 55 54 54 55 55 56 56 56 56 55
21 26 26 24 24 23 25 25 26 24 25 22 20 20 25 24 25 26 29 30 33 36 43 44 47 49 51 52 53 53 52 51 52 53 54 54 54 55 56 56 56 56 56 55
30 26 22 23 24 24 25 25 25 24 23 25 25 22 24 29 32 32 32 32 32 34 40 45 47 49 50 52 52 53 53 52 52 53 54 56 55 54 56 57 57 58 56 56
30 26 18 17 20 24 24 25 25 26 26 24 29 24 25 26 29 31 29 28 28 31 34 43 47 49 50 51 52 52 54 54 53 52 54 55 56 54 54 54 55 54 54 54
34 36 31 19 25 30 30 31 31 31 28 25 24 23 25 26 25 26 27 28 29 31 30 35 44 48 50 51 51 52 53 54 54 53 53 54 55 55 54 54 53 54 53 52
32 25 30 30 30 27 28 27 28 27 29 29 26 25 24 25 26 27 28 29 29 28 29 32 36 45 48 51 51 52 53 54 54 53 53 54 54 54 54 54 54 54 54 52
30 23 24 22 24 21 21 22 24 25 24 26 29 27 28 29 28 28 28 29 29 28 29 31 32 34 43 48 51 52 52 53 54 54 54 54 54 53 53 54 54 54 55 53
27 31 28 22 24 22 24 25 23 22 28 29 26 22 28 27 25 28 29 29 30 32 32 33 33 34 37 42 49 51 52 53 54 54 53 53 54 54 54 53 53 53 53 54
26 29 32 27 32 22 21 24 25 27 24 27 25 26 34 34 34 34 30 31 32 33 34 35 35 37 38 40 44 50 50 51 53 53 52 53 53 53 53 53 53 54 54 54
29 28 30 27 22 19 18 20 23 25 21 34 33 34 36 37 36 34 38 40 40 40 39 36 36 37 38 38 40 45 48 50 51 51 52 52 52 52 52 52 53 54 54 55
29 30 29 30 21 20 24 29 33 29 21 31 34 32 32 35 36 36 38 40 40 41 43 44 47 45 42 39 40 43 46 49 50 51 51 51 52 52 52 53 53 54 55 54
28 29 28 27 27 25 26 25 34 24 27 31 31 30 30 32 34 39 39 39 39 39 43 49 50 48 48 48 48 46 46 47 49 51 52 52 53 54 54 54 52 49 44 41
26 27 29 28 26 24 32 30 27 31 33 34 35 36 39 39 38 37 40 40 40 39 43 47 49 49 50 51 51 49 48 51 53 54 54 54 54 52 50 47 45 42 40 36
26 26 26 25 25 32 37 33 36 40 40 40 41 40 40 41 38 38 41 42 40 40 43 47 49 49 49 50 51 51 51 52 53 52 50 48 47 45 45 43 41 38 38 36
27 30 31 29 27 26 31 35 39 39 39 40 39 38 41 41 42 41 41 40 41 42 45 47 48 48 46 47 47 49 48 49 46 44 42 41 40 39 38 37 37 36 35 33
25 28 25 25 26 30 29 37 39 39 39 39 37 36 36 36 38 38 40 38 38 41 43 45 47 45 44 43 42 43 44 44 41 39 39 37 35 33 31 31 33 33 33 33
25 26 28 25 36 36 35 37 39 38 37 37 35 33 33 32 33 33 33 34 34 35 35 35 35 36 36 35 35 36 38 39 37 35 34 33 33 32 30 29 29 31 31 31

GFSCGP_sfc_dewp_081.txt.gz
Dewpoint
19 18 16 18 22 20 20 19 18 19 18 18 19 16 16 19 18 21 25 27 34 40 44 50 53 54 54 54 54 56 58 59 59 58 58 57 56 56 55 52 52 53 52 52
15 21 19 18 20 22 22 21 20 20 19 20 19 17 16 15 15 17 22 24 31 35 41 49 53 54 55 54 54 55 57 58 58 58 58 57 56 56 55 52 49 50 51 49
18 21 25 21 20 21 24 24 23 21 20 19 20 19 19 19 18 18 21 25 26 33 39 49 52 54 55 54 54 54 57 57 57 57 58 57 56 56 54 54 48 49 53 53
25 25 26 25 22 22 25 25 23 21 21 18 20 16 18 16 14 15 24 26 28 30 38 46 52 53 54 54 54 55 56 57 57 58 58 56 54 52 53 52 52 50 53 55
30 25 25 23 23 24 25 24 22 21 22 23 20 17 19 20 16 18 22 24 26 32 36 44 50 52 53 54 54 55 56 56 56 57 57 57 55 54 54 54 51 50 52 52
24 30 27 25 22 23 25 22 23 23 22 20 21 20 19 18 19 21 22 22 25 31 36 43 49 52 52 54 54 55 56 56 56 57 57 57 56 56 55 53 52 52 51 53
28 23 28 29 23 23 24 23 21 22 22 21 21 20 21 20 21 22 23 24 25 30 37 42 47 50 51 53 54 54 55 54 56 56 56 57 57 56 55 54 52 52 52 52
27 23 21 28 25 22 23 23 21 20 24 23 22 19 19 21 23 23 23 25 27 31 36 39 45 49 50 52 54 53 54 54 55 56 56 56 57 57 56 55 53 53 52 51
27 21 22 25 26 27 27 23 23 27 27 25 24 23 24 23 22 23 25 27 27 28 32 39 44 49 50 52 53 53 53 53 55 56 56 57 57 57 56 56 56 54 53 51
23 23 19 21 26 29 27 27 25 25 24 22 21 21 22 23 23 24 26 29 30 30 33 39 42 48 50 52 54 54 52 52 54 55 56 56 57 57 57 58 57 57 56 56
21 22 30 16 21 24 25 24 30 30 27 25 25 24 27 25 24 25 28 29 31 34 37 39 43 46 50 52 53 54 53 50 52 54 55 56 57 57 58 58 59 58 58 57
25 26 22 22 19 22 24 24 26 28 27 27 27 26 25 28 31 31 31 29 30 31 34 41 42 46 48 50 52 53 53 51 53 53 55 57 58 57 58 57 58 59 58 57
26 23 19 28 25 23 22 22 24 27 27 28 33 26 26 28 25 27 28 29 29 29 31 36 44 45 47 49 51 52 54 54 52 52 54 57 58 57 57 57 57 58 57 56
34 30 27 23 23 26 23 24 23 25 27 25 25 25 26 26 25 26 27 28 29 30 29 29 38 44 46 48 50 52 53 55 54 52 53 55 57 57 56 57 57 57 57 56
28 27 29 30 30 27 27 27 27 26 27 27 27 26 26 26 26 26 27 28 28 28 29 29 30 36 45 48 49 50 52 55 55 53 52 54 57 56 55 56 56 57 57 56
26 22 24 24 24 24 22 22 24 24 25 25 24 24 26 28 28 28 28 27 28 29 29 29 31 31 34 45 48 50 51 53 55 55 55 54 55 55 56 56 56 56 56 56
26 26 20 23 23 25 26 24 22 21 22 23 23 26 25 25 27 29 30 29 28 29 31 32 34 35 34 34 45 49 50 52 53 54 54 54 55 55 56 55 55 55 56 56
27 25 26 26 26 21 22 21 22 23 22 25 27 25 27 28 30 31 36 38 38 37 38 38 37 37 37 38 38 44 48 51 52 52 53 54 55 55 55 55 54 55 56 56
29 28 26 25 20 18 15 18 18 20 21 29 28 28 30 31 33 34 38 38 39 39 39 40 41 43 44 42 39 39 43 47 50 52 52 52 54 54 55 55 56 56 56 56
27 30 28 27 22 18 18 22 25 25 21 30 30 30 29 29 29 32 36 37 39 39 39 41 44 46 46 47 47 41 39 42 47 51 52 52 53 54 54 55 56 56 56 56
28 30 28 27 25 21 29 25 29 24 27 32 31 32 34 34 34 36 35 35 38 39 39 41 45 47 49 50 50 49 46 44 44 47 51 52 52 53 54 55 56 56 53 47
27 29 29 28 28 23 24 25 28 35 35 35 35 36 37 38 38 36 34 35 38 38 38 41 45 48 50 50 50 50 49 52 54 53 50 51 52 52 53 55 54 49 45 39
29 25 27 24 24 31 36 36 37 38 37 38 38 36 37 38 39 40 39 39 39 39 41 44 45 48 47 47 47 49 49 52 53 53 50 48 46 46 46 46 44 41 40 37
26 30 31 35 31 32 37 37 38 37 38 37 37 37 37 37 38 37 39 39 38 38 40 42 42 41 40 40 40 41 44 45 44 43 42 41 40 38 38 38 39 39 37 35
25 31 24 25 29 27 31 36 38 36 37 36 37 37 36 36 35 35 36 36 36 36 36 37 36 35 35 36 36 36 40 41 39 38 36 35 33 32 31 31 33 33 33 33
25 30 28 30 36 36 34 35 38 36 36 36 36 35 35 34 33 34 34 33 33 34 33 33 32 31 31 31 32 33 36 36 35 33 33 32 31 31 30 29 28 31 31 31

GFSCGP_sfc_dewp_084.txt.gz
Dewpoint
19 21 21 21 28 26 23 21 19 19 20 21 20 17 17 20 22 26 26 27 28 35 42 48 52 54 55 56 55 58 59 59 59 59 57 56 55 56 55 55 55 55 55 55
25 20 20 19 17 22 24 22 21 23 21 21 19 18 19 19 19 20 20 23 27 32 37 48 52 54 55 55 55 58 57 58 58 58 58 57 55 55 54 54 53 54 53 54
32 30 25 23 21 17 19 23 22 21 22 21 20 19 20 21 21 21 20 20 23 28 35 48 52 54 56 55 55 57 57 58 58 58 57 56 55 54 53 52 52 53 53 52
38 35 30 31 30 29 23 23 22 23 23 22 22 18 21 21 22 22 23 24 25 28 35 46 52 53 55 55 56 55 56 57 57 58 56 55 53 51 50 49 50 51 52 52
34 33 32 32 30 34 30 27 28 29 26 25 20 19 20 20 19 19 20 22 29 31 34 43 52 53 54 56 55 55 55 57 57 58 56 55 53 50 51 49 48 49 52 53
33 33 34 36 33 31 35 33 31 30 27 23 21 21 21 20 22 20 20 24 29 30 34 38 52 53 53 55 55 55 55 56 57 58 56 55 53 51 52 49 47 48 51 53
27 28 29 28 34 31 27 29 29 27 25 23 21 20 22 23 23 22 23 25 29 34 37 39 50 51 52 54 55 55 55 55 56 57 56 55 53 52 52 50 49 48 50 51
27 26 29 30 27 30 28 25 29 24 26 24 21 19 20 24 24 24 23 29 35 31 39 40 47 51 52 54 54 54 54 54 56 56 57 57 55 53 52 52 51 49 49 49
25 28 25 29 28 32 32 27 26 27 29 31 31 22 23 23 23 23 24 28 30 33 35 38 44 51 52 53 55 54 54 54 55 55 56 56 56 55 54 53 52 51 50 49
21 24 25 26 26 29 30 31 29 31 26 29 25 23 22 25 24 26 28 32 33 34 32 35 39 51 51 53 55 55 54 54 54 55 55 56 56 56 55 55 53 52 51 50
21 24 22 27 28 30 28 32 35 34 30 33 31 28 34 31 30 31 33 32 35 37 39 40 41 49 51 53 54 55 53 53 54 56 55 55 56 57 57 56 55 53 52 52
30 29 21 22 30 25 30 30 32 34 34 32 34 32 33 36 31 32 34 31 34 35 37 42 43 46 50 52 53 54 54 52 54 55 56 56 56 56 57 57 56 55 53 52
25 25 21 22 24 24 23 30 31 33 35 35 34 31 33 32 32 30 31 31 31 33 34 39 44 45 48 50 52 53 55 54 53 54 55 57 57 56 56 56 57 57 55 54
32 27 27 29 32 36 26 24 30 31 31 33 34 35 35 34 34 32 33 35 31 32 31 32 38 45 47 49 51 53 55 55 53 53 54 55 56 57 56 56 56 57 58 57
26 27 26 24 34 34 34 34 35 26 30 30 30 30 34 35 31 29 30 29 29 28 29 31 32 36 46 48 50 52 53 56 55 52 52 54 56 56 56 57 57 56 57 57
26 24 24 22 25 23 23 30 26 34 34 29 28 26 35 35 27 28 29 29 29 32 35 37 37 37 38 41 48 50 52 54 55 54 53 52 54 55 56 56 56 56 56 56
26 25 23 21 22 25 26 26 23 21 22 23 23 26 28 26 26 29 32 37 37 38 38 39 39 40 41 41 44 50 51 53 55 55 55 54 53 54 56 55 55 55 56 56
26 25 25 25 24 23 25 25 23 25 23 22 23 35 29 29 29 35 38 38 39 39 40 41 43 45 46 46 46 46 44 52 53 53 54 55 55 53 54 55 55 55 55 55
28 27 28 25 22 20 17 17 17 18 18 30 32 34 32 30 31 40 38 39 38 41 41 41 44 46 49 49 49 49 48 42 50 52 53 54 55 54 54 54 55 55 55 55
27 31 29 28 21 18 17 16 25 22 20 32 32 33 31 31 33 36 35 34 34 37 40 40 45 48 49 50 50 50 49 49 47 49 52 53 54 54 55 55 55 55 55 55
27 29 28 28 25 22 20 26 28 23 30 35 35 35 35 35 36 38 38 35 35 38 39 44 46 48 47 47 48 50 51 50 52 54 54 53 53 54 54 55 55 56 55 51
25 28 28 28 25 23 26 25 28 36 38 36 36 35 36 35 36 38 39 39 41 40 41 44 47 45 42 41 42 44 44 46 48 50 49 48 49 51 53 54 49 48 45 40
27 26 26 25 25 28 37 38 38 37 37 36 36 35 36 37 36 36 38 38 37 37 37 38 39 40 39 38 37 38 39 43 43 41 40 40 41 41 42 46 45 42 40 37
34 30 35 32 36 39 42 39 36 36 36 36 36 36 36 36 36 35 36 36 36 35 34 35 36 35 34 34 34 34 36 40 38 36 35 34 33 33 34 35 36 36 36 34
32 35 30 32 36 40 40 39 38 35 35 34 35 35 35 35 34 34 34 33 32 32 32 32 32 31 31 31 32 33 35 36 35 34 33 32 31 30 28 28 30 31 32 34
36 35 35 36 34 37 37 36 36 35 34 34 33 33 34 33 33 33 32 30 29 28 28 28 28 28 28 28 29 30 34 34 33 32 31 31 30 30 28 27 26 30 30 30

GFSCGP_sfc_dewp_090.txt.gz
Dewpoint
23 10 10 15 21 27 27 26 26 28 30 31 27 24 24 24 24 22 20 22 22 32 37 48 53 53 60 60 60 59 58 58 58 57 56 56 55 55 56 56 58 61 62 61
24 18 15 17 21 22 24 25 27 29 29 29 29 28 30 30 28 21 22 28 27 30 40 49 53 54 58 59 59 58 58 58 57 56 57 56 55 55 55 56 57 60 60 61
24 27 26 22 21 19 24 24 25 25 29 30 33 30 29 30 28 23 24 26 28 30 40 49 52 53 57 58 58 57 57 57 57 57 56 56 55 54 54 54 55 58 59 59
32 37 37 37 34 31 24 27 26 25 35 30 33 28 31 31 30 29 23 23 26 28 38 49 51 52 56 57 57 57 57 57 57 57 55 54 53 52 53 53 54 57 58 58
31 36 36 35 36 34 30 28 28 31 35 34 33 33 31 31 28 27 27 25 24 23 39 48 50 52 55 57 57 57 57 56 57 56 55 54 53 53 53 52 52 53 56 57
30 35 36 34 34 37 35 32 35 34 36 30 29 31 30 29 28 28 26 25 26 25 39 49 50 52 54 56 56 56 56 55 57 56 55 53 53 51 51 51 52 52 52 53
28 28 32 36 33 35 37 37 31 29 30 24 28 30 30 30 29 27 26 25 26 34 45 49 51 52 54 55 55 56 55 55 56 56 55 54 53 51 51 50 51 51 51 51
21 18 26 32 31 32 33 37 33 23 26 26 28 25 26 31 31 30 27 26 26 32 47 50 52 52 53 54 55 55 55 55 56 56 55 54 53 51 50 50 51 51 51 51
20 25 31 31 33 32 34 34 37 34 35 30 29 31 31 31 31 31 25 25 29 37 49 51 52 53 53 53 54 54 54 55 56 55 55 54 53 51 51 50 50 51 51 51
22 20 25 33 35 36 34 40 34 35 26 26 28 29 34 37 37 29 29 32 33 46 49 51 53 53 53 53 54 54 54 54 56 55 55 55 54 52 51 51 48 49 50 51
26 22 24 26 30 32 36 36 36 36 34 29 28 35 42 41 41 39 37 31 35 39 49 51 52 53 53 53 53 54 53 53 54 56 56 55 55 53 52 51 49 48 49 50
26 28 22 22 23 33 35 37 37 34 30 34 35 32 46 44 42 40 39 35 32 32 37 46 51 52 53 53 53 53 53 53 54 55 56 56 55 54 53 51 51 50 48 49
24 26 27 25 28 31 34 34 36 38 37 33 31 33 45 44 43 44 43 35 37 37 38 45 50 51 53 53 53 53 53 54 54 54 55 55 56 55 53 53 52 51 50 49
32 27 28 28 29 35 34 34 37 36 33 31 34 34 39 42 43 46 45 41 37 39 41 40 43 51 53 53 54 53 54 54 55 55 53 54 54 55 55 54 54 53 52 51
29 25 29 28 26 34 34 33 34 36 36 35 35 35 37 41 44 47 46 40 39 40 43 45 46 47 48 51 53 55 54 55 54 54 54 53 54 54 54 56 55 55 54 52
29 23 26 25 25 26 22 33 34 35 38 38 38 37 40 43 46 45 46 41 39 41 45 47 48 48 48 49 50 51 54 55 55 54 54 54 54 54 54 54 56 55 55 55
27 28 26 23 24 20 23 29 34 30 37 34 33 36 40 41 42 43 42 38 38 41 46 47 47 47 47 47 50 50 51 53 56 54 55 55 55 55 55 55 55 55 56 56
27 26 26 24 23 14 23 25 28 35 36 34 35 39 39 39 40 41 43 44 44 47 46 45 44 43 43 45 46 47 48 48 50 52 53 53 55 56 56 55 55 55 55 55
31 27 23 22 22 22 19 20 26 31 34 38 38 38 39 42 40 39 40 41 44 44 42 41 40 40 40 40 43 44 43 44 45 46 46 47 48 51 54 56 56 56 55 55
28 29 25 24 22 17 24 27 30 34 33 38 37 39 38 38 37 38 37 37 37 38 39 37 37 36 36 36 39 40 40 40 41 42 42 42 43 46 47 48 53 56 56 56
28 27 24 23 23 26 31 36 35 26 32 37 37 37 38 37 39 37 36 34 34 34 35 36 35 34 33 33 36 37 37 37 39 39 38 37 37 39 40 43 44 45 49 56
27 27 25 25 25 21 38 37 35 37 37 37 37 37 37 37 36 35 33 31 31 31 31 32 33 31 31 31 32 33 34 35 37 35 34 33 32 33 35 37 38 39 41 41
30 31 28 27 26 38 38 37 38 37 37 37 37 37 35 35 33 32 30 29 28 28 29 30 30 29 29 29 30 31 31 34 35 33 31 30 29 30 30 31 32 35 37 36
35 37 34 34 38 37 40 38 37 38 37 35 33 33 34 33 32 30 29 28 26 26 26 27 27 26 26 27 28 29 31 33 33 32 30 28 28 28 29 29 29 30 32 32
36 38 34 36 38 38 38 38 38 35 33 32 31 29 28 30 29 28 26 25 24 24 24 24 24 24 24 26 27 29 29 31 31 30 30 28 28 27 27 28 29 29 30 30
33 31 32 29 34 36 35 35 36 34 32 29 28 27 25 25 25 24 23 23 22 22 22 22 22 23 24 25 26 28 29 29 29 28 28 28 27 26 25 25 26 30 30 31

GFSCGP_sfc_dewp_096.txt.gz
Dewpoint
23 21 17 17 23 22 25 26 25 26 28 30 29 29 29 32 31 32 32 32 31 30 28 26 34 50 57 58 58 58 59 59 59 58 57 57 57 57 55 56 59 62 62 62
21 18 21 20 17 18 19 20 21 24 27 28 27 27 28 29 29 29 31 30 31 29 29 29 41 55 57 57 58 58 58 59 59 59 57 56 56 56 54 54 56 57 60 62
24 25 24 15 14 15 15 15 17 19 24 27 28 20 18 24 26 29 32 32 32 32 30 35 50 55 57 57 58 58 58 58 58 57 56 55 55 54 53 54 53 54 57 60
26 26 31 28 23 21 24 25 24 25 25 23 32 20 20 21 22 24 26 32 33 32 30 34 48 54 57 57 58 58 58 58 57 56 55 53 53 52 52 52 53 56 56 59
27 35 34 32 32 33 30 34 32 31 26 32 31 26 22 25 26 28 28 31 32 32 30 42 48 53 56 58 58 58 57 57 57 55 55 53 51 53 53 52 54 56 57 58
30 36 34 32 36 36 37 33 33 34 32 25 26 26 21 21 23 27 29 31 33 32 29 41 49 52 56 58 57 57 57 57 56 55 53 52 51 52 52 53 53 55 57 58
29 32 34 36 33 35 35 30 21 23 25 20 26 26 25 27 28 31 33 31 32 32 29 35 49 52 56 57 56 56 56 56 56 55 53 52 52 52 52 52 53 53 54 55
23 17 32 35 31 30 34 30 24 21 23 26 29 25 28 37 42 43 43 38 34 33 30 30 46 51 55 56 56 56 55 55 55 55 53 53 52 52 52 52 53 54 54 55
21 18 28 33 32 31 33 31 34 32 28 28 28 28 30 42 42 42 42 43 43 42 37 33 43 50 54 55 55 55 55 55 55 54 54 53 52 52 52 51 52 54 54 54
22 20 28 34 34 34 34 37 32 33 25 22 26 27 30 40 42 42 40 41 43 43 41 42 44 50 54 55 55 56 55 54 55 55 54 53 53 52 51 52 51 52 53 53
24 22 25 32 31 31 33 31 34 36 33 28 25 27 43 43 43 42 41 40 44 45 45 50 51 52 54 55 54 54 54 54 54 54 54 53 52 52 51 51 50 51 51 51
27 27 23 24 28 34 35 33 32 31 29 33 32 28 44 45 45 42 41 41 44 48 52 52 52 53 53 54 53 53 54 54 54 54 54 54 53 52 51 50 50 50 51 51
28 29 23 27 30 31 33 35 35 36 34 28 26 26 43 44 43 43 43 43 46 49 50 52 53 52 53 53 53 54 54 55 55 55 53 54 54 52 51 51 50 49 50 50
32 28 24 22 26 29 29 32 34 36 30 31 32 32 34 42 42 43 44 46 46 46 47 49 50 52 53 53 53 54 54 55 55 55 54 54 54 54 52 51 51 49 49 49
28 22 26 27 27 30 30 30 31 31 33 31 30 33 35 39 43 44 45 47 45 43 43 44 46 47 48 50 52 56 56 55 55 55 55 54 54 54 53 52 52 51 50 49
28 23 25 24 24 28 27 25 22 22 24 27 34 34 37 40 45 45 46 46 43 41 41 41 41 42 44 45 46 48 48 50 55 55 54 55 55 55 55 54 53 52 51 50
26 25 24 21 23 22 16 20 32 32 34 35 33 35 37 40 43 44 46 44 42 41 39 39 39 38 40 42 43 43 44 46 47 48 48 50 53 55 55 55 54 53 52 52
26 26 26 23 22 12 13 19 33 31 36 37 35 35 41 41 40 41 42 41 39 39 38 37 36 36 36 38 40 40 41 41 41 41 41 42 44 46 47 51 54 55 55 54
29 26 23 20 20 18 19 28 31 32 31 40 41 41 41 41 40 38 39 39 38 37 37 35 35 34 34 34 38 38 38 37 37 37 36 36 39 40 41 42 43 45 46 53
30 28 25 23 19 11 17 34 36 36 29 38 42 42 42 41 36 35 36 36 35 35 35 33 32 32 31 32 35 36 36 36 34 33 33 33 34 35 35 37 38 40 43 44
26 26 25 23 23 24 30 35 37 26 30 37 40 42 41 35 36 35 33 32 31 31 31 31 30 29 29 30 33 33 34 34 32 31 31 31 32 32 33 34 35 36 37 37
24 25 23 24 23 19 36 35 30 35 34 36 37 37 36 35 33 34 33 29 28 28 28 28 28 28 28 29 30 31 31 33 32 30 29 29 30 30 31 31 32 32 34 33
24 32 30 27 25 37 37 37 35 33 32 32 35 35 34 33 32 31 26 26 25 25 25 26 26 26 26 27 29 28 30 32 31 29 28 28 29 29 29 29 29 30 30 30
32 34 32 32 35 36 36 35 36 35 34 33 34 32 29 28 27 24 24 23 23 23 23 24 25 24 25 26 27 28 29 31 30 28 27 27 27 27 28 29 28 27 27 27
30 31 28 32 33 35 34 35 35 34 33 29 28 28 29 28 26 25 22 21 21 21 22 23 23 23 24 25 26 27 28 29 28 28 27 27 27 25 24 25 26 27 29 29
31 28 25 26 31 32 31 34 34 30 29 28 26 21 21 21 21 21 20 20 20 19 20 20 21 21 22 22 22 25 27 27 27 26 26 27 26 26 24 22 21 25 27 28

GFSCGP_sfc_dewp_099.txt.gz
Dewpoint
27 23 21 21 21 20 22 24 24 26 27 27 27 27 27 30 30 31 31 32 32 33 34 35 37 38 52 58 59 59 60 60 60 61 60 60 60 61 61 61 62 63 63 62
22 23 23 21 21 20 20 19 19 22 24 25 24 24 25 28 29 29 29 29 31 33 33 34 34 38 50 56 58 59 60 59 60 60 60 59 59 59 59 60 59 62 63 63
23 26 23 21 19 18 17 17 18 17 18 25 24 21 19 20 21 24 26 30 30 31 32 34 37 42 49 54 58 58 59 59 60 60 59 57 57 56 56 57 58 58 59 61
27 26 20 17 18 17 17 18 16 19 23 20 30 19 19 22 22 24 25 27 31 32 34 34 36 41 51 55 58 58 59 59 60 59 57 57 55 55 55 56 57 57 58 60
26 31 31 26 26 22 24 31 26 28 28 29 27 24 18 20 17 25 30 33 35 32 33 34 36 39 48 55 58 59 59 58 59 58 58 56 55 55 56 56 56 57 58 58
30 36 33 30 36 35 36 32 32 33 31 24 25 22 19 23 25 33 38 43 41 36 36 36 37 42 51 57 58 59 59 58 58 57 57 56 55 55 54 54 54 55 56 57
30 33 34 35 34 36 33 28 24 23 25 18 24 25 24 28 35 41 41 42 44 45 44 40 36 47 54 57 58 58 58 57 57 57 56 56 56 55 54 54 54 54 56 57
24 23 32 35 30 31 31 28 22 14 21 24 29 24 25 41 43 42 41 42 43 46 47 45 40 49 54 57 58 57 57 57 56 56 55 56 56 55 54 54 53 55 55 55
22 20 30 33 33 32 33 29 33 29 28 26 23 27 30 41 42 42 41 42 44 47 49 49 46 44 54 56 57 57 57 56 56 55 55 56 55 55 54 55 55 55 56 56
23 25 29 32 33 36 33 36 30 31 23 21 24 26 27 37 40 42 40 41 45 48 51 49 48 44 53 56 57 57 56 55 55 55 55 56 55 55 55 55 55 55 55 56
24 25 29 33 30 31 33 32 33 31 31 26 24 27 40 40 42 43 41 42 46 47 51 52 52 53 54 55 56 56 55 55 55 55 55 56 55 55 55 55 55 55 55 55
29 28 25 27 31 33 33 31 31 28 29 30 31 24 43 42 42 44 42 45 46 46 49 53 53 54 54 54 55 54 55 54 55 55 56 56 55 54 54 54 54 55 55 54
31 28 28 30 30 30 31 33 34 36 35 29 27 24 39 37 41 41 43 46 44 45 46 48 51 53 53 53 54 54 55 55 55 56 55 55 55 54 54 53 53 54 54 54
35 28 23 22 25 29 28 31 32 32 30 28 29 28 31 34 38 40 44 46 44 43 43 43 44 46 49 53 54 54 55 55 55 55 54 54 55 54 54 54 53 53 53 53
30 24 25 25 26 29 27 27 26 24 27 28 25 26 26 33 38 44 46 43 42 42 41 40 40 43 44 46 48 50 54 56 56 55 55 55 55 55 54 54 54 53 52 52
29 24 25 22 23 26 23 22 19 21 25 26 25 25 30 36 39 45 45 42 40 39 38 38 38 38 41 43 44 44 46 52 55 56 55 55 55 55 55 54 55 54 53 52
28 26 22 14 23 22 14 18 18 29 32 32 30 33 35 38 40 42 41 40 39 39 37 37 37 36 36 40 42 41 41 42 43 44 44 46 49 50 52 55 54 54 54 54
27 26 25 21 21 9 13 20 25 25 28 35 37 38 40 39 37 37 37 37 37 37 36 35 35 35 35 38 39 40 39 39 38 38 38 40 42 42 44 45 46 47 50 54
30 27 24 20 18 17 19 31 29 29 23 37 40 40 39 40 39 34 35 35 35 36 35 34 34 34 34 35 37 37 37 34 34 34 34 35 37 37 39 40 41 42 45 44
30 30 25 23 17 13 22 31 35 35 25 36 39 41 37 39 34 33 33 34 33 33 32 31 31 31 31 33 35 35 34 32 32 32 32 33 34 35 36 37 38 40 40 37
26 27 25 25 21 22 33 34 35 15 26 37 37 38 38 34 33 32 33 32 33 30 29 30 29 28 29 30 33 32 33 31 31 31 31 32 32 33 33 34 35 36 36 34
24 24 25 24 22 19 35 33 30 33 34 35 35 34 33 33 32 31 31 30 29 29 26 27 27 27 27 28 30 30 31 31 30 30 30 30 30 30 31 32 33 33 33 32
28 32 28 28 30 36 36 35 35 34 33 34 35 35 34 31 30 29 27 24 23 23 24 25 25 25 26 27 28 28 30 31 29 29 28 28 28 29 29 30 30 30 30 30
33 31 30 30 33 32 35 35 35 34 30 30 31 31 31 28 28 26 25 22 21 22 22 23 23 23 24 24 26 28 29 29 29 28 27 26 26 26 26 27 28 29 29 28
29 29 27 31 31 34 32 33 32 31 31 28 27 27 28 26 25 24 22 22 20 20 20 21 21 21 21 22 23 25 27 28 27 27 27 26 25 24 23 25 27 27 29 28
28 26 25 25 30 30 30 32 31 28 26 26 23 21 21 21 20 20 19 19 18 18 18 19 19 19 19 20 21 23 24 26 27 26 26 27 26 25 23 22 22 25 26 26

GFSCGP_sfc_dewp_102.txt.gz
Dewpoint
17 14 16 20 23 21 18 16 17 19 23 26 24 23 24 25 27 29 28 29 29 29 30 31 34 38 39 47 55 58 61 63 62 63 62 62 62 62 63 63 63 63 64 63
16 12 12 15 21 20 17 16 17 17 19 21 20 19 20 22 23 25 27 28 29 30 30 32 33 36 41 44 53 57 58 61 62 62 61 61 61 61 61 62 63 63 64 64
13 8 8 13 17 18 17 16 17 17 17 17 19 17 17 18 21 22 23 25 26 27 29 31 33 35 39 44 51 55 57 60 61 61 60 60 61 61 61 61 61 62 63 63
18 20 21 20 17 18 15 18 19 17 16 14 25 9 16 17 19 21 24 27 28 28 30 30 31 34 37 43 49 53 56 59 61 61 60 60 57 57 58 59 59 60 62 62
24 24 22 21 20 19 18 22 19 19 20 23 21 21 16 17 16 27 36 39 41 42 41 38 35 34 35 39 49 54 56 57 60 61 60 59 58 57 57 58 58 59 59 61
29 31 26 25 27 21 30 29 29 29 26 23 20 19 14 20 26 32 39 40 42 43 44 44 41 38 37 38 48 56 56 57 59 60 60 60 59 58 56 57 57 57 57 57
29 32 33 33 33 34 30 28 27 27 26 19 21 20 19 29 38 39 39 40 43 45 46 46 44 40 38 41 53 56 56 57 59 59 59 60 59 59 57 56 55 55 55 56
21 24 32 34 28 27 29 26 22 12 16 17 26 21 24 38 40 39 39 41 43 45 49 50 48 45 40 48 54 56 56 56 58 58 59 59 59 58 57 56 54 55 55 56
20 21 31 32 32 29 29 29 30 28 28 26 17 22 29 35 37 38 38 41 44 46 48 51 51 48 43 50 55 57 56 56 57 57 57 58 59 58 56 56 57 56 56 55
22 24 29 32 32 34 30 32 29 30 23 20 18 21 24 34 36 38 39 40 44 46 47 49 53 50 44 52 56 58 57 57 57 57 57 58 58 58 57 57 56 57 57 57
25 25 31 32 29 28 32 30 31 30 31 25 22 27 37 34 34 37 38 40 44 46 45 46 51 53 50 52 56 57 57 56 56 56 57 58 58 58 57 56 57 56 57 57
28 29 28 26 30 30 30 28 29 29 27 28 30 23 37 32 32 37 39 43 44 44 42 43 46 52 53 53 55 56 56 56 56 57 57 57 58 57 56 56 57 56 55 56
31 28 26 28 30 31 28 30 33 36 35 28 28 23 33 30 31 37 40 44 43 42 41 42 43 46 51 54 55 55 56 56 56 56 56 56 57 56 55 55 56 56 55 55
33 27 24 20 26 29 30 29 29 30 30 25 27 26 26 27 30 37 42 43 42 41 39 39 40 43 45 48 53 55 55 56 56 56 56 55 55 55 55 55 55 55 55 54
30 22 23 22 24 24 24 23 22 20 22 24 21 23 26 31 36 39 44 41 40 41 38 37 39 40 42 44 45 47 54 55 56 56 56 55 55 55 54 54 54 55 55 54
31 22 18 17 21 21 19 17 13 15 22 26 27 27 34 39 40 40 40 39 38 37 37 36 37 37 40 41 42 43 44 46 48 49 50 55 56 55 55 55 54 54 54 54
24 22 15 15 16 15 12 15 18 20 23 28 28 34 38 33 32 32 35 36 35 35 35 34 35 35 38 40 41 40 40 41 42 42 43 44 47 49 50 54 55 55 55 55
22 19 20 17 18 4 16 24 23 21 29 35 37 37 34 33 33 32 34 33 33 34 34 34 33 34 36 38 37 38 38 39 37 37 38 39 40 41 43 44 45 47 49 47
28 23 21 18 13 17 26 28 28 27 27 34 37 39 37 37 36 33 34 33 33 34 34 34 34 33 35 36 37 35 35 35 34 34 35 36 37 38 39 40 41 43 42 39
27 28 24 21 14 12 26 29 31 31 26 34 35 37 39 37 37 31 33 32 32 34 33 31 31 31 33 35 35 34 33 33 33 34 34 34 36 37 37 38 39 38 37 35
25 26 24 24 21 23 31 30 32 23 28 35 34 32 31 29 32 32 32 31 32 33 31 31 29 28 29 31 34 33 32 31 32 32 33 33 33 34 35 36 36 35 34 33
23 26 26 25 22 20 35 30 29 34 34 35 34 33 32 32 32 31 30 30 30 30 26 26 26 26 27 28 30 30 31 32 31 30 30 30 31 32 32 34 34 34 33 32
29 30 28 28 28 33 34 32 32 32 31 33 34 34 32 32 30 30 28 27 26 26 25 24 24 25 25 26 27 28 30 30 30 30 29 29 29 29 30 31 32 32 33 33
32 30 30 33 31 31 33 33 32 30 30 30 30 30 29 28 28 27 25 24 22 22 21 22 23 23 23 24 25 27 29 29 29 28 27 27 26 27 28 28 28 30 31 30
30 29 30 32 32 30 29 31 31 30 29 28 27 27 27 26 24 23 22 20 19 19 20 21 21 22 21 22 23 25 26 28 27 28 27 26 25 25 25 25 27 27 29 29
28 27 28 28 31 30 30 31 30 27 26 26 24 21 21 21 20 20 19 18 18 18 18 19 19 20 20 20 22 23 25 26 28 27 27 28 27 27 25 23 22 25 26 26

GFSCGP_sfc_dewp_105.txt.gz
Dewpoint
15 13 10 12 22 24 23 21 20 20 21 23 25 24 23 23 23 25 26 26 27 29 29 30 32 31 32 38 46 52 59 64 64 63 62 61 62 62 63 63 63 63 62 63
9 8 8 10 15 22 22 21 19 17 16 22 22 21 20 19 20 23 24 27 28 29 29 29 31 34 38 40 44 52 55 60 63 63 61 60 62 62 62 63 62 62 61 63
5 6 4 7 11 18 21 20 18 12 14 16 18 16 14 15 17 18 20 23 24 26 27 29 31 35 37 39 44 46 53 57 62 62 61 61 62 61 60 61 61 62 62 63
12 5 10 9 11 16 18 21 15 12 15 13 13 8 13 15 16 17 19 21 26 27 27 28 29 32 36 42 45 44 51 54 59 62 60 61 58 59 60 60 60 61 62 62
17 9 11 11 13 13 17 15 13 16 17 15 10 12 13 14 13 22 30 38 39 40 41 41 40 38 33 38 44 49 48 52 57 61 61 61 59 59 59 59 60 60 61 61
19 19 18 13 15 20 17 18 19 18 17 17 16 13 11 14 20 25 35 37 39 41 43 44 44 43 39 38 42 48 49 51 56 60 62 62 60 58 57 58 58 59 60 60
23 27 20 19 19 22 19 22 24 24 22 18 13 13 13 26 33 35 36 36 40 42 45 47 48 47 43 41 42 47 49 50 55 60 61 61 60 59 59 58 57 56 58 58
21 28 26 27 22 20 24 24 19 15 16 13 19 14 15 29 36 36 36 38 40 42 45 47 51 52 48 45 42 43 45 51 53 59 60 61 60 59 58 58 55 55 56 57
22 28 32 29 26 27 29 25 24 28 27 24 21 20 31 33 35 37 37 37 40 42 45 47 49 51 54 48 43 47 51 52 53 59 60 61 61 59 58 58 57 56 57 56
25 25 28 28 29 29 29 27 26 28 19 15 7 13 32 34 31 33 34 37 42 42 44 45 46 48 51 50 47 54 55 53 58 59 59 60 59 60 58 58 57 57 57 56
26 26 27 29 27 24 29 29 31 29 29 25 17 28 34 30 29 32 35 43 43 43 43 42 42 44 48 52 52 55 56 56 58 58 58 59 60 59 58 57 57 57 58 56
22 25 26 30 23 25 24 25 27 26 25 26 28 27 32 29 28 32 41 43 42 41 41 40 39 39 43 47 56 56 57 58 58 57 58 58 60 59 58 56 57 57 57 56
25 27 25 31 27 30 28 26 29 33 31 28 27 29 27 27 28 39 43 42 41 41 40 38 37 37 40 44 50 56 57 57 57 57 58 59 59 58 57 56 57 56 55 56
34 28 26 22 23 27 28 29 28 28 29 26 24 22 31 38 41 42 41 40 39 39 39 39 36 35 37 41 44 52 56 56 56 57 57 58 58 58 57 55 56 56 56 55
31 28 31 28 27 27 27 27 26 27 24 22 23 27 36 37 38 37 37 36 36 37 36 37 36 36 35 40 41 44 47 55 56 56 57 57 58 58 57 55 55 56 56 55
32 20 20 20 21 22 22 18 14 13 17 22 22 33 35 35 34 33 34 34 33 34 35 34 36 35 34 38 38 40 41 43 46 46 47 54 56 55 56 55 55 55 55 54
30 22 19 17 14 13 14 17 17 18 31 32 34 37 36 33 32 31 32 33 32 32 33 34 33 35 35 37 38 38 38 39 40 40 41 44 47 48 49 54 54 54 55 55
21 20 18 16 17 10 21 23 22 29 31 32 35 37 36 32 32 32 34 32 32 33 33 34 32 33 35 36 37 37 37 37 37 37 38 40 41 42 44 45 46 46 45 44
26 22 21 17 13 18 25 25 26 26 32 31 33 36 38 35 35 33 33 34 33 33 35 34 34 32 34 35 36 36 36 35 35 35 36 38 39 38 39 39 39 40 38 36
23 24 23 21 12 18 30 29 29 28 30 34 33 33 34 34 36 32 34 33 33 34 35 34 34 31 33 33 35 34 34 34 34 33 35 36 37 38 37 37 36 36 35 34
23 24 24 23 20 27 32 32 32 28 28 34 33 32 33 30 32 33 33 32 33 34 28 29 27 27 28 32 34 33 33 32 34 34 34 34 35 36 36 37 36 35 33 33
25 28 26 24 22 24 32 30 30 33 34 35 33 33 32 31 32 31 31 31 31 32 31 26 26 26 26 27 29 31 31 32 33 33 32 32 33 33 35 35 36 35 35 34
28 28 28 28 27 32 32 31 33 32 32 32 33 33 33 32 31 31 29 27 24 23 24 25 25 25 25 26 26 27 29 31 31 30 29 30 31 30 29 31 33 33 33 33
31 29 30 30 30 30 31 30 31 31 31 30 31 30 29 28 28 27 25 23 21 21 21 22 23 23 23 24 25 26 28 29 29 28 28 27 26 26 28 28 28 28 31 31
29 29 31 31 30 30 28 29 31 30 29 28 26 26 26 26 24 24 22 21 20 20 20 21 21 22 22 22 23 24 26 28 28 29 28 28 27 24 23 24 26 27 28 28
28 28 29 29 33 31 29 29 29 28 27 25 23 22 21 21 20 21 20 20 19 19 19 19 20 21 21 21 22 23 25 25 27 27 27 28 28 28 25 23 22 25 26 26

GFSCGP_sfc_dewp_108.txt.gz
Dewpoint
27 15 9 10 15 20 20 19 19 20 21 21 22 21 21 24 25 24 25 26 26 28 30 31 38 39 39 41 46 57 64 66 66 65 64 63 63 64 64 63 63 63 63 64
23 18 11 8 8 12 14 19 21 24 26 23 24 24 24 25 24 25 25 26 27 29 30 31 36 39 43 42 48 54 62 66 65 64 64 63 63 64 63 63 63 63 64 64
19 17 14 6 5 7 11 16 24 25 24 19 18 19 21 22 22 21 22 24 26 29 30 32 34 38 47 47 51 49 55 64 64 64 63 62 63 63 62 62 62 62 63 63
18 17 14 6 4 5 9 15 22 22 21 13 15 11 16 17 17 18 18 22 24 29 33 33 35 38 43 48 52 48 51 59 63 64 62 61 61 60 60 61 60 61 62 62
16 21 15 7 5 4 9 18 22 21 19 17 14 12 14 15 14 15 24 36 38 40 41 41 42 43 43 46 48 53 49 53 60 63 61 61 61 61 60 61 60 60 62 62
11 18 23 4 11 7 13 19 21 20 19 16 17 14 10 11 14 22 35 36 38 42 45 46 48 49 47 48 48 50 52 51 56 63 62 61 61 60 60 60 60 60 60 61
12 24 34 8 9 13 16 18 23 23 24 20 16 12 13 27 29 32 34 39 42 45 46 46 47 49 52 54 54 49 46 47 53 61 62 62 62 61 60 59 59 59 59 59
15 26 30 21 17 12 16 19 26 15 18 18 16 18 15 28 34 35 38 39 42 43 44 45 46 48 50 52 53 54 44 45 51 59 61 61 62 61 60 60 59 58 58 59
31 29 32 28 17 21 20 22 26 27 27 26 21 29 35 33 34 36 37 40 41 41 43 43 44 45 46 48 51 53 53 44 50 56 61 61 62 61 60 60 59 59 59 58
31 32 36 31 32 25 28 28 29 31 28 27 24 29 35 37 35 35 40 41 41 41 41 41 41 41 42 46 48 52 54 45 53 58 60 61 61 61 61 60 59 59 59 57
35 35 29 28 33 32 35 33 32 30 27 27 22 34 39 37 36 40 41 40 40 40 40 39 39 38 39 42 45 49 56 55 59 60 61 62 60 61 61 59 59 59 58 57
31 34 28 28 26 28 35 34 33 30 22 27 32 33 41 42 41 41 40 40 40 39 39 38 37 37 37 40 43 45 54 58 59 60 60 60 60 60 60 59 59 58 57 57
31 30 28 29 30 30 30 27 28 32 33 28 28 33 40 39 38 38 38 38 37 37 37 38 37 36 36 38 39 41 47 57 58 58 58 59 60 60 59 58 58 57 57 57
37 30 26 29 29 29 29 30 29 26 29 25 28 36 34 36 35 36 35 35 35 35 35 35 36 36 36 37 38 39 41 46 57 57 58 58 59 59 59 59 57 57 57 56
35 34 34 35 31 26 30 27 26 26 22 23 30 33 33 34 33 33 33 33 33 33 33 33 34 35 36 36 37 38 39 41 45 51 56 57 59 59 59 58 57 57 56 56
33 28 28 32 32 31 32 18 15 28 31 33 38 35 33 32 31 32 32 32 32 33 33 33 33 33 35 36 35 37 37 38 40 41 42 46 53 56 57 57 56 57 56 55
30 26 25 17 17 19 20 22 29 28 30 32 32 35 34 31 30 30 31 31 32 33 33 33 33 33 34 36 37 36 36 37 37 37 39 40 43 45 48 54 54 53 53 55
28 23 23 18 19 22 27 30 30 30 30 31 34 36 34 31 32 32 33 32 31 33 33 33 32 32 34 35 37 36 36 35 35 36 36 38 39 40 40 42 42 42 42 42
26 26 25 21 17 24 28 30 30 31 30 32 32 32 37 35 35 31 33 33 32 33 35 34 34 33 34 34 35 35 34 34 34 34 35 36 37 37 36 36 36 36 35 34
23 29 28 25 16 21 28 28 31 31 27 33 31 32 32 34 32 28 32 32 32 34 31 30 29 29 32 34 34 34 33 32 32 33 33 35 36 35 35 34 34 35 34 33
27 28 27 26 24 27 28 30 31 26 26 34 32 32 31 29 30 32 33 32 33 34 33 27 27 26 27 30 33 32 33 32 32 34 33 34 34 35 35 34 34 35 34 33
25 28 26 28 25 22 30 28 26 31 35 35 33 32 31 31 31 31 32 32 28 28 25 25 25 25 26 26 27 30 32 33 33 32 32 32 32 32 33 33 35 35 34 33
27 28 26 26 26 31 31 31 33 32 32 32 31 31 32 31 30 31 28 24 22 21 22 23 23 23 24 25 25 26 28 31 32 32 29 29 28 29 31 29 29 31 32 32
30 29 30 30 30 30 30 30 29 30 30 29 28 27 27 26 26 25 23 22 21 20 21 21 22 22 22 23 24 26 27 29 30 30 30 29 26 25 26 27 27 27 28 28
28 29 31 29 30 29 28 29 29 28 27 25 25 23 23 23 22 22 21 20 19 19 20 21 21 22 21 22 23 25 26 27 28 28 29 30 26 24 23 24 25 25 27 27
28 28 28 27 33 30 29 28 28 27 25 23 21 21 20 20 19 20 19 19 18 18 19 19 20 20 20 20 21 25 25 26 27 28 29 30 30 28 24 22 22 24 25 26

GFSCGP_sfc_dewp_111.txt.gz
Dewpoint
23 27 21 17 11 11 17 21 22 21 23 23 23 23 24 23 22 22 22 24 22 26 27 27 28 30 29 28 42 62 63 65 65 65 64 63 63 64 64 64 63 63 63 64
10 19 25 21 14 10 11 12 13 16 19 21 25 32 30 23 22 22 23 23 25 26 28 31 34 33 34 32 36 63 63 65 64 64 63 63 62 62 62 62 63 63 63 63
15 9 24 23 15 9 7 8 11 13 15 25 31 31 29 28 23 25 25 24 26 26 27 28 29 32 36 37 36 61 64 65 64 64 63 63 63 62 61 60 60 62 62 63
17 12 13 19 17 11 4 6 9 11 13 28 33 21 16 23 22 20 21 21 25 37 38 40 43 44 41 41 44 50 64 64 64 64 62 62 61 61 61 60 60 61 62 62
28 15 12 16 21 11 6 9 9 19 32 30 29 19 15 16 15 17 19 37 39 44 45 46 47 49 50 52 53 53 50 64 64 63 62 61 61 61 60 60 60 61 61 61
27 19 13 18 26 29 11 15 30 29 28 24 20 16 17 14 16 34 39 43 44 44 45 45 46 46 47 48 49 51 53 52 63 63 62 61 61 61 59 60 59 60 61 61
23 19 13 26 26 29 16 25 23 22 22 20 21 17 18 27 34 39 41 43 43 43 43 43 43 43 43 44 46 48 50 52 53 62 61 60 60 61 59 59 59 59 59 60
17 13 20 29 28 25 19 23 23 18 21 20 18 17 17 22 41 43 42 41 41 41 41 41 41 41 40 41 43 45 47 49 52 61 61 60 60 61 60 59 60 59 59 59
24 14 31 31 32 25 19 20 27 29 29 27 20 34 35 38 39 42 40 39 39 39 39 39 38 38 38 39 41 43 46 49 54 55 62 60 62 61 60 60 60 59 59 58
32 24 34 31 34 34 22 23 25 32 25 25 23 33 34 37 42 41 39 38 38 38 37 37 37 37 37 39 40 42 46 49 58 55 61 61 62 61 61 60 59 58 58 58
35 30 34 36 31 27 32 30 33 34 33 27 27 32 39 37 41 39 37 36 36 36 36 36 36 36 36 38 39 41 43 47 58 59 60 61 61 60 61 60 59 59 58 57
35 33 31 32 37 36 37 33 32 31 30 32 32 29 41 38 37 36 35 35 34 34 34 34 35 35 36 37 38 39 41 44 48 58 58 59 60 61 60 59 58 58 57 57
36 34 27 27 34 36 35 35 35 35 36 32 29 29 37 34 33 33 33 33 33 33 33 34 34 34 35 36 37 38 39 42 44 54 57 58 58 59 59 59 57 57 57 57
39 34 32 28 32 33 32 32 33 36 31 32 32 31 32 32 32 32 32 33 33 33 33 33 34 34 35 37 37 37 38 39 42 45 49 54 58 59 59 58 57 57 57 57
35 32 33 34 33 35 34 34 34 32 31 31 31 29 31 31 31 31 31 32 33 33 33 33 34 34 35 36 37 37 37 38 39 40 42 44 47 58 58 58 57 57 57 57
35 33 32 31 32 32 33 29 30 32 36 36 33 30 35 32 29 28 29 29 30 31 32 33 33 33 34 35 36 36 36 36 37 38 39 41 42 44 53 57 57 56 56 56
31 30 29 26 28 28 28 29 29 30 32 32 29 34 34 29 28 28 29 29 30 32 33 32 32 32 33 34 35 35 36 36 35 36 37 38 38 40 41 43 50 52 54 53
29 30 27 23 23 23 30 30 30 30 31 31 32 33 30 29 29 29 30 30 30 32 34 32 32 32 33 35 35 35 35 35 34 34 35 36 37 37 38 38 36 37 39 39
32 30 26 23 26 30 26 26 28 29 29 32 31 32 32 32 32 28 30 32 32 32 34 32 31 32 32 33 34 34 33 33 33 32 34 35 35 36 37 35 34 35 34 33
30 31 30 26 22 21 25 27 29 32 23 33 31 31 30 35 26 25 31 32 32 34 33 28 28 27 30 31 33 32 32 31 31 32 32 34 34 34 34 34 34 34 34 32
26 28 25 27 25 24 28 28 29 23 24 35 34 32 29 27 28 30 32 31 32 32 27 26 25 24 25 27 30 32 32 31 31 32 31 30 32 32 32 34 34 33 33 32
26 27 24 25 22 18 30 28 25 32 34 35 34 33 31 31 31 30 30 28 25 25 23 23 23 23 24 25 26 27 31 32 32 30 29 28 29 30 30 31 32 32 32 32
26 29 25 26 24 32 32 32 34 34 32 32 30 30 30 30 29 28 26 23 22 21 21 22 22 22 23 23 25 26 28 31 32 29 28 27 26 27 28 27 28 29 30 30
32 33 28 28 30 30 31 30 30 29 30 28 26 24 25 25 25 23 22 21 20 20 20 21 21 21 21 23 24 25 28 29 29 30 27 26 24 24 25 26 26 26 26 26
30 30 29 28 29 28 29 30 30 28 26 24 23 22 22 22 21 20 19 19 18 19 19 20 20 20 19 21 22 25 25 26 27 28 29 27 23 22 22 24 25 25 27 27
29 29 28 25 33 29 28 29 29 26 24 22 21 19 19 20 19 19 18 18 17 18 19 18 19 18 18 18 20 22 25 26 25 26 27 28 29 24 22 21 22 26 27 28

GFSCGP_sfc_dewp_117.txt.gz
Dewpoint
16 12 10 11 18 18 18 17 15 13 13 12 10 13 16 19 28 25 23 23 26 26 26 27 28 28 29 28 40 62 64 66 66 65 65 65 64 64 64 65 65 65 65 64
26 18 20 18 15 12 14 19 18 18 17 16 10 8 13 16 23 28 31 26 26 27 26 39 49 50 51 51 44 52 62 64 65 65 65 65 65 63 64 62 63 64 64 64
25 21 24 23 18 15 11 9 17 22 21 14 9 6 4 11 25 30 33 33 30 26 45 46 45 44 46 47 49 53 60 62 64 65 65 62 62 62 61 62 63 63 63 63
26 26 30 30 25 21 17 17 16 25 24 14 23 14 24 26 27 28 26 41 43 44 43 43 42 42 43 43 45 48 51 59 64 64 64 62 62 62 62 62 63 62 63 62
22 23 24 22 24 25 24 19 20 24 26 16 9 22 20 27 24 36 40 39 38 38 38 38 39 40 41 41 43 45 47 50 53 59 64 63 62 62 60 61 62 62 62 62
24 25 27 25 25 25 23 27 28 28 23 14 10 20 25 35 39 38 37 36 36 36 36 36 37 37 38 39 41 43 45 47 50 53 55 63 63 61 60 60 61 61 61 61
25 26 28 28 26 25 25 25 20 14 16 18 21 24 25 38 38 37 36 35 35 35 35 35 36 36 37 38 39 41 43 44 46 50 52 54 63 62 61 61 61 61 61 61
22 20 21 19 25 16 19 24 22 12 16 18 25 26 33 38 38 37 36 35 34 34 34 34 35 36 36 37 38 39 41 42 44 46 49 52 55 63 62 61 61 61 61 61
26 22 23 30 33 25 26 22 22 22 25 24 24 34 35 35 35 34 35 35 35 34 34 34 35 36 36 37 38 39 40 41 42 44 46 49 56 60 61 61 61 61 61 60
30 27 28 30 31 33 29 32 24 25 18 17 26 25 26 30 32 33 33 34 35 34 34 35 35 35 36 36 37 38 39 39 41 42 44 48 55 58 62 61 60 60 60 60
35 32 26 29 26 28 31 30 29 27 27 24 22 24 33 30 33 31 32 33 34 35 34 34 34 35 36 36 36 37 38 39 39 41 44 47 50 59 62 61 60 60 60 59
36 34 27 30 35 37 36 29 28 21 23 30 25 23 34 32 33 34 32 33 34 34 32 33 33 34 35 35 36 36 37 38 39 40 42 44 46 50 61 60 60 59 59 59
35 33 25 26 33 34 33 34 35 34 34 27 24 24 34 34 32 33 31 32 33 32 31 31 32 33 34 35 35 35 36 37 37 38 40 41 43 45 48 58 59 59 59 59
39 34 30 25 29 34 33 31 34 32 26 26 25 25 27 28 28 29 31 32 32 30 30 30 30 32 33 34 34 34 35 35 36 37 38 38 40 42 43 48 58 59 59 59
36 31 31 31 33 31 33 35 35 31 31 25 25 23 26 27 28 29 30 32 30 29 29 29 30 30 32 33 33 33 34 34 34 35 36 37 38 40 40 42 44 55 58 58
33 31 32 29 29 26 27 30 32 30 28 27 23 23 28 28 29 28 29 30 29 27 27 28 28 29 30 32 31 32 32 32 32 32 33 35 36 37 38 38 39 38 41 52
30 29 30 27 30 29 20 27 28 28 31 31 23 25 28 25 25 26 28 29 28 25 25 27 28 29 30 31 32 31 30 31 31 31 31 32 34 35 36 36 36 36 35 37
31 30 28 27 29 16 27 31 31 28 29 31 27 27 27 25 27 28 29 28 29 26 25 25 27 28 29 30 31 32 29 29 29 29 29 31 32 33 34 35 34 35 36 34
31 31 30 26 22 26 26 26 27 26 26 31 29 29 28 28 30 26 28 28 29 26 25 25 25 26 27 27 29 30 29 28 28 28 28 29 31 31 31 32 33 34 34 34
30 29 30 28 20 17 24 27 32 29 21 31 28 27 25 30 21 23 26 26 26 26 23 22 22 23 24 26 27 28 29 27 26 27 27 28 28 29 29 31 31 33 33 32
26 27 24 25 22 23 26 30 35 22 22 33 28 26 24 22 25 27 25 23 23 23 21 21 21 21 21 23 25 25 27 29 26 26 26 26 27 28 28 29 30 30 31 31
24 24 22 23 18 16 29 27 24 29 31 33 31 28 28 26 24 23 22 21 21 21 19 18 19 19 20 21 22 22 25 28 30 25 23 23 24 26 27 27 28 29 29 28
23 25 23 24 22 29 31 30 32 30 25 24 28 28 25 24 22 22 21 20 19 18 18 18 17 18 18 19 20 20 23 26 27 28 23 23 23 24 25 25 26 26 27 27
30 30 26 25 29 29 30 28 25 25 24 24 25 23 21 20 20 19 19 18 17 17 17 16 16 16 16 17 18 20 21 24 25 25 26 23 22 22 24 24 25 26 26 25
27 29 25 26 29 29 30 26 25 23 22 21 22 22 21 19 19 18 18 17 16 15 15 15 15 14 15 16 17 18 20 23 23 23 24 26 22 21 21 22 25 26 27 29
28 28 26 23 28 28 29 26 24 22 21 21 20 19 19 18 17 16 16 16 16 15 13 13 12 13 14 15 16 17 19 22 23 22 23 23 24 22 21 20 19 23 25 26

GFSCGP_sfc_dewp_120.txt.gz
Dewpoint
17 15 12 12 14 14 15 15 15 15 18 19 19 16 14 15 14 12 23 26 28 26 26 34 47 48 38 38 33 61 65 66 66 65 64 64 63 64 65 65 64 64 64 64
25 18 18 19 17 14 13 12 12 13 17 17 19 20 16 15 12 10 15 14 25 29 35 45 45 45 45 46 47 49 59 65 66 66 65 64 64 65 65 65 65 65 65 64
21 18 24 23 23 20 19 17 15 11 11 13 21 21 17 14 12 9 8 26 38 41 43 42 42 42 42 43 44 46 50 61 65 66 66 63 63 62 63 63 64 64 65 64
24 26 25 27 27 25 21 20 19 17 16 18 24 19 19 15 16 37 37 36 36 36 37 37 38 40 40 40 42 44 47 52 60 65 65 63 63 62 63 63 64 64 64 64
23 24 25 23 21 26 22 25 23 22 20 21 22 20 13 20 35 35 34 36 36 35 36 36 36 37 38 39 40 43 46 50 52 55 64 63 63 63 61 62 63 64 63 63
24 25 25 24 24 25 26 25 24 24 24 19 19 16 17 32 36 35 36 35 35 35 35 36 36 37 37 38 39 41 43 45 49 52 54 58 62 60 60 61 62 62 62 62
25 25 27 27 26 27 25 23 16 14 14 16 19 13 26 33 36 36 35 35 35 34 35 35 36 36 37 37 38 40 42 44 45 47 50 52 55 59 61 61 62 61 61 61
22 20 21 25 26 23 22 22 17 12 14 21 25 22 28 35 36 35 36 36 35 35 35 36 36 36 36 37 38 38 39 41 42 44 45 48 51 55 59 62 61 61 61 61
27 24 25 28 28 25 20 21 20 20 22 20 27 30 30 31 32 33 33 34 35 34 35 35 36 36 36 36 37 38 38 39 40 41 44 46 49 52 56 60 61 61 60 58
33 26 29 30 31 30 25 30 25 24 18 16 25 24 23 27 29 31 30 32 34 35 34 34 35 35 36 36 36 36 37 38 39 40 41 44 46 48 51 57 62 60 60 60
36 34 27 30 29 25 30 28 30 29 26 22 20 21 31 28 30 29 30 32 32 33 33 34 34 34 35 35 35 35 36 37 37 38 41 42 43 45 48 58 60 61 59 60
33 34 28 27 31 34 36 29 28 22 19 27 21 20 33 31 31 31 31 32 32 33 32 33 33 33 33 34 34 34 35 35 37 38 39 40 42 43 45 47 53 60 59 59
36 33 26 23 31 34 32 33 34 31 30 27 21 21 32 31 30 31 30 31 32 32 32 32 31 31 32 32 32 33 34 34 34 35 37 38 39 40 41 44 46 54 59 59
39 34 27 21 26 33 30 32 33 30 24 23 23 22 25 27 27 29 30 30 30 30 30 29 29 30 31 31 31 32 32 33 34 34 34 36 37 38 39 41 42 43 47 58
36 30 32 30 30 30 29 31 31 29 29 23 23 21 24 26 27 28 30 29 26 25 27 28 28 28 30 31 30 30 31 31 32 32 33 34 35 37 37 39 39 40 40 42
34 30 32 27 33 28 25 27 29 29 28 26 24 21 27 28 28 27 28 27 24 23 24 25 26 27 28 29 31 28 29 30 30 30 31 33 33 34 35 36 37 37 38 38
31 31 29 23 28 23 19 26 26 27 27 27 20 24 27 25 24 25 26 27 24 23 23 24 25 26 27 29 30 30 27 28 28 29 29 30 31 32 33 34 34 35 36 36
30 32 29 27 28 15 26 32 31 26 28 27 25 26 26 25 26 27 27 26 24 23 22 23 24 25 27 27 29 30 27 26 27 27 27 28 29 30 31 32 32 33 34 34
32 32 30 23 21 25 26 26 27 27 25 28 28 27 26 28 27 23 25 25 25 23 23 23 24 24 24 25 27 28 29 24 24 25 25 27 28 28 29 29 31 32 32 32
29 32 32 26 20 17 23 25 28 31 21 28 27 25 25 28 19 20 23 23 22 21 20 20 21 21 21 22 24 26 27 28 23 23 24 25 27 27 28 29 29 31 31 31
25 26 24 24 21 22 25 30 32 22 21 28 26 24 23 22 22 23 21 19 20 21 19 19 19 19 19 20 22 23 25 26 28 24 23 24 25 26 27 28 29 29 30 30
23 23 22 25 18 17 29 28 24 28 31 29 27 27 23 23 22 21 19 18 19 18 17 17 17 17 18 19 20 21 22 25 26 26 23 23 24 25 26 26 27 27 28 28
23 24 22 23 21 28 28 29 28 26 25 27 27 25 23 22 21 21 20 18 17 16 16 16 15 16 17 18 19 19 21 23 23 24 25 22 23 23 25 24 25 26 25 25
30 29 25 25 27 27 26 25 24 24 25 27 24 22 21 19 19 19 18 16 15 14 14 14 14 14 15 16 17 19 20 22 22 22 23 23 21 21 22 23 24 24 25 24
27 28 25 26 29 28 25 24 24 23 23 22 22 21 20 19 18 18 17 16 14 12 13 12 13 13 13 14 15 17 19 21 20 20 21 22 22 20 20 21 23 23 25 26
27 27 25 18 27 26 26 25 24 22 22 21 19 18 18 17 16 16 15 15 13 11 10 11 11 11 12 11 13 15 18 19 19 19 20 21 21 21 20 18 18 21 23 23

GFSCGP_sfc_dewp_123.txt.gz
Dewpoint
19 13 9 12 17 13 13 13 12 12 13 14 14 14 16 17 19 19 21 20 18 16 23 36 47 48 41 47 54 63 66 66 64 63 64 63 63 64 65 64 65 65 66 65
22 16 16 17 17 16 16 16 15 16 16 16 15 14 15 16 18 23 22 19 18 18 21 39 44 45 46 47 48 50 60 66 66 64 64 64 64 64 66 65 64 65 65 66
18 16 20 20 18 18 17 19 19 18 17 17 18 14 17 21 23 34 36 36 37 37 38 39 40 42 43 44 46 48 51 56 66 66 66 66 66 66 65 65 64 64 65 66
23 24 23 22 21 21 18 22 20 19 19 16 19 12 17 25 28 35 35 35 36 36 37 38 38 39 41 42 44 47 52 55 58 65 66 65 64 63 64 64 64 64 65 65
23 23 25 25 22 26 23 23 22 22 21 21 14 18 16 28 28 35 36 34 35 35 37 37 38 39 39 40 42 46 50 51 53 58 62 65 64 66 65 65 64 65 65 66
25 25 24 23 24 23 23 24 24 25 23 18 19 22 21 27 31 33 35 36 36 35 36 37 37 37 38 39 41 44 46 46 49 51 53 56 63 64 64 65 64 63 65 65
26 25 26 25 24 27 25 23 16 16 21 14 19 19 28 32 33 33 33 34 36 37 36 37 36 37 37 37 39 40 42 43 45 47 48 50 52 55 59 64 64 64 64 63
24 20 21 25 23 18 25 22 13 6 7 10 15 25 27 34 35 34 33 34 34 35 36 36 37 36 36 37 37 38 40 41 42 44 45 47 50 52 54 57 61 63 63 64
27 25 27 24 26 26 21 20 20 17 17 17 23 29 33 30 31 32 32 32 32 33 34 35 35 36 37 38 38 38 39 39 41 42 44 45 47 48 49 52 56 61 64 64
32 29 28 29 31 30 27 26 24 23 18 19 24 24 22 25 28 30 30 30 31 32 32 33 34 34 35 36 37 37 38 36 38 39 41 42 43 45 47 50 53 58 62 63
33 33 27 30 29 27 30 28 27 27 27 22 20 21 30 28 29 29 30 30 30 31 32 32 33 34 32 33 34 35 35 35 36 37 39 40 40 42 44 46 47 50 59 62
32 34 28 29 30 32 33 31 29 25 22 27 26 21 32 31 31 30 29 30 31 31 31 32 32 33 33 31 32 33 34 35 36 36 37 39 39 40 41 42 44 45 48 61
36 31 23 20 27 27 31 34 36 31 30 26 25 21 31 30 29 31 28 29 29 30 30 31 30 31 32 32 30 31 33 33 34 35 36 36 37 38 39 40 41 43 44 47
39 31 25 21 25 29 28 30 31 32 27 23 22 21 24 26 26 28 28 28 28 28 28 27 28 29 30 32 29 30 31 32 32 33 34 35 36 36 37 38 39 40 41 42
36 32 32 31 30 28 27 29 30 27 29 24 22 20 23 25 26 27 29 27 22 22 24 24 25 26 28 30 29 27 29 31 31 31 32 33 34 35 36 36 37 37 38 39
35 31 33 28 32 28 25 27 28 27 25 25 23 20 27 27 27 26 26 25 23 21 22 22 23 24 26 28 29 26 26 29 29 29 30 31 32 32 34 35 35 35 35 35
31 33 30 25 30 27 19 25 26 26 26 27 21 24 27 24 23 24 24 24 22 22 22 23 24 24 25 26 29 28 25 26 27 27 27 28 30 31 32 32 33 34 34 33
30 30 31 26 30 17 27 32 30 26 28 26 25 25 25 23 24 25 24 22 22 21 22 23 23 23 25 25 27 29 28 25 25 26 26 27 28 29 30 31 31 32 33 32
32 31 29 25 21 25 27 26 27 27 24 27 28 27 26 26 26 21 23 23 22 22 22 22 23 23 23 24 25 26 27 27 25 25 25 26 28 28 28 29 30 32 32 32
30 32 32 25 20 18 23 25 29 30 21 26 24 25 26 28 23 20 21 21 21 21 20 19 20 20 22 23 24 24 25 26 25 25 26 26 27 27 28 30 30 31 32 32
23 25 25 25 21 21 25 28 31 23 23 26 24 23 23 21 23 22 21 20 20 19 18 18 17 17 18 20 22 23 23 25 27 27 26 26 27 28 28 28 30 30 31 31
21 23 22 25 21 18 27 31 25 29 30 27 25 22 22 22 22 20 20 19 17 17 16 16 16 17 17 18 19 20 22 23 24 25 26 25 26 26 27 27 28 28 27 27
23 23 22 23 22 28 29 28 28 29 28 28 24 23 22 22 21 20 18 15 14 13 14 14 15 15 16 17 18 18 20 21 22 23 23 24 24 25 26 25 25 25 25 25
29 28 24 25 27 26 26 24 25 28 29 26 23 21 20 19 19 17 16 14 12 12 12 13 13 13 14 15 16 18 19 19 19 20 21 21 22 21 22 22 23 23 25 23
28 27 26 26 28 26 24 23 25 24 23 21 21 21 20 19 17 16 15 12 9 9 10 10 10 11 12 14 15 16 18 18 17 18 19 20 19 18 17 20 21 21 23 23
28 26 25 24 29 27 25 24 24 23 21 20 19 17 17 16 15 14 12 9 7 7 9 8 7 7 9 12 13 15 17 17 17 16 17 19 20 19 17 17 18 20 20 21

GFSCGP_sfc_dewp_126.txt.gz
Dewpoint
19 14 9 11 12 11 10 9 7 8 12 13 12 10 9 12 13 16 19 21 23 25 25 21 23 31 45 47 47 40 48 62 64 63 61 61 61 62 63 63 64 65 65 65
20 14 15 15 15 14 13 11 9 10 12 14 11 10 12 11 20 31 33 33 35 36 35 36 40 43 46 47 48 49 52 56 63 63 60 60 60 61 61 62 63 64 65 66
19 16 19 19 18 16 15 14 13 13 15 13 13 11 3 14 29 33 34 34 35 36 37 38 39 42 45 46 48 48 52 59 63 65 63 61 61 62 62 62 62 63 64 65
22 22 21 20 18 17 15 17 17 17 15 9 14 11 12 24 24 26 30 33 34 35 36 38 39 40 42 43 45 49 52 55 63 65 64 64 62 62 63 63 63 63 65 64
22 22 23 22 20 20 17 22 20 19 18 17 9 10 11 25 24 27 28 29 32 37 38 37 38 39 40 42 42 45 50 53 57 63 62 66 64 63 64 64 65 66 65 65
24 25 25 22 22 23 22 22 22 21 20 15 12 16 20 28 31 30 29 30 31 33 36 38 37 38 40 42 42 43 45 47 51 55 56 60 64 65 64 65 65 65 65 66
24 24 24 25 23 25 24 22 18 14 20 10 11 13 25 30 33 33 32 33 34 33 33 36 36 37 38 40 42 43 42 43 46 50 51 53 55 58 59 61 63 65 65 65
23 21 23 24 24 21 23 21 14 9 7 11 14 22 27 34 34 34 34 34 33 33 33 33 35 36 36 38 41 40 40 42 43 45 47 49 51 53 54 54 56 58 61 65
27 23 25 24 25 25 26 22 19 20 21 19 22 31 33 27 30 33 32 31 32 32 32 33 34 34 35 37 37 39 39 39 41 43 45 46 47 50 51 53 56 57 59 60
29 28 26 28 28 27 27 29 25 25 19 17 24 25 24 27 29 31 30 30 31 32 31 31 32 34 33 35 37 38 38 38 39 40 42 43 44 45 47 48 49 49 52 54
31 32 26 27 28 28 33 29 26 25 25 22 21 25 31 29 30 29 29 30 30 31 31 30 31 32 34 31 33 36 36 37 38 38 39 40 41 43 43 43 43 45 47 51
31 34 30 27 27 32 30 29 25 25 21 24 31 26 32 31 32 31 31 30 31 31 31 31 31 31 32 30 31 33 34 36 37 36 37 38 39 39 40 40 41 42 43 45
35 32 22 20 29 24 24 31 34 34 32 31 29 25 32 30 31 31 29 29 30 30 31 30 30 30 30 32 31 33 33 34 36 36 36 36 37 37 38 38 38 39 40 41
38 29 27 25 25 26 25 26 28 30 33 30 26 24 26 27 27 28 28 28 29 29 29 28 30 31 31 32 32 32 33 33 35 34 35 35 35 36 37 37 37 37 37 37
35 31 32 29 31 28 30 29 30 29 31 28 25 23 25 26 27 27 28 28 26 25 24 24 24 26 28 30 31 30 31 31 32 32 33 35 36 35 35 36 37 37 36 35
34 31 34 31 33 29 28 30 31 28 26 25 23 23 28 28 28 27 26 26 25 23 22 23 24 24 25 27 28 27 27 29 30 30 31 33 34 35 35 35 35 35 35 35
31 30 29 29 32 29 24 27 30 27 27 26 22 25 28 26 25 25 25 24 22 22 22 24 24 25 25 26 27 27 27 28 29 29 29 30 32 33 34 34 34 34 34 34
28 28 29 29 31 22 29 33 30 27 27 26 26 27 27 26 26 24 24 24 23 22 23 24 25 24 26 26 27 27 27 27 28 28 28 28 29 30 32 32 33 33 34 33
30 30 29 27 24 27 28 27 29 29 25 26 27 27 26 27 25 24 23 24 24 24 23 23 24 25 25 25 25 26 26 26 27 28 27 29 29 29 29 30 31 32 32 32
29 32 31 26 22 21 25 27 30 29 24 25 25 27 28 28 26 24 23 24 24 22 20 20 20 20 24 25 24 24 26 26 29 29 29 29 29 30 30 31 32 32 33 33
24 26 28 26 24 23 24 28 31 25 26 26 23 25 26 25 26 24 24 24 24 21 18 18 17 16 17 20 23 23 24 28 28 27 30 29 30 30 30 31 32 32 33 33
21 24 26 26 25 22 27 31 27 30 29 26 25 25 24 24 23 21 22 21 19 19 15 15 16 16 16 16 18 20 22 21 24 26 25 28 29 27 28 28 30 31 32 32
25 25 24 25 25 29 29 31 31 30 29 26 25 24 24 24 22 22 19 16 14 13 13 13 13 14 15 15 15 16 18 18 20 22 22 23 24 28 30 27 28 26 28 27
27 27 27 26 27 27 28 27 29 30 29 26 24 23 22 20 19 18 15 12 11 9 9 10 10 11 12 14 14 16 17 16 16 17 19 19 20 20 22 22 22 22 24 23
28 28 28 27 27 27 25 27 29 28 26 23 22 22 21 20 18 16 12 9 8 7 7 7 7 8 10 12 13 14 15 15 13 14 15 18 17 17 17 20 22 20 23 22
28 29 30 32 31 29 29 27 27 25 23 22 20 19 18 17 15 13 10 8 7 7 7 4 3 4 7 10 11 13 14 13 14 13 14 18 18 18 17 17 18 21 19 19

GFSCGP_sfc_dewp_132.txt.gz
Dewpoint
19 14 10 10 14 12 7 3 2 2 4 7 8 7 7 8 22 27 26 27 27 28 30 31 34 35 37 39 41 44 46 47 47 48 52 58 64 65 66 63 64 66 67 67
16 14 12 14 12 11 10 8 8 9 9 10 8 8 8 23 26 27 27 27 27 28 28 29 32 34 37 38 39 41 43 44 45 47 51 56 61 65 65 64 63 64 68 67
15 14 17 16 12 11 12 12 11 12 11 11 11 7 3 25 26 27 28 28 28 28 28 29 30 31 33 35 38 39 41 42 44 47 50 55 59 63 64 64 62 64 65 68
15 15 14 15 13 12 12 15 16 15 14 11 10 6 6 22 26 27 28 28 28 28 28 29 29 29 31 33 36 38 40 42 44 47 49 52 54 57 62 63 63 62 64 66
17 15 19 16 13 16 16 19 19 19 16 16 14 8 20 24 27 28 28 28 28 28 28 28 30 30 30 32 34 37 39 42 43 45 49 52 54 59 62 62 62 62 63 64
17 20 19 16 17 19 20 20 22 23 20 18 13 7 23 28 29 29 29 29 29 28 29 28 30 31 30 34 35 35 37 41 42 43 49 51 53 58 62 61 63 62 64 64
19 17 19 18 18 20 23 23 23 21 21 15 6 7 27 28 28 29 29 28 29 29 30 30 30 31 31 32 34 35 36 40 42 43 48 50 51 56 56 58 58 57 58 61
18 19 18 19 19 18 23 22 20 14 10 14 15 20 28 31 30 30 31 30 29 29 30 31 30 30 32 33 33 34 35 39 42 43 45 47 48 50 51 52 52 52 57 57
26 18 20 19 19 20 23 21 23 22 21 20 20 29 28 28 28 32 29 28 28 30 30 31 30 31 32 33 33 34 34 34 41 43 44 46 45 45 46 48 50 50 49 52
28 28 21 19 20 21 22 25 25 24 18 17 17 29 28 26 28 30 30 29 28 31 30 30 31 32 32 32 33 34 34 33 39 41 42 43 42 43 43 43 43 45 45 46
28 29 24 23 24 22 25 24 24 24 26 23 21 25 28 28 29 29 29 30 29 31 30 30 30 32 32 32 33 33 33 33 35 41 42 40 40 41 41 41 41 41 41 41
30 35 31 24 24 26 28 27 29 29 23 25 31 26 31 32 30 27 28 28 28 30 31 30 31 31 32 32 32 32 33 34 33 39 39 39 38 39 39 39 39 39 39 39
31 34 23 24 26 24 23 28 26 30 34 29 28 25 29 28 28 28 28 28 29 28 30 30 30 30 31 31 32 32 32 33 34 35 37 38 38 37 37 37 37 37 37 37
35 30 29 29 28 26 23 23 24 25 28 31 28 25 28 26 26 26 27 27 28 30 29 27 28 29 30 31 32 32 32 32 34 35 35 35 36 37 37 36 35 36 36 36
32 31 33 28 26 27 29 26 27 29 32 31 28 25 25 26 26 26 26 26 24 23 23 23 24 26 28 30 30 31 31 32 32 33 34 35 35 35 35 35 35 34 34 33
34 30 34 31 29 26 27 30 31 26 28 27 25 23 27 26 26 26 25 24 23 22 22 23 23 24 25 27 29 29 30 30 30 30 30 31 32 32 32 33 32 33 32 32
33 31 29 25 31 28 27 28 31 26 26 26 24 26 27 25 25 25 25 24 23 22 23 25 24 26 26 26 26 27 27 29 28 29 28 28 29 29 30 31 30 30 31 31
32 30 29 27 29 23 29 29 28 26 26 26 26 26 26 25 25 25 24 24 23 22 22 25 27 27 27 26 26 27 27 28 27 28 27 27 27 28 29 29 30 30 29 30
29 30 29 25 26 26 26 26 26 26 26 27 26 26 25 25 25 24 24 24 25 23 23 24 27 29 25 24 24 25 26 27 28 27 28 28 27 27 28 27 29 30 30 30
27 28 30 28 23 21 27 26 27 27 24 28 28 27 26 25 25 26 25 25 25 21 18 16 16 16 25 25 21 21 25 25 26 29 27 28 29 27 27 28 27 29 28 28
26 27 27 27 22 27 26 27 28 24 28 28 28 28 27 26 29 26 26 25 25 23 14 14 13 12 12 15 20 19 20 24 24 25 28 27 28 28 27 27 26 26 27 26
23 26 26 25 22 24 28 28 27 30 30 28 29 30 30 27 25 24 25 25 21 14 9 10 11 11 12 12 13 14 16 16 19 22 23 22 27 26 27 26 24 23 23 23
24 25 29 28 27 30 32 34 32 29 28 27 28 28 27 25 23 22 22 15 10 7 6 6 8 10 10 11 11 11 13 13 15 18 19 21 21 23 25 25 24 21 21 20
28 26 30 28 28 28 32 31 30 28 28 27 26 25 24 23 21 19 15 10 6 3 3 4 6 7 8 9 10 12 12 12 13 14 17 18 19 19 20 21 22 21 20 19
28 27 29 28 28 28 29 32 30 28 26 25 25 24 23 21 17 14 10 7 5 3 3 3 5 6 6 7 9 11 12 12 13 13 16 18 19 18 17 21 22 22 21 20
28 30 30 31 31 30 31 32 31 28 25 23 22 21 21 18 13 10 8 7 5 4 2 0 3 4 5 6 9 10 13 12 15 15 14 20 20 20 19 18 19 23 22 22

GFSCGP_sfc_dewp_135.txt.gz
Dewpoint
21 18 16 15 16 15 10 7 2 3 4 10 10 8 7 26 27 27 27 27 28 28 28 29 30 30 30 31 32 35 36 38 39 41 42 45 47 54 57 62 65 67 67 67
18 17 17 16 15 15 13 10 8 10 11 11 10 9 24 26 27 27 27 28 28 28 28 29 29 30 29 29 31 33 34 37 38 40 42 45 48 52 55 57 61 67 67 66
17 17 19 17 15 13 11 12 12 15 15 14 12 10 25 27 28 28 28 28 28 27 28 28 28 29 29 29 29 32 34 36 38 40 42 45 48 50 53 55 60 63 65 67
16 16 16 17 16 13 10 19 19 18 17 13 15 9 23 27 28 28 28 28 28 28 29 29 28 28 29 27 29 32 33 35 37 41 42 44 45 45 49 52 55 58 64 66
20 19 17 17 16 14 14 22 21 21 19 19 17 13 24 28 27 28 28 28 28 28 29 29 28 29 28 28 30 31 33 35 36 41 43 44 46 50 50 54 57 61 63 65
18 19 20 20 18 18 21 22 22 22 21 19 19 17 24 27 27 28 28 28 28 28 30 29 29 29 29 31 31 32 34 34 36 38 43 44 47 49 51 54 58 60 62 63
21 20 20 21 18 22 20 22 22 20 21 19 18 21 26 28 29 28 27 28 29 29 29 29 29 29 30 31 33 33 34 34 35 37 42 44 46 47 53 55 58 57 56 56
22 19 19 20 18 18 20 23 22 17 17 19 22 25 28 30 29 28 28 27 28 29 29 29 29 30 30 31 33 34 33 33 34 36 40 44 44 46 50 49 49 51 55 52
27 26 25 19 19 20 24 22 24 25 24 21 24 27 30 28 29 31 28 27 29 30 29 29 29 30 31 32 33 33 33 33 33 36 40 42 43 44 45 45 45 45 45 48
30 27 30 20 21 22 22 27 25 26 19 18 22 25 23 26 27 28 29 28 29 30 27 28 29 30 32 32 33 33 33 33 33 34 38 39 42 43 43 42 41 42 42 42
30 29 29 29 23 21 26 23 26 26 26 20 13 22 29 25 29 28 29 29 29 30 28 28 28 30 32 31 33 32 32 32 32 33 36 38 40 40 40 39 38 38 39 39
33 34 29 27 28 26 27 29 29 26 25 28 25 22 30 30 29 28 27 28 30 31 29 27 29 29 30 30 31 32 32 31 32 33 34 35 38 37 37 36 37 37 36 36
33 32 26 24 27 30 26 30 29 35 33 27 21 18 31 29 29 28 26 28 29 28 27 27 27 28 30 30 31 31 31 32 32 33 33 34 35 35 34 34 35 35 35 33
38 33 29 27 29 32 26 24 26 27 21 21 22 24 27 27 26 26 26 27 27 24 24 24 26 28 29 29 29 30 31 32 32 33 33 33 34 33 33 32 32 33 33 32
35 32 30 32 30 29 29 27 28 27 30 27 20 22 27 27 26 27 27 26 24 23 23 22 24 26 27 28 29 29 29 30 31 31 31 32 32 32 31 32 31 31 31 31
34 30 29 25 31 28 22 25 27 29 29 29 26 24 27 27 28 27 25 24 23 22 23 22 23 25 24 25 26 28 30 29 29 27 28 31 30 31 31 31 30 30 29 29
34 32 28 24 29 28 26 22 27 28 27 28 24 25 27 26 26 26 25 24 23 23 24 24 24 26 25 26 26 26 28 27 29 29 26 27 28 28 30 29 29 29 29 27
34 32 30 26 29 21 25 31 30 27 27 27 26 26 26 26 25 25 25 24 25 23 24 25 24 24 25 25 26 26 26 27 25 27 26 25 26 26 27 27 27 27 28 27
37 33 28 25 26 25 27 27 27 26 25 27 26 26 25 25 24 24 24 25 24 23 22 25 24 24 24 23 23 26 24 26 25 26 27 26 24 24 24 25 26 25 25 25
33 34 32 26 25 21 26 27 28 27 23 27 27 26 25 25 24 24 25 26 25 26 19 17 16 15 21 22 21 22 25 22 26 25 26 28 26 24 22 23 23 24 23 23
27 28 25 24 24 27 27 28 29 23 21 28 28 27 26 25 27 26 26 25 25 26 16 15 13 12 12 15 19 18 20 23 22 25 24 27 27 25 24 22 22 22 21 20
26 25 25 26 24 23 30 28 26 28 29 30 29 28 28 26 25 25 25 23 23 16 11 12 12 12 12 12 12 13 15 17 20 21 23 22 26 23 26 22 21 20 19 17
28 28 27 27 27 31 32 32 32 29 28 30 29 28 27 26 24 24 24 24 16 6 7 9 10 11 11 12 12 12 13 15 16 19 20 20 21 23 24 22 20 19 18 17
29 32 27 27 28 30 31 32 30 29 28 28 27 26 25 23 22 22 21 11 6 3 5 8 9 9 10 11 12 13 14 16 15 17 18 19 19 19 21 22 21 18 17 17
29 30 28 27 28 30 30 32 30 28 27 26 26 25 24 23 21 16 13 7 5 4 5 7 9 9 9 11 12 13 14 16 15 15 17 20 19 19 19 20 21 20 15 18
30 29 26 22 28 28 29 32 29 27 26 26 24 23 21 19 16 12 9 8 5 6 5 6 8 9 9 11 12 13 15 16 18 15 16 20 21 19 19 19 19 22 21 24